[[{"header":{"parameterUnit":"m.s-1","parameterCategory":1,"la1":31.0,"la2":29.5877,"lo1":-88.7671,"lo2":-86.6584,"dy":0.0162,"dx":0.0185,"nx":115,"ny":88,"refTime":"2023-10-03T06:00:00:Z","depth":0,"parameterNumber":2,"parameterNumberName":"U-component_of_WINDS"},"data":[0.0,0.0,0.0,0.0,0.0,0.0,0.0,0.0,0.0,0.0,0.0,0.0,0.0,0.0,0.0,0.0,0.0,0.0,0.0,0.0,0.0,0.0,0.0,0.0,0.0,0.0,0.0,0.0,0.0,0.0,0.0,0.0,0.0,0.0,0.0,0.0,0.0,0.0,0.0,0.0,0.0,0.0,0.0,0.0,0.0,0.0,0.0,0.0,0.0,0.0,0.0,0.0,0.0,0.0,0.0,0.0,0.0,0.0,0.0,0.0,0.0,0.0,0.0,0.0,0.0,0.0,0.0,0.0,0.0,0.0,0.0,0.0,0.0,0.0,0.0,0.0,0.0,0.0,0.0,0.0,0.0,0.0,0.0,0.0,0.0,0.0,0.0,0.0,0.0,0.0,0.0,0.0,0.0,0.0,0.0,0.0,0.0,0.0,0.0,0.0,0.0,0.0,0.0,0.0,0.0,0.0,0.0,0.0,0.0,0.0,0.0,0.0,0.0,0.0,0.0,0.0,0.0,0.0,0.0,0.0,0.0,0.0,0.0,0.0,0.0,0.0,0.0,0.0,0.0,0.0,0.0,0.0,0.0,0.0,0.0,0.0,0.0,0.0,0.0,0.0,0.0,0.0,0.0,0.0,0.0,0.0,0.0,0.0,0.0,0.0,0.0,0.0,0.0,0.0,0.0,0.0,0.0,0.0,0.0,0.0,0.0,0.0,0.0,0.0,0.0,0.0,0.0,0.0,0.0,0.0,0.0,0.0,0.0,0.0,0.0,0.0,0.0,0.0,0.0,0.0,0.0,0.0,0.0,0.0,0.0,0.0,0.0,0.0,0.0,0.0,0.0,0.0,0.0,0.0,0.0,0.0,0.0,0.0,0.0,0.0,0.0,0.0,0.0,0.0,0.0,0.0,0.0,0.0,0.0,0.0,0.0,0.0,0.0,0.0,0.0,0.0,0.0,0.0,0.0,0.0,0.0,0.0,0.0,0.0,0.0,0.0,0.0,0.0,0.0,0.0,0.0,0.0,0.0,0.0,0.0,0.0,0.0,0.0,0.0,0.0,0.0,0.0,0.0,0.0,0.0,0.0,0.0,0.0,0.0,0.0,0.0,0.0,0.0,0.0,0.0,0.0,0.0,0.0,0.0,0.0,0.0,0.0,0.0,0.0,0.0,0.0,0.0,0.0,0.0,0.0,0.0,0.0,0.0,0.0,0.0,0.0,0.0,0.0,0.0,0.0,0.0,0.0,0.0,0.0,0.0,0.0,0.0,0.0,0.0,0.0,0.0,0.0,0.0,0.0,0.0,0.0,0.0,0.0,0.0,0.0,0.0,0.0,0.0,0.0,0.0,0.0,0.0,0.0,0.0,0.0,0.0,0.0,0.0,0.0,0.0,0.0,0.0,0.0,0.0,0.0,0.0,0.0,0.0,0.0,0.0,0.0,0.0,0.0,0.0,0.0,0.0,0.0,0.0,0.0,0.0,0.0,0.0,0.0,0.0,0.0,0.0,0.0,0.0,0.0,0.0,0.0,0.0,0.0,0.0,0.0,0.0,0.0,0.0,0.0,0.0,0.0,0.0,0.0,0.0,0.0,0.0,0.0,0.0,0.0,0.0,0.0,0.0,0.0,0.0,0.0,0.0,0.0,0.0,0.0,0.0,0.0,0.0,0.0,0.0,0.0,0.0,0.0,0.0,0.0,0.0,0.0,0.0,0.0,0.0,0.0,0.0,0.0,0.0,0.0,0.0,0.0,0.0,0.0,0.0,0.0,0.0,0.0,0.0,0.0,0.0,0.0,0.0,0.0,0.0,0.0,0.0,0.0,0.0,0.0,0.0,0.0,0.0,0.0,0.0,0.0,0.0,0.0,0.0,0.0,0.0,0.0,0.0,0.0,0.0,0.0,0.0,0.0,0.0,0.0,0.0,0.0,0.0,0.0,0.0,0.0,0.0,0.0,0.0,0.0,0.0,0.0,0.0,0.0,0.0,0.0,0.0,0.0,0.0,0.0,0.0,0.0,0.0,0.0,0.0,0.0,0.0,0.0,0.0,0.0,0.0,0.0,0.0,0.0,0.0,0.0,0.0,0.0,0.0,0.0,0.0,0.0,0.0,0.0,0.0,0.0,0.0,0.0,0.0,0.0,0.0,0.0,0.0,0.0,0.0,0.0,0.0,0.0,0.0,0.0,0.0,0.0,0.0,0.0,0.0,0.0,0.0,0.0,0.0,0.0,0.0,0.0,0.0,0.0,0.0,0.0,0.0,0.0,0.0,0.0,0.0,0.0,0.0,0.0,0.0,0.0,0.0,0.0,0.0,0.0,0.0,0.0,0.0,0.0,0.0,0.0,0.0,0.0,0.0,0.0,0.0,0.0,0.0,0.0,0.0,0.0,0.0,0.0,0.0,0.0,0.0,0.0,0.0,0.0,0.0,0.0,0.0,0.0,0.0,0.0,0.0,0.0,0.0,0.0,0.0,0.0,0.0,0.0,0.0,0.0,0.0,0.0,0.0,0.0,0.0,0.0,0.0,0.0,0.0,0.0,0.0,0.0,0.0,0.0,0.0,0.0,0.0,0.0,0.0,0.0,0.0,0.0,0.0,0.0,0.0,0.0,0.0,0.0,0.0,0.0,0.0,0.0,0.0,0.0,0.0,0.0,0.0,0.0,0.0,0.0,0.0,0.0,0.0,0.0,0.0,0.0,0.0,0.0,0.0,0.0,0.0,0.0,0.0,0.0,0.0,0.0,0.0,0.0,0.0,0.0,0.0,0.0,0.0,0.0,0.0,0.0,0.0,0.0,0.0,0.0,0.0,0.0,0.0,0.0,0.0,0.0,0.0,0.0,0.0,0.0,0.0,0.0,0.0,0.0,0.0,0.0,0.0,0.0,0.0,0.0,0.0,0.0,0.0,0.0,0.0,0.0,0.0,0.0,0.0,0.0,0.0,0.0,0.0,0.0,0.0,0.0,0.0,0.0,0.0,0.0,0.0,0.0,0.0,0.0,0.0,0.0,0.0,0.0,0.0,0.0,0.0,0.0,0.0,0.0,0.0,0.0,0.0,0.0,0.0,0.0,0.0,0.0,0.0,0.0,0.0,0.0,0.0,0.0,0.0,0.0,0.0,0.0,0.0,0.0,0.0,0.0,0.0,0.0,0.0,0.0,0.0,0.0,0.0,0.0,0.0,0.0,0.0,0.0,0.0,0.0,0.0,0.0,0.0,0.0,0.0,0.0,0.0,0.0,0.0,0.0,0.0,0.0,0.0,0.0,0.0,0.0,0.0,0.0,0.0,0.0,0.0,0.0,0.0,0.0,0.0,0.0,0.0,0.0,0.0,0.0,0.0,0.0,0.0,0.0,0.0,0.0,0.0,0.0,0.0,0.0,0.0,0.0,0.0,0.0,0.0,0.0,0.0,0.0,0.0,0.0,0.0,0.0,0.0,0.0,0.0,0.0,0.0,0.0,0.0,0.0,0.0,0.0,0.0,0.0,0.0,0.0,0.0,0.0,0.0,0.0,0.0,0.0,0.0,0.0,0.0,0.0,0.0,0.0,0.0,0.0,0.0,0.0,0.0,0.0,0.0,0.0,0.0,0.0,0.0,0.0,0.0,0.0,0.0,0.0,0.0,0.0,0.0,0.0,0.0,0.0,0.0,0.0,0.0,0.0,0.0,0.0,0.0,0.0,0.0,0.0,0.0,0.0,0.0,0.0,0.0,0.0,0.0,0.0,0.0,0.0,0.0,0.0,0.0,0.0,0.0,0.0,0.0,0.0,0.0,0.0,0.0,0.0,0.0,0.0,0.0,0.0,0.0,0.0,0.0,0.0,0.0,0.0,0.0,0.0,0.0,0.0,0.0,0.0,0.0,0.0,0.0,0.0,0.0,0.0,0.0,0.0,0.0,0.0,0.0,0.0,0.0,0.0,0.0,0.0,0.0,0.0,0.0,0.0,0.0,0.0,0.0,0.0,0.0,0.0,0.0,0.0,0.0,0.0,0.0,0.0,0.0,0.0,0.0,0.0,0.0,0.0,0.0,0.0,0.0,0.0,0.0,0.0,0.0,0.0,0.0,0.0,0.0,0.0,0.0,0.0,0.0,0.0,0.0,0.0,0.0,0.0,0.0,0.0,0.0,0.0,0.0,0.0,0.0,0.0,0.0,0.0,0.0,0.0,0.0,0.0,0.0,0.0,0.0,0.0,0.0,0.0,0.0,0.0,0.0,0.0,0.0,0.0,0.0,0.0,0.0,0.0,0.0,0.0,0.0,0.0,0.0,0.0,0.8937,0.0,0.0,0.0,0.0,0.0,0.0,0.0,0.0,0.0,0.0,0.0,0.0,0.0,0.0,0.0,0.0,0.0,0.0,0.0,0.0,0.0,0.0,0.0,0.0,0.0,0.0,0.0,0.0,0.0,0.0,0.0,0.0,0.0,0.0,0.0,0.0,0.0,0.0,0.0,0.0,0.0,0.0,0.0,0.0,0.0,0.0,0.0,0.0,0.0,0.0,0.0,0.0,0.0,0.0,0.0,0.0,0.0,0.0,0.0,0.0,0.0,0.0,0.0,0.0,0.0,0.0,0.0,0.0,0.0,0.0,0.0,0.0,0.0,0.0,0.0,0.0,0.0,0.0,0.0,0.0,0.0,0.0,0.0,0.0,0.0,0.0,0.0,0.0,0.0,0.0,0.0,0.0,0.0,0.0,0.0,0.0,0.0,0.0,0.0,0.0,0.0,0.0,0.0,0.0,0.0,0.0,0.0,0.0,0.0,0.0,1.7185,1.6784,1.3822,1.1225,0.9192,0.0,0.0,0.0,0.0,0.0,0.0,0.0,0.0,0.0,0.0,0.0,0.0,0.0,0.0,0.0,0.0,0.0,0.0,0.0,0.0,0.0,0.0,0.0,0.0,0.0,0.0,0.0,0.0,0.0,0.0,0.0,0.0,0.0,0.0,0.0,0.0,0.0,0.0,0.0,0.0,0.0,0.0,0.0,0.0,0.0,0.0,0.0,0.0,0.0,0.0,0.0,0.0,0.0,0.0,0.0,0.0,0.0,0.0,0.0,0.0,0.0,0.0,0.0,0.0,0.0,0.0,0.0,0.0,0.0,0.0,0.0,0.0,0.0,0.0,0.0,0.0,0.0,0.0,0.0,0.0,0.0,0.0,0.0,0.0,0.0,0.0,0.0,0.0,0.0,0.0,0.0,0.0,0.0,0.0,0.0,0.0,0.0,0.0,0.0,0.0,0.0,0.0,0.0,0.0,0.0,0.0,0.0,0.0,0.0,0.0,0.0,0.0,1.4096,1.129,0.8933,0.0,0.0,0.0,0.0,0.0,0.0,0.0,0.0,0.0,0.0,0.0,0.0,0.0,0.0,0.0,0.0,0.0,0.0,0.0,0.0,0.0,0.0,0.0,0.0,0.0,0.0,0.0,0.0,0.0,0.0,0.0,0.0,0.0,0.0,0.0,0.0,0.0,0.0,0.0,0.0,0.0,0.0,0.0,0.0,0.0,0.0,0.0,0.0,0.0,0.0,0.0,0.0,0.0,0.0,0.0,0.0,0.0,0.0,0.0,0.0,0.0,0.0,0.0,0.0,0.0,0.0,0.0,0.0,0.0,0.0,0.0,0.0,0.0,0.0,0.0,0.0,0.0,0.0,0.0,0.0,0.0,0.0,0.0,0.0,0.0,0.0,0.0,0.0,0.0,0.0,0.0,0.0,0.0,0.0,0.0,0.0,0.0,0.0,0.0,0.0,0.0,0.0,0.0,0.0,0.0,0.0,0.0,0.0,0.0,0.0,1.7216,1.7568,1.4789,0.0,0.7364,0.0,0.0,0.0,0.0,0.0,0.0,0.0,0.0,0.0,0.0,0.0,0.0,0.0,0.0,0.0,0.0,0.0,0.0,0.0,0.0,0.0,0.0,0.0,0.0,0.0,0.0,0.0,0.0,0.0,0.0,0.0,0.0,0.0,0.0,0.0,0.0,0.0,0.0,0.0,0.0,0.0,0.0,0.0,0.0,0.0,0.0,0.0,0.0,0.0,0.0,0.0,0.0,0.0,0.0,0.0,0.0,0.0,0.0,0.0,0.0,0.0,0.0,0.0,0.0,0.0,0.0,0.0,0.0,0.0,0.0,0.0,0.0,0.0,0.0,0.0,0.0,0.0,0.0,0.0,0.0,0.0,0.0,0.0,0.0,0.0,0.0,0.0,0.0,0.0,0.0,0.0,0.0,0.0,0.0,0.0,0.0,0.0,0.0,0.0,0.0,0.0,0.0,0.0,0.0,0.0,0.0,0.0,0.0,0.0,0.0,1.71,1.6759,1.3234,0.9869,0.0,0.0,0.0,0.0,0.0,0.0,0.0,0.0,0.0,0.0,0.0,0.0,0.0,0.0,0.0,0.0,0.0,0.0,0.0,0.0,0.0,0.0,0.0,0.0,0.0,0.0,0.0,0.0,0.0,0.0,0.0,0.0,0.0,0.0,0.0,0.0,0.0,0.0,0.0,0.0,0.0,0.0,0.0,0.0,0.0,0.0,0.0,0.0,0.0,0.0,0.0,0.0,0.0,0.0,0.0,0.0,0.0,0.0,0.0,0.0,0.0,0.0,0.0,0.0,0.0,0.0,0.0,0.0,0.0,0.0,0.0,0.0,0.0,0.0,0.0,0.0,0.0,0.0,0.0,0.0,0.0,0.0,0.0,0.0,0.0,0.0,0.0,0.0,0.0,0.0,0.0,0.0,0.0,0.0,0.0,0.0,0.0,0.0,0.0,0.0,0.0,0.0,0.0,0.0,0.0,0.0,0.0,0.0,0.0,0.0,1.6864,1.6245,1.5092,1.1313,0.8392,0.6726,0.0,0.0,0.0,0.0,0.0,0.0,0.0,0.0,0.0,0.0,0.0,0.0,0.0,0.0,0.0,0.0,0.0,0.0,0.0,0.0,0.0,0.0,0.0,0.0,0.0,0.0,0.0,0.0,0.0,0.0,0.0,0.0,0.0,0.0,0.0,0.0,0.0,0.0,0.0,0.0,0.0,0.0,0.0,0.0,0.0,0.0,0.0,0.0,0.0,0.0,0.0,0.0,0.0,0.0,0.0,0.0,0.0,0.0,0.0,0.0,0.0,0.0,0.0,0.0,0.0,0.0,0.0,0.0,0.0,0.0,0.0,0.0,0.0,0.0,0.0,0.0,0.0,0.0,0.0,0.0,0.0,0.0,0.0,0.0,0.0,0.0,0.0,0.0,0.0,0.0,0.0,0.0,0.0,0.0,0.0,0.0,0.0,0.0,0.0,0.0,0.0,0.0,0.0,0.0,0.0,0.0,0.0,0.0,1.9121,1.6567,1.4448,1.3103,0.9383,0.7304,0.0,0.0,0.0,0.0,0.0,0.0,0.0,0.0,0.0,0.0,0.0,0.0,0.0,0.0,0.0,0.0,0.0,0.0,0.0,0.0,0.0,0.0,0.0,0.0,0.0,0.0,0.0,0.0,0.0,0.0,0.0,0.0,0.0,0.0,0.0,0.0,0.0,0.0,0.0,0.0,0.0,0.0,0.0,0.0,0.0,0.0,0.0,0.0,0.0,0.0,0.0,0.0,0.0,0.0,0.0,0.0,0.0,0.0,0.0,0.0,0.0,0.0,0.0,0.0,0.0,0.0,0.0,0.0,0.0,0.0,0.0,0.0,0.0,0.0,0.0,0.0,0.0,0.0,0.0,0.0,0.0,0.0,0.0,0.0,0.0,0.0,0.0,0.0,0.0,0.0,0.0,0.0,0.0,0.0,0.0,0.0,0.0,0.0,0.0,0.0,0.0,0.0,0.0,0.0,0.0,0.0,0.0,0.0,0.0,1.6056,1.4917,1.3963,1.328,1.0201,0.82,0.0,0.0,0.0,0.0,0.0,0.0,0.0,0.0,0.0,0.0,0.0,0.0,0.0,0.0,0.0,0.0,0.0,0.0,0.0,0.0,0.0,0.0,0.0,0.0,0.0,0.0,0.0,0.0,0.0,0.0,0.0,0.0,0.0,0.0,0.0,0.0,0.0,0.0,0.0,0.0,0.0,0.0,0.0,0.0,0.0,0.0,0.0,0.0,0.0,0.0,0.0,0.0,0.0,0.0,0.0,0.0,0.0,0.0,0.0,0.0,0.0,0.0,0.0,0.0,0.0,0.0,0.0,0.0,0.0,0.0,0.0,0.0,0.0,0.0,0.0,0.0,0.0,0.0,0.0,0.0,0.0,0.0,0.0,0.0,0.0,0.0,0.0,0.0,0.0,0.0,0.0,0.0,0.0,0.0,0.0,0.0,0.0,0.0,0.0,0.0,0.0,0.0,0.0,0.0,0.0,0.0,0.0,0.0,0.0,1.4255,0.0,1.3781,1.3,1.0495,0.8477,0.0,0.0,0.0,0.0,0.0,0.0,0.0,0.0,0.0,0.0,0.0,0.0,0.0,0.0,0.0,0.0,0.0,0.0,0.0,0.0,0.0,0.0,0.0,0.0,0.0,0.0,0.0,0.0,0.0,0.0,0.0,0.0,0.0,0.0,0.0,0.0,0.0,0.0,0.0,0.0,0.0,0.0,0.0,0.0,0.0,0.0,0.0,0.0,0.0,0.0,0.0,0.0,0.0,0.0,0.0,0.0,0.0,0.0,0.0,0.0,0.0,0.0,0.0,0.0,0.0,0.0,0.0,0.0,0.0,0.0,0.0,0.0,0.0,0.0,0.0,0.0,0.0,0.0,0.0,0.0,0.0,0.0,0.0,0.0,0.0,0.0,0.0,0.0,0.0,0.0,0.0,0.0,0.0,0.0,0.0,0.0,0.0,0.0,0.0,0.0,0.0,0.0,0.0,0.0,0.0,0.0,0.0,0.0,1.3489,1.419,1.4431,1.3663,1.1953,0.9931,0.8016,0.0,0.0,0.0,0.0,0.0,0.0,0.0,0.0,0.0,0.0,0.0,0.0,0.0,0.0,0.0,0.0,0.0,0.0,0.0,0.0,0.0,0.0,0.0,0.0,0.0,0.0,0.0,0.0,0.0,0.0,0.0,0.0,0.0,0.0,0.0,0.0,0.0,0.0,0.0,0.0,0.0,0.0,0.0,0.0,0.0,0.0,0.0,0.0,0.0,0.0,0.0,0.0,0.0,0.0,0.0,0.0,0.0,0.0,0.0,0.0,0.0,0.0,0.0,0.0,0.0,0.0,0.0,0.0,0.0,0.0,0.0,0.0,0.0,0.0,0.0,0.0,0.0,0.0,0.0,0.0,0.0,0.0,0.0,0.0,0.0,0.0,0.0,0.0,0.0,0.0,0.0,0.0,0.0,0.0,0.0,0.0,0.0,0.0,0.0,0.0,0.0,0.0,0.0,0.0,0.0,0.0,0.0,0.0,0.0,1.1207,1.16,1.1782,1.1608,0.9133,0.7847,0.0,0.0,0.0,0.0,0.0,0.0,0.0,0.0,0.0,0.0,0.0,0.0,0.0,0.0,0.0,0.0,0.0,0.0,0.0,0.0,0.0,0.0,0.0,0.0,0.0,0.0,0.0,0.0,0.0,0.0,0.0,0.0,0.0,0.0,0.0,0.0,0.0,0.0,0.0,0.0,0.0,0.0,0.0,0.0,0.0,0.0,0.0,0.0,0.0,0.0,0.0,0.0,0.0,0.0,0.0,0.0,0.0,0.0,0.0,0.0,0.0,0.0,0.0,0.0,0.0,0.0,0.0,0.0,0.0,0.0,0.0,0.0,0.0,0.0,0.0,0.0,0.0,0.0,0.0,0.0,0.0,0.0,0.0,0.0,0.0,0.0,0.0,0.0,0.0,0.0,0.0,0.0,0.0,0.0,0.0,0.0,0.0,0.0,0.0,0.0,0.0,0.0,0.0,0.0,0.0,0.0,0.0,0.0,0.0,0.9048,0.995,1.0406,1.0304,0.8184,0.7225,0.7604,0.0,0.0,0.0,0.0,0.0,0.0,0.0,0.0,0.0,0.0,0.0,0.0,0.0,0.0,0.0,0.0,0.0,0.0,0.0,0.0,0.0,0.0,0.0,0.0,0.0,0.0,0.0,0.0,0.0,0.0,0.0,0.0,0.0,0.0,0.0,0.0,0.0,0.0,0.0,0.0,0.0,0.0,0.0,0.0,0.0,0.0,0.0,0.0,0.0,0.0,0.0,0.0,0.0,0.0,0.0,0.0,0.0,0.0,0.0,0.0,0.0,0.0,0.0,0.0,0.0,0.0,0.0,0.0,0.0,0.0,0.0,0.0,0.0,0.0,0.0,0.0,0.0,0.0,0.0,0.0,0.0,0.0,0.0,0.0,0.0,0.0,0.0,0.0,0.0,0.0,0.0,0.0,0.0,0.0,0.0,0.0,0.0,0.0,0.0,0.0,0.0,0.0,0.0,0.0,0.0,0.0,0.0,0.0,0.7482,0.9199,0.9449,0.8146,0.7268,0.6431,0.0,0.0,0.0,0.0,0.0,0.0,0.0,0.0,0.0,0.0,0.0,0.0,0.0,0.0,0.0,0.0,0.0,0.0,0.0,0.0,0.0,0.0,0.0,0.0,0.0,0.0,0.0,0.0,0.0,0.0,0.0,0.0,0.0,0.0,0.0,0.0,0.0,0.0,0.0,0.0,0.0,0.0,0.0,0.0,0.0,0.0,0.0,0.0,0.0,0.0,0.0,0.0,0.0,0.0,0.0,0.0,0.0,0.0,0.0,0.0,0.0,0.0,0.0,0.0,0.0,0.0,0.0,0.0,0.0,0.0,0.0,0.0,0.0,0.0,0.0,0.0,0.0,0.0,0.0,0.0,0.0,0.0,0.0,0.0,0.0,0.0,0.0,0.0,0.0,0.0,0.0,0.0,0.0,0.0,0.0,0.0,0.0,0.0,0.0,0.0,0.0,0.0,0.0,0.0,0.0,0.0,0.0,0.0,0.0,0.5922,0.6261,0.6948,0.7883,0.6978,0.652,0.0,0.0,0.0,0.0,0.0,0.0,0.0,0.0,0.0,0.0,0.0,0.0,0.0,0.0,0.0,0.0,0.0,0.0,0.0,0.0,0.0,0.0,0.0,0.0,0.0,0.0,0.0,0.0,0.0,0.0,0.0,0.0,0.0,0.0,0.0,0.0,0.0,0.0,0.0,0.0,0.0,0.0,0.0,0.0,0.0,0.0,0.0,0.0,0.0,0.0,0.0,0.0,0.0,0.0,0.0,0.0,0.0,0.0,0.0,0.0,0.0,0.0,0.0,0.0,0.0,0.0,0.0,0.0,0.0,0.0,0.0,0.0,0.0,0.0,0.0,0.0,0.0,0.0,0.0,0.0,0.0,0.0,0.0,0.0,0.0,0.0,0.0,0.0,0.0,0.0,0.0,0.0,0.0,0.0,0.0,0.0,0.0,0.0,0.0,0.0,0.0,0.0,0.0,0.0,0.0,0.0,0.0,0.0,0.6317,0.5501,0.4998,0.5255,0.6287,0.6023,0.5962,0.0,0.0,0.0,0.0,0.0,0.0,0.0,0.0,0.0,0.0,0.0,0.0,0.0,0.0,0.0,0.0,0.0,0.0,0.0,0.0,0.0,0.0,0.0,0.0,0.0,0.0,0.0,0.0,0.0,0.0,0.0,0.0,0.0,0.0,0.0,0.0,0.0,0.0,0.0,0.0,0.0,0.0,0.0,0.0,0.0,0.0,0.0,0.0,0.0,0.0,0.0,0.0,0.0,0.0,0.0,0.0,0.0,0.0,0.0,0.0,0.0,0.0,0.0,0.0,0.0,0.0,0.0,0.0,0.0,0.0,0.0,0.0,0.0,0.0,0.0,0.0,0.0,0.0,0.0,0.0,0.0,0.0,0.0,0.0,0.0,0.0,0.0,0.0,0.0,0.0,0.0,0.0,0.0,0.0,0.0,0.0,0.0,0.0,0.0,0.0,0.0,0.0,0.0,0.0,0.0,0.0,0.0,0.0,0.5836,0.5764,0.4798,0.4256,0.4139,0.4876,0.5157,0.0,0.0,0.0,0.0,0.0,0.0,0.0,0.0,0.0,0.0,0.0,0.0,0.0,0.0,0.0,0.0,0.0,0.0,0.0,0.0,0.0,0.0,0.0,0.0,0.0,0.0,0.0,0.0,0.0,0.0,0.0,0.0,0.0,0.0,0.0,0.0,0.0,0.0,0.0,0.0,0.0,0.0,0.0,0.0,0.0,0.0,0.0,0.0,0.0,0.0,0.0,0.0,0.0,0.0,0.0,0.0,0.0,0.0,0.0,0.0,0.0,0.0,0.0,0.0,0.0,0.0,0.0,0.0,0.0,0.0,0.0,0.0,0.0,0.0,0.0,0.0,0.0,0.0,0.0,0.0,0.0,0.0,0.0,0.0,0.0,0.0,0.0,0.0,0.0,0.0,0.0,0.0,0.0,0.0,0.0,0.0,0.0,0.0,0.0,0.0,0.0,0.0,0.0,0.0,0.0,0.0,0.0,0.0,0.5338,0.4891,0.4479,0.4294,0.4267,0.4895,0.506,0.0,0.0,0.0,0.0,0.0,0.0,0.0,0.0,0.0,0.0,0.0,0.0,0.0,0.0,0.0,0.0,0.0,0.0,0.0,0.0,0.0,0.0,0.0,0.0,0.0,0.0,0.0,0.0,0.0,0.0,0.0,0.0,0.0,0.0,0.0,0.0,0.0,0.0,0.0,0.0,0.0,0.0,0.0,0.0,0.0,0.0,0.0,0.0,1.1059,0.0,0.0,0.0,0.0,0.0,0.0,0.0,0.0,0.0,0.0,0.0,0.0,0.0,0.0,0.0,0.0,0.0,0.0,0.0,0.0,0.0,0.0,0.0,0.0,0.0,0.0,0.0,0.0,0.0,0.0,0.0,0.0,0.0,0.0,0.0,0.0,0.0,0.0,0.0,0.0,0.0,0.0,0.0,0.0,0.0,0.0,0.0,0.0,0.0,0.0,0.0,0.0,0.0,0.0,0.0,0.0,0.0,0.0,0.0,0.5272,0.4746,0.4533,0.4376,0.4372,0.4773,0.4975,0.0,0.0,0.0,0.0,0.0,0.0,0.0,0.0,0.0,0.0,0.0,0.0,0.0,0.0,0.0,0.0,0.0,0.0,0.0,0.0,0.0,0.0,0.0,0.0,0.0,0.0,0.0,0.0,0.0,0.0,0.0,0.0,0.0,0.0,0.0,0.0,0.0,0.0,0.0,0.0,0.0,0.0,0.0,0.0,0.0,0.0,0.0,0.0,0.0,0.0,0.0,0.0,0.0,0.0,0.0,0.0,0.0,0.0,0.0,0.0,0.0,0.0,0.0,0.0,0.0,0.0,0.0,0.0,0.0,0.0,0.0,0.0,0.0,0.0,0.0,0.0,0.0,0.0,0.0,0.0,0.0,0.0,0.0,0.0,0.0,0.0,0.0,0.0,0.0,0.0,0.0,0.0,0.0,0.0,0.0,0.0,0.0,0.0,0.0,0.0,0.0,0.0,0.0,0.0,0.0,0.0,0.0,0.556,0.5211,0.4855,0.4615,0.4458,0.4409,0.4666,0.4923,0.5163,0.0,0.0,0.0,0.0,0.0,0.0,0.0,0.0,0.0,0.0,0.0,0.0,0.0,0.0,0.0,0.0,0.0,0.0,0.0,0.0,0.0,0.0,0.0,0.0,0.0,0.0,0.0,0.0,0.0,0.0,0.0,0.0,0.0,0.0,0.0,0.0,0.0,0.0,0.6676,0.6764,0.0,0.0,0.0,0.0,0.0,0.0,0.0,0.0,0.9346,0.0,0.0,0.0,0.0,0.0,0.0,0.0,0.0,0.0,0.0,0.0,0.0,0.0,0.0,0.0,0.0,0.0,0.0,0.0,0.0,0.0,0.0,0.0,0.0,0.0,0.0,0.0,0.0,0.0,0.0,0.0,0.0,0.0,0.0,0.0,0.0,0.0,0.0,0.0,0.0,0.0,0.0,0.0,0.0,0.0,0.0,0.0,0.0,0.0,0.0,0.0,0.0,0.0,0.0,0.0,0.0,0.6694,0.5528,0.4784,0.4578,0.453,0.4477,0.4495,0.4763,0.5051,0.5443,0.0,0.0,0.0,0.0,0.0,0.0,0.0,0.0,0.0,0.0,0.0,0.0,0.0,0.0,0.0,0.0,0.0,0.0,0.0,0.0,0.0,0.0,0.0,0.0,0.0,0.0,0.0,0.0,0.0,0.0,0.0,0.0,0.0,0.0,0.0,0.0,0.0,0.0,0.0,0.7566,0.7983,0.0,0.0,0.0,0.0,0.0,0.0,0.0,0.0,0.8365,0.0,0.0,0.0,0.0,0.0,0.0,0.0,0.0,0.0,0.0,0.0,0.0,0.0,0.0,0.0,0.0,0.0,0.0,0.0,0.0,0.0,0.0,0.0,0.0,0.0,0.0,0.0,0.0,0.0,0.0,0.0,0.0,0.0,0.0,0.0,0.0,0.0,0.0,0.0,0.0,0.0,0.0,0.0,0.0,0.0,0.0,0.0,0.0,0.0,0.0,0.0,0.0,0.0,0.0,0.0,0.5753,0.5197,0.4769,0.4501,0.4482,0.4482,0.4471,0.4544,0.5138,0.0,0.0,0.0,0.0,0.0,0.0,0.0,0.0,0.0,0.0,0.0,0.0,0.0,0.0,0.0,0.0,0.0,0.0,0.0,0.0,0.0,0.0,0.0,0.0,0.0,0.0,0.0,0.0,0.0,0.0,0.0,0.0,0.0,0.0,0.0,0.0,0.0,0.0,0.0,0.0,0.7197,0.7397,0.7579,0.0,0.0,0.0,0.0,0.0,0.0,0.7942,0.7216,0.0,0.0,0.0,0.0,0.0,0.0,0.0,0.0,0.0,0.0,0.0,0.0,0.0,0.0,0.0,0.0,0.0,0.0,0.0,0.0,0.0,0.0,0.0,0.0,0.0,0.0,0.0,0.0,0.0,0.0,0.0,0.0,0.0,0.0,0.0,0.0,0.0,0.0,0.0,0.0,0.0,0.0,0.0,0.0,0.0,0.0,0.0,0.0,0.0,0.0,0.0,0.0,0.0,0.0,0.0,0.4771,0.4831,0.4778,0.4539,0.4531,0.4528,0.4545,0.4493,0.5288,0.0,0.0,0.0,0.0,0.0,0.0,0.0,0.0,0.0,0.0,0.0,0.0,0.0,0.0,0.0,0.0,0.0,0.0,0.0,0.0,0.0,0.0,0.0,0.0,0.0,0.0,0.0,0.0,0.0,0.0,0.0,0.0,0.0,0.0,0.0,0.0,0.0,0.0,0.0,0.0,0.0,0.6979,0.7237,0.7063,0.0,0.0,0.0,0.0,0.7786,0.6777,0.0,0.0,0.0,0.0,0.0,0.0,0.0,0.0,0.0,0.0,0.0,0.0,0.0,0.0,0.0,0.0,0.0,0.0,0.0,0.0,0.0,0.0,0.0,0.0,0.0,0.0,0.0,0.0,0.0,0.0,0.0,0.0,0.0,0.0,0.0,0.0,0.0,0.0,0.0,0.0,0.0,0.0,0.0,0.0,0.0,0.0,0.0,0.0,0.0,0.0,0.0,0.0,0.0,0.0,0.0,0.0,0.4814,0.4618,0.4619,0.4649,0.4537,0.4534,0.4668,0.5112,0.5679,0.0,0.0,0.0,0.0,0.0,0.0,0.0,0.0,0.0,0.0,0.0,0.0,0.0,0.0,0.0,0.0,0.0,0.0,0.0,0.0,0.0,0.0,0.0,0.0,0.0,0.0,0.0,0.0,0.0,0.0,0.0,0.0,0.0,0.0,0.0,0.0,0.0,0.0,0.0,0.0,0.0,0.7896,0.7374,0.6476,0.6063,0.0,0.0,0.5893,0.6894,0.5974,0.0,0.0,0.0,0.0,0.0,0.0,0.0,0.0,0.0,0.0,0.0,0.0,0.0,0.0,0.0,0.0,0.0,0.0,0.0,0.0,0.0,0.0,0.0,0.0,0.0,0.0,0.0,0.0,0.0,0.0,0.0,0.0,0.0,0.0,0.0,0.0,0.0,0.0,0.0,0.0,0.0,0.0,0.0,0.0,0.0,0.0,0.0,0.0,0.0,0.0,0.0,0.0,0.0,0.0,0.0,0.5086,0.4823,0.4661,0.4592,0.4688,0.4616,0.4594,0.4646,0.4922,0.5557,0.0,0.0,0.0,0.0,0.0,0.0,0.0,0.0,0.0,0.0,0.0,0.0,0.0,0.0,0.0,0.0,0.0,0.0,0.0,0.0,0.0,0.0,0.0,0.0,0.0,0.0,0.0,0.0,0.0,0.0,0.0,0.0,0.0,0.0,0.0,0.0,0.0,0.0,0.0,0.0,0.0,0.0,0.7501,0.6514,0.0,0.0,0.0,0.5493,0.6451,0.0,0.0,0.0,0.0,0.0,0.0,0.0,0.0,0.0,0.0,0.0,0.0,0.0,0.0,0.0,0.0,0.0,0.0,0.0,0.0,0.0,0.0,0.0,0.0,0.0,0.0,0.0,0.0,0.0,0.0,0.0,0.0,0.0,0.0,0.0,0.0,0.0,0.0,0.0,0.0,0.0,0.0,0.0,0.0,0.0,0.0,0.0,0.0,0.0,0.0,0.0,0.0,0.0,0.0,0.0,0.0,0.0,0.486,0.4733,0.4663,0.4721,0.4663,0.4624,0.4597,0.4684,0.0,0.0,0.0,0.0,0.0,0.0,0.0,0.0,0.0,0.0,0.0,0.0,0.0,0.0,0.0,0.0,0.0,0.0,0.0,0.0,0.0,0.0,0.0,0.0,0.0,0.0,0.0,0.8544,0.0,0.0,0.0,0.0,0.0,0.0,0.0,0.0,0.0,0.0,0.0,0.0,0.0,0.0,0.7346,0.7168,0.6368,0.5848,0.0,0.0,0.5274,0.5786,0.4904,0.4221,0.0,0.0,0.0,0.0,0.0,0.0,0.0,0.0,0.0,0.0,0.0,0.0,0.0,0.0,0.0,0.0,0.0,0.0,0.0,0.0,0.0,0.0,0.0,0.0,0.0,0.0,0.0,0.0,0.0,0.0,0.0,0.0,0.0,0.0,0.0,0.0,0.0,0.0,0.0,0.0,0.0,0.0,0.0,0.0,0.0,0.0,0.0,0.0,0.0,0.0,0.0,0.0,0.0,0.0,0.0,0.5086,0.4824,0.4726,0.4781,0.4726,0.4666,0.4602,0.4665,0.5408,0.0,0.0,0.0,0.0,0.0,0.0,0.0,0.0,0.0,0.0,0.0,0.0,0.0,0.0,0.0,0.0,0.0,0.0,0.0,0.0,0.0,0.0,0.0,0.0,0.0,0.0,0.0,0.0,0.0,0.0,0.0,0.0,0.0,0.0,0.0,0.0,0.0,0.0,0.0,0.0,0.0,0.7023,0.5953,0.5643,0.5325,0.0,0.0,0.5154,0.4562,0.4151,0.3979,0.4127,0.0,0.0,0.0,0.0,0.0,0.0,0.0,0.0,0.0,0.0,0.0,0.0,0.0,0.0,0.0,0.0,0.0,0.0,0.0,0.0,0.0,0.0,0.0,0.0,0.0,0.0,0.0,0.0,0.0,0.0,0.0,0.0,0.0,0.0,0.0,0.0,0.0,0.0,0.0,0.0,0.0,0.0,0.0,0.0,0.0,0.0,0.0,0.0,0.0,0.0,0.0,0.0,0.0,0.4943,0.5094,0.4883,0.4788,0.4809,0.4527,0.4454,0.4611,0.466,0.5324,0.0,0.0,0.0,0.0,0.0,0.0,0.0,0.0,0.0,0.0,0.0,0.0,0.0,0.0,0.0,0.0,0.0,0.0,0.0,0.0,0.0,0.0,0.0,0.0,0.0,0.0,0.0,0.0,0.7549,0.7437,0.7451,0.0,0.0,0.0,0.0,0.0,0.0,0.0,0.0,0.0,0.0,0.6511,0.5901,0.5379,0.0,0.0,0.4981,0.5093,0.5331,0.476,0.4468,0.4901,0.5355,0.0,0.0,0.0,0.0,0.0,0.0,0.0,0.0,0.0,0.0,0.0,0.0,0.0,0.0,0.0,0.0,0.0,0.0,0.0,0.0,0.0,0.0,0.0,0.0,0.0,0.0,0.0,0.0,0.0,0.0,0.0,0.0,0.0,0.0,0.0,0.0,0.0,0.0,0.0,0.0,0.0,0.0,0.0,0.0,0.0,0.0,0.0,0.0,0.0,0.0,0.0,0.0,0.4973,0.5186,0.4973,0.4826,0.4807,0.4504,0.4449,0.4548,0.4663,0.5265,0.0,0.0,0.0,0.0,0.0,0.0,0.0,0.0,0.0,0.0,0.0,0.0,0.0,0.0,0.0,0.0,0.0,0.0,0.0,0.0,0.0,0.0,0.0,0.0,0.0,0.0,0.0,0.0,0.7682,0.742,0.7548,0.0,0.0,0.0,0.0,0.0,0.0,0.0,0.0,0.0,0.0,0.6085,0.5916,0.5491,0.5252,0.5369,0.542,0.5524,0.581,0.5358,0.5044,0.5227,0.0,0.0,0.0,0.0,0.0,0.0,0.0,0.0,0.0,0.0,0.0,0.0,0.0,0.0,0.0,0.0,0.0,0.0,0.0,0.0,0.0,0.0,0.0,0.0,0.0,0.0,0.0,0.0,0.0,0.0,0.9043,0.0,0.0,0.0,0.0,0.0,0.0,0.0,0.0,0.0,0.0,0.0,0.0,0.0,0.0,0.0,0.0,0.0,0.0,0.0,0.0,0.0,0.0,0.5061,0.5364,0.5063,0.4869,0.4775,0.4769,0.4654,0.4496,0.4669,0.5279,0.6293,0.0,0.0,0.0,0.0,0.0,0.0,0.0,0.0,0.0,0.0,0.0,0.0,0.0,0.0,0.0,0.0,0.0,0.0,0.0,0.0,0.0,0.0,0.0,0.0,0.0,0.0,0.9156,0.847,0.7892,0.0,0.0,0.0,0.0,0.0,0.0,0.0,0.0,0.0,0.0,0.6278,0.5839,0.582,0.5958,0.605,0.6058,0.6446,0.6472,0.5734,0.5704,0.5548,0.0,0.0,0.0,0.0,0.0,0.0,0.0,0.0,0.0,0.0,0.0,0.0,0.0,0.0,0.0,0.0,0.0,0.0,0.0,0.0,0.0,0.0,0.0,0.0,0.0,0.0,0.0,1.0944,1.0806,0.0,0.0,0.0,0.0,0.0,0.0,0.0,0.0,0.0,0.0,0.0,0.7206,0.7596,0.0,0.0,0.0,0.0,0.0,0.0,0.0,0.0,0.0,0.0,0.0,0.0,0.5244,0.5517,0.5153,0.4849,0.456,0.4219,0.3969,0.3769,0.3944,0.481,0.6384,0.0,0.0,0.0,0.0,0.0,0.0,0.0,0.0,0.0,0.0,0.0,0.0,0.0,0.0,0.0,0.0,0.0,0.0,0.0,0.0,0.0,0.0,0.0,0.0,0.0,0.7874,0.0,0.0,0.0,0.0,0.0,0.0,0.0,0.0,0.0,0.0,0.0,0.6954,0.6956,0.6644,0.6304,0.6102,0.6122,0.605,0.0,0.0,0.0,0.0,0.0,0.0,0.0,0.0,0.0,0.0,0.0,0.0,0.0,0.0,0.7346,0.7869,0.7127,0.649,0.6657,0.0,0.0,0.0,0.0,0.0,0.0,0.0,0.0,0.0,0.0,0.0,0.0,0.0,0.0,0.0,0.0,1.0767,0.0,0.0,0.0,0.0,0.0,0.0,0.0,0.0,0.7631,0.7267,0.6552,0.6962,0.6928,0.0,0.7147,0.7624,0.0,0.0,0.0,0.0,0.0,0.0,0.0,0.0,0.5387,0.5691,0.5232,0.4797,0.4396,0.4092,0.3772,0.3437,0.3917,0.4816,0.6089,0.7288,0.7927,0.0,0.0,0.0,0.0,0.0,0.0,0.0,0.0,0.0,0.0,0.0,0.0,0.0,0.0,0.0,0.0,0.0,0.0,0.0,0.0,0.0,0.0,0.0,0.723,0.0,0.0,0.0,0.0,0.0,0.0,0.0,0.0,0.0,0.7558,0.6919,0.6454,0.6711,0.612,0.5748,0.5946,0.0,0.0,0.0,0.0,0.0,0.0,0.0,0.4926,0.5403,0.5469,0.5082,0.396,0.4251,0.4579,0.4354,0.0,0.0,0.6275,0.5782,0.523,0.5381,0.5524,0.5508,0.5104,0.5548,0.592,0.0,0.0,0.0,0.0,0.0,0.0,0.0,0.0,1.053,1.0887,0.0,1.0632,0.0,0.0,0.0,0.0,0.0,0.9335,0.0,0.0,0.7079,0.6719,0.5859,0.6349,0.6296,0.5835,0.7455,0.7665,0.649,0.6381,0.0,0.0,0.0,0.0,0.0,0.0,0.5556,0.5936,0.532,0.4802,0.4401,0.4401,0.4073,0.3443,0.4509,0.5215,0.5462,0.7309,0.8089,0.7472,0.8776,0.0,0.0,0.0,0.0,0.0,0.0,0.0,0.0,0.0,0.0,0.0,0.0,0.0,0.0,0.0,0.0,0.0,0.0,0.0,0.0,0.7611,0.0,0.0,0.0,0.0,0.0,0.0,0.0,0.0,0.0,0.0,0.6156,0.6392,0.6384,0.6199,0.0,0.0,0.0,0.0,0.3232,0.3788,0.3774,0.3707,0.3565,0.3646,0.346,0.275,0.0,0.0,0.2435,0.295,0.3297,0.3099,0.277,0.3225,0.4787,0.4251,0.3599,0.3571,0.3541,0.3392,0.3398,0.3708,0.3975,1.2018,0.0,0.0,0.0,0.0,1.197,1.2225,1.2846,1.1919,1.1667,1.1834,1.0546,0.0,0.0,0.0,0.0,0.0,0.0,0.7258,0.6378,0.6195,0.576,0.5173,0.5401,0.5324,0.5111,0.5597,0.5623,0.5237,0.5152,0.5669,0.6697,0.0,0.0,0.0,0.0,0.5631,0.5566,0.5293,0.4902,0.4415,0.4176,0.3713,0.3055,0.3787,0.4518,0.5144,0.6098,0.6941,0.7737,0.8382,0.0,0.0,0.0,0.0,0.0,0.0,0.0,0.0,0.0,0.0,0.0,0.0,0.0,0.0,0.0,0.0,0.0,0.0,0.0,0.6624,0.6449,0.6013,0.0,0.0,0.0,0.0,0.0,0.0,0.0,0.0,0.0,0.3315,0.3504,0.3685,0.0,0.0,0.3982,0.43,0.371,0.3129,0.296,0.0,0.0,0.0,0.2221,0.2145,0.2335,0.1667,0.1127,0.1362,0.0689,0.0077,0.0,-0.0076,0.0038,0.0526,0.1678,0.2411,0.2494,0.2553,0.2552,0.2562,0.2854,0.3141,1.278,1.2639,1.2647,1.2625,1.2595,1.2107,1.2217,1.2677,1.1579,1.1365,1.1702,1.0167,0.931,0.9028,0.8067,0.0,0.0,0.0,0.6687,0.6028,0.5633,0.5322,0.5142,0.5136,0.5106,0.5018,0.5036,0.4951,0.4841,0.4977,0.5363,0.604,0.0,0.0,0.6261,0.5811,0.5618,0.5584,0.5299,0.4828,0.4231,0.3646,0.315,0.2755,0.3504,0.4133,0.4562,0.5558,0.6506,0.7431,0.7984,0.8539,0.0,0.0,0.0,0.0,0.0,0.0,0.0,0.0,0.0,0.0,0.0,0.9017,0.7358,0.0,0.0,0.0,0.5861,0.5649,0.4884,0.4785,0.0,0.0,0.0,0.0,0.0,0.0,0.0,0.2127,0.1602,0.1166,0.0965,0.0927,0.1346,0.2523,0.2527,0.2504,0.2726,0.0,0.1342,0.1041,0.0776,0.0632,0.0616,0.0458,0.0455,0.0814,0.0231,-0.0237,0.0,-0.0688,-0.1299,-0.1332,-0.1329,-0.1326,-0.1316,-0.0192,0.0707,0.0743,0.0788,0.0798,0.0806,0.1047,0.1291,1.3221,1.2953,1.254,1.2199,1.1893,1.1696,1.1418,1.1032,1.0206,1.0375,1.116,0.9526,0.9116,0.9688,0.8806,0.0,0.704,0.7225,0.6789,0.5885,0.5503,0.5374,0.5573,0.5418,0.5346,0.5387,0.533,0.521,0.5036,0.5461,0.5533,0.5312,0.5276,0.5559,0.6033,0.5624,0.5537,0.5861,0.5314,0.4697,0.3966,0.3121,0.2587,0.2505,0.3458,0.3926,0.3838,0.538,0.6399,0.6697,0.751,0.8108,0.8378,0.0,0.0,0.0,0.0,0.0,0.0,0.0,0.0,0.0,0.0,0.0,0.0,0.0,0.0,0.0,0.5098,0.0,0.2984,0.2884,0.0,0.0,0.0,0.1648,0.1495,0.1239,0.0941,0.0665,0.0,0.0,-0.0884,0.0,-0.0599,0.1553,0.0818,0.0257,0.0742,-0.0369,-0.136,-0.1212,-0.136,-0.1397,-0.1255,-0.1317,-0.1312,-0.1267,-0.1414,-0.1382,-0.1386,-0.1389,-0.1429,-0.1469,-0.1429,-0.1429,-0.1429,-0.1383,-0.1419,-0.1347,-0.1271,-0.1236,-0.1148,-0.1075,-0.092,1.2507,1.2719,1.205,1.1915,1.2108,1.1792,1.1393,1.0878,1.0363,1.0019,0.9826,0.8738,0.7717,0.6728,0.6715,0.6566,0.6385,0.696,0.711,0.6861,0.641,0.625,0.6245,0.5818,0.5569,0.5495,0.539,0.5294,0.5164,0.5251,0.5513,0.593,0.5942,0.5982,0.596,0.6096,0.5962,0.568,0.5689,0.5288,0.4458,0.4071,0.3603,0.3022,0.3147,0.3272,0.351,0.3999,0.4683,0.5562,0.662,0.7221,0.7379,0.8354,0.0,0.0,0.0,0.0,0.0,0.0,0.0,0.0,0.0,0.8493,0.5391,0.0,0.5212,0.0,0.266,0.2092,0.1895,0.1845,0.0,0.0,0.0729,0.0401,-0.0414,-0.0824,-0.0986,-0.0832,-0.1112,-0.1403,-0.1656,-0.1711,-0.1696,-0.1454,-0.1121,-0.0911,-0.0793,-0.135,-0.1789,-0.1799,-0.2048,-0.2263,-0.2204,-0.2216,-0.2208,-0.2259,-0.2272,-0.229,-0.2371,-0.2337,-0.2379,-0.238,-0.2379,-0.2379,-0.2336,-0.2379,-0.2375,-0.2319,-0.1802,-0.1299,-0.1307,-0.1312,-0.1275,1.1735,1.175,1.1373,1.1118,1.1069,1.1216,1.0829,1.0131,0.9647,0.9137,0.8625,0.7624,0.6608,0.5608,0.6202,0.6456,0.6535,0.6946,0.716,0.7256,0.6542,0.6217,0.6267,0.5878,0.5657,0.5591,0.5531,0.5428,0.5292,0.5311,0.5508,0.5783,0.5753,0.5845,0.5944,0.642,0.6497,0.6116,0.5562,0.4839,0.3982,0.3694,0.3485,0.3355,0.341,0.3628,0.3996,0.4571,0.5238,0.604,0.668,0.7218,0.7599,0.7935,0.807,0.0,0.0,0.0,0.0,0.0,0.0,0.0,0.0,0.0,0.0,0.0,0.3374,0.2009,0.1402,0.1006,0.0786,0.0737,0.0359,-0.0429,-0.0536,-0.0885,-0.1633,-0.1928,-0.2007,-0.1849,-0.1996,-0.2107,-0.2173,-0.2178,-0.2266,-0.2536,-0.2167,-0.188,-0.1878,-0.2093,-0.2215,-0.22,-0.2419,-0.2595,-0.2537,-0.2534,-0.2545,-0.2577,-0.2593,-0.2613,-0.2646,-0.2652,-0.2656,-0.2669,-0.2672,-0.2677,-0.2688,-0.2692,-0.2692,-0.2646,-0.2292,-0.1944,-0.1862,-0.1863,-0.1865,1.1069,1.0808,1.0645,1.0209,0.9711,1.0244,0.9939,0.9107,0.8614,0.814,0.7567,0.6525,0.5848,0.5554,0.6464,0.6919,0.6993,0.7068,0.721,0.7389,0.6417,0.603,0.611,0.5861,0.5726,0.5694,0.5687,0.5578,0.5338,0.5389,0.5346,0.5267,0.521,0.5477,0.5994,0.6558,0.6843,0.6773,0.5382,0.4316,0.3582,0.3202,0.3279,0.3745,0.4017,0.4325,0.4724,0.5683,0.6416,0.6802,0.6977,0.7268,0.7772,0.7142,0.6863,0.0,0.5897,0.0,0.0,0.0,0.0,0.0,0.0,0.0,0.0,0.1958,0.1407,0.0701,0.0556,0.0229,-0.0328,-0.0504,-0.0934,-0.1755,-0.1875,-0.2042,-0.2346,-0.2417,-0.2444,-0.251,-0.2497,-0.2514,-0.2473,-0.2514,-0.2515,-0.2489,-0.2545,-0.2526,-0.2554,-0.2522,-0.2497,-0.2593,-0.2593,-0.2589,-0.2588,-0.259,-0.2592,-0.26,-0.2579,-0.2597,-0.2604,-0.2608,-0.2577,-0.2601,-0.2607,-0.2617,-0.2687,-0.269,-0.2687,-0.2691,-0.2644,-0.2591,-0.2575,-0.2526,-0.2598,1.1175,1.1342,1.0245,0.9935,1.0039,0.9572,0.8894,0.8253,0.8079,0.7542,0.67,0.6186,0.5904,0.594,0.6549,0.687,0.6939,0.7383,0.7582,0.7623,0.7041,0.6728,0.6701,0.6235,0.5927,0.5705,0.5728,0.5462,0.499,0.5,0.5057,0.5112,0.514,0.5398,0.5965,0.0,0.0,0.0,0.6074,0.5652,0.557,0.5345,0.5218,0.525,0.4675,0.0,0.4343,0.4591,0.4894,0.5312,0.5949,0.0,0.0,0.0,0.0,0.0,0.0,0.0,0.0,0.0,0.0,0.0,0.1077,0.1261,0.1129,0.0484,-0.0319,-0.1168,-0.1295,-0.1481,-0.1817,-0.1952,-0.2086,-0.2249,-0.233,-0.2402,-0.2489,-0.2478,-0.25,-0.2504,-0.2511,-0.2514,-0.2515,-0.2514,-0.2533,-0.2572,-0.261,-0.2582,-0.2589,-0.2605,-0.257,-0.2533,-0.253,-0.2525,-0.2522,-0.2526,-0.254,-0.2592,-0.2603,-0.2578,-0.2598,-0.2581,-0.2595,-0.2606,-0.2606,-0.2615,-0.2686,-0.2673,-0.2667,-0.2687,-0.2673,-0.262,-0.2679,-0.2622,-0.2611,1.1084,0.0,1.0129,0.958,0.0,0.8891,0.8201,0.7391,0.7541,0.7075,0.6196,0.6,0.594,0.5967,0.6479,0.6746,0.686,0.7084,0.7233,0.7349,0.6815,0.6525,0.6435,0.5884,0.5562,0.5381,0.5182,0.4896,0.4626,0.4645,0.4684,0.4648,0.4646,0.4808,0.5083,0.4567,0.4653,0.5405,0.5129,0.4782,0.4382,0.4252,0.4322,0.4548,0.0,0.0,0.0,0.0,0.0,0.0,0.0,0.0,0.0,0.0,0.0,0.2354,0.1807,0.138,0.1065,0.042,-0.0299,-0.0983,-0.0997,-0.0841,-0.0501,-0.1,-0.1569,-0.2014,-0.2092,-0.2168,-0.2358,-0.2413,-0.2429,-0.2444,-0.2473,-0.2491,-0.2493,-0.2504,-0.2514,-0.2514,-0.2514,-0.2519,-0.2574,-0.2537,-0.2553,-0.2593,-0.259,-0.2592,-0.2575,-0.2612,-0.2589,-0.2562,-0.2557,-0.2557,-0.2557,-0.2557,-0.256,-0.2577,-0.2581,-0.2586,-0.26,-0.2615,-0.2587,-0.2601,-0.2606,-0.2615,-0.2684,-0.2679,-0.2675,-0.2687,-0.268,-0.2673,-0.2688,-0.2668,-0.2614,1.0869,1.0203,0.9753,0.9023,0.8072,0.804,0.7298,0.6207,0.0,0.0,0.0,0.5905,0.5907,0.5954,0.6137,0.6305,0.6401,0.6177,0.6149,0.6299,0.5683,0.5435,0.532,0.481,0.4518,0.4408,0.4079,0.3811,0.3657,0.3726,0.3662,0.3469,0.3457,0.3451,0.3399,0.2617,0.2569,0.3296,0.3489,0.3251,0.2515,0.2503,0.274,0.3309,0.2555,0.2343,0.275,0.2743,0.2724,0.2683,0.2727,0.2714,0.2538,0.1902,0.1558,0.147,0.0429,-0.0301,-0.0459,-0.1354,-0.2056,-0.2324,-0.2393,-0.229,-0.1938,-0.217,-0.2332,-0.2399,-0.2402,-0.2424,-0.251,-0.2516,-0.2489,-0.2519,-0.2522,-0.2523,-0.2529,-0.253,-0.2533,-0.253,-0.2533,-0.254,-0.2603,-0.2607,-0.2578,-0.2602,-0.2611,-0.2613,-0.2615,-0.2611,-0.2601,-0.2597,-0.2593,-0.2598,-0.2601,-0.2598,-0.2601,-0.2598,-0.26,-0.2601,-0.2602,-0.2607,-0.2578,-0.2601,-0.2606,-0.2618,-0.2684,-0.2679,-0.2682,-0.269,-0.2683,-0.268,-0.2688,-0.2626,-0.2615,1.0094,0.9251,0.8676,0.7852,0.6917,0.655,0.5377,0.38,0.5458,0.6094,0.6003,0.6052,0.6074,0.6026,0.5221,0.4891,0.4852,0.3981,0.3633,0.0,0.3155,0.2877,0.2806,0.2278,0.2002,0.1891,0.1846,0.159,0.1243,0.1283,0.1094,0.0681,0.0586,0.0581,0.0487,0.0354,0.0351,0.0521,0.1721,0.2305,0.2192,0.2434,0.2554,0.2523,0.2132,0.1921,0.1883,0.1967,0.2063,0.2098,0.2281,0.1806,0.0514,0.0277,-0.0389,-0.1604,-0.1914,-0.2042,-0.206,-0.2271,-0.2414,-0.2487,-0.2556,-0.2504,-0.2401,-0.2443,-0.2462,-0.2491,-0.2491,-0.2497,-0.2507,-0.2508,-0.2519,-0.2588,-0.2593,-0.2602,-0.2583,-0.2586,-0.2585,-0.2585,-0.259,-0.2589,-0.2594,-0.2596,-0.2607,-0.2591,-0.2599,-0.2607,-0.2661,-0.2634,-0.2605,-0.2601,-0.2601,-0.2601,-0.2608,-0.2602,-0.2607,-0.2601,-0.2605,-0.2609,-0.2609,-0.2586,-0.2601,-0.2605,-0.2609,-0.2618,-0.2684,-0.2649,-0.2646,-0.2673,-0.2653,-0.2635,-0.2675,-0.2621,-0.2614,0.8813,0.7862,0.7323,0.6342,0.5056,0.4335,0.3524,0.2761,0.3603,0.3975,0.4024,0.4041,0.4191,0.4333,0.3667,0.3335,0.3335,0.2584,0.2266,0.2288,0.2064,0.1956,0.1826,0.1385,0.1082,0.1012,0.0773,0.0547,0.0416,0.0414,0.0276,0.0046,0.0046,0.0,-0.009,-0.0539,-0.0804,-0.0795,0.0381,0.095,0.0903,0.1107,0.1155,0.1026,0.0485,0.0146,0.0071,-0.0287,-0.0464,-0.0388,-0.0285,-0.0577,-0.1242,-0.1323,-0.1679,-0.2409,-0.2426,-0.2487,-0.2518,-0.2533,-0.2547,-0.2562,-0.2574,-0.2571,-0.2584,-0.2567,-0.2517,-0.2515,-0.2514,-0.2514,-0.2515,-0.2529,-0.2545,-0.2597,-0.2613,-0.2587,-0.2598,-0.2601,-0.2601,-0.2601,-0.2601,-0.2608,-0.2583,-0.2585,-0.2597,-0.2665,-0.263,-0.2677,-0.269,-0.2669,-0.265,-0.2652,-0.2652,-0.2652,-0.265,-0.265,-0.265,-0.265,-0.265,-0.2652,-0.2652,-0.2664,-0.2669,-0.2672,-0.2671,-0.2628,-0.263,-0.2647,-0.2597,-0.263,-0.2626,-0.2619,-0.2635,-0.2631,-0.2641,0.7369,0.6362,0.5853,0.4721,0.3227,0.2342,0.181,0.162,0.1715,0.1667,0.1524,0.2001,0.2524,0.2763,0.2096,0.1763,0.1715,0.1096,0.0862,0.087,0.078,0.0682,0.058,0.0144,-0.0095,-0.0188,-0.051,-0.0646,-0.0603,-0.0602,-0.0646,-0.0736,-0.0737,-0.0826,-0.1002,-0.1731,-0.2079,-0.2046,-0.135,-0.0898,-0.0676,-0.0628,-0.0619,-0.0729,-0.1253,-0.1602,-0.161,-0.2195,-0.2495,-0.2466,-0.2458,-0.2457,-0.2463,-0.2457,-0.2478,-0.2487,-0.2534,-0.2553,-0.2596,-0.2601,-0.2601,-0.2602,-0.2608,-0.2609,-0.2601,-0.2589,-0.2563,-0.2532,-0.2526,-0.2525,-0.2529,-0.2584,-0.2604,-0.2578,-0.2598,-0.2616,-0.2622,-0.2623,-0.2622,-0.2622,-0.2622,-0.2634,-0.2609,-0.2615,-0.2625,-0.2684,-0.2692,-0.2692,-0.2692,-0.2692,-0.2692,-0.2692,-0.2692,-0.2688,-0.2692,-0.269,-0.269,-0.2692,-0.269,-0.2687,-0.2688,-0.269,-0.2691,-0.2688,-0.2683,-0.2672,-0.261,-0.2591,-0.2579,-0.2608,-0.2598,-0.2594,-0.2604,-0.2605,-0.2615,0.5784,0.498,0.428,0.3149,0.1671,0.1145,0.0429,-0.0334,0.0,-0.0334,-0.0763,0.1239,0.224,0.2144,0.081,0.0191,0.0143,-0.0763,-0.1198,-0.1208,-0.1743,-0.1937,-0.1887,-0.2417,-0.274,-0.2669,-0.2706,-0.2595,-0.2532,-0.2603,-0.2888,-0.3205,-0.327,-0.342,-0.3872,-0.4009,-0.4098,-0.4088,-0.4008,-0.3444,-0.2524,-0.2475,-0.2459,-0.2472,-0.2513,-0.2539,-0.2464,-0.2549,-0.2575,-0.2587,-0.2557,-0.2557,-0.2577,-0.256,-0.26,-0.259,-0.2593,-0.2597,-0.2602,-0.2601,-0.2604,-0.2604,-0.2587,-0.2591,-0.2609,-0.2583,-0.2615,-0.2571,-0.2596,-0.2595,-0.2596,-0.26,-0.2585,-0.2585,-0.2598,-0.2611,-0.2675,-0.2684,-0.2684,-0.2684,-0.2677,-0.2686,-0.2684,-0.2684,-0.2687,-0.2691,-0.2692,-0.2692,-0.2692,-0.2692,-0.2692,-0.2692,-0.2692,-0.2692,-0.2692,-0.2692,-0.2692,-0.2692,-0.2692,-0.2692,-0.2692,-0.2692,-0.2691,-0.2682,-0.2671,-0.2611,-0.2591,-0.2609,-0.2581,-0.2585,-0.2578,-0.2611,-0.2593,-0.2596,-0.2601,0.3791,0.2861,0.2264,0.1144,-0.0238,-0.0477,-0.0811,-0.1145,-0.1014,-0.1157,-0.1434,-0.0772,-0.0289,0.0,-0.0953,-0.1335,-0.143,-0.2098,-0.2437,-0.2448,-0.2654,-0.2757,-0.2807,-0.3001,-0.3091,-0.3125,-0.311,-0.3093,-0.3122,-0.3265,-0.3501,-0.3655,-0.3901,-0.4109,-0.4336,-0.4336,-0.4336,-0.4336,-0.4371,-0.4099,-0.3673,-0.3314,-0.3175,-0.3161,-0.2884,-0.2732,-0.2658,-0.2625,-0.2593,-0.2604,-0.259,-0.259,-0.2601,-0.259,-0.2597,-0.2586,-0.2646,-0.2656,-0.2656,-0.2654,-0.2656,-0.2656,-0.2667,-0.2668,-0.2657,-0.2667,-0.2656,-0.2619,-0.2596,-0.2585,-0.2586,-0.26,-0.2581,-0.2603,-0.2621,-0.2679,-0.269,-0.2692,-0.2692,-0.2692,-0.2692,-0.2692,-0.2692,-0.2692,-0.2692,-0.2692,-0.2692,-0.2692,-0.2692,-0.2692,-0.2692,-0.2692,-0.2692,-0.2692,-0.2692,-0.2692,-0.2692,-0.2692,-0.2692,-0.2692,-0.2691,-0.2692,-0.2687,-0.2669,-0.2611,-0.2587,-0.2597,-0.2582,-0.2602,-0.256,-0.2547,-0.2537,-0.2548,-0.2551,-0.2551,0.1957,0.109,0.029,-0.0621,-0.1478,-0.1669,-0.1621,-0.1528,-0.155,-0.1594,-0.1768,-0.2179,-0.2223,-0.2005,-0.2336,-0.2527,-0.2576,-0.2909,-0.31,-0.3103,-0.3124,-0.3089,-0.3096,-0.3097,-0.3103,-0.3106,-0.3137,-0.3117,-0.3143,-0.3516,-0.3764,-0.3939,-0.4338,-0.4616,-0.4704,-0.4729,-0.4666,-0.4715,-0.4749,-0.4729,-0.4622,-0.4048,-0.3682,-0.3475,-0.3004,-0.2759,-0.2695,-0.2645,-0.2649,-0.2628,-0.2619,-0.2619,-0.2626,-0.2619,-0.2587,-0.2615,-0.268,-0.2692,-0.2692,-0.2692,-0.2692,-0.2692,-0.2692,-0.2692,-0.2692,-0.2692,-0.2683,-0.2661,-0.2639,-0.2626,-0.2577,-0.2593,-0.2607,-0.2617,-0.268,-0.2692,-0.2692,-0.2692,-0.2692,-0.2692,-0.2692,-0.2692,-0.2692,-0.2692,-0.2692,-0.2692,-0.2692,-0.2692,-0.2692,-0.2692,-0.2692,-0.2692,-0.2692,-0.2692,-0.2692,-0.2692,-0.2692,-0.2692,-0.2692,-0.2688,-0.2683,-0.2679,-0.2669,-0.2601,-0.2591,-0.2574,-0.2581,-0.26,-0.2584,-0.2523,-0.2515,-0.2517,-0.2522,-0.2517,-0.2517,0.0587,-0.0149,-0.1511,-0.1826,-0.1526,-0.2002,-0.1955,-0.1573,-0.153,-0.1768,-0.2245,-0.2345,-0.258,-0.296,-0.3006,-0.3052,-0.3052,-0.31,-0.31,-0.31,-0.3103,-0.3118,-0.3096,-0.3097,-0.3112,-0.3131,-0.3131,-0.3107,-0.3152,-0.3589,-0.4037,-0.4453,-0.487,-0.5354,-0.5656,-0.557,-0.5607,-0.552,-0.5567,-0.561,-0.5473,-0.4751,-0.4033,-0.3542,-0.2975,-0.2704,-0.2695,-0.2709,-0.2688,-0.2687,-0.266,-0.2657,-0.268,-0.2618,-0.2658,-0.2684,-0.2691,-0.2692,-0.2692,-0.2692,-0.2692,-0.2692,-0.2692,-0.2692,-0.2692,-0.2692,-0.269,-0.2688,-0.2683,-0.2672,-0.2609,-0.2607,-0.262,-0.2683,-0.269,-0.2692,-0.2692,-0.2692,-0.2692,-0.2692,-0.2692,-0.2692,-0.2692,-0.2692,-0.2692,-0.2692,-0.2692,-0.2692,-0.2692,-0.2692,-0.2692,-0.2692,-0.2692,-0.2692,-0.2691,-0.2692,-0.2692,-0.2686,-0.268,-0.2679,-0.2621,-0.2603,-0.2589,-0.2611,-0.2593,-0.2575,-0.2599,-0.2582,-0.2526,-0.2514,-0.2514,-0.2514,-0.2514,-0.2514,-0.2514,-0.073,-0.1453,-0.1682,-0.1865,-0.2002,-0.1859,-0.1859,-0.2008,-0.2106,-0.2408,-0.2779,-0.2853,-0.2949,-0.3108,-0.3117,-0.31,-0.31,-0.31,-0.31,-0.31,-0.31,-0.3106,-0.3117,-0.3136,-0.3101,-0.3115,-0.3134,-0.3133,-0.3157,-0.3586,-0.4032,-0.4491,-0.499,-0.5398,-0.5772,-0.5778,-0.5737,-0.5699,-0.5696,-0.5696,-0.5607,-0.4819,-0.4218,-0.3998,-0.3228,-0.2815,-0.2796,-0.2705,-0.2671,-0.2692,-0.2682,-0.268,-0.269,-0.2683,-0.268,-0.2691,-0.2692,-0.2692,-0.2692,-0.2692,-0.2692,-0.2692,-0.2692,-0.2692,-0.2692,-0.2692,-0.2692,-0.2692,-0.2692,-0.2686,-0.268,-0.2676,-0.268,-0.269,-0.2692,-0.2692,-0.2692,-0.2692,-0.2692,-0.2692,-0.2692,-0.2692,-0.2692,-0.2692,-0.2692,-0.2692,-0.2692,-0.2692,-0.2692,-0.2692,-0.2692,-0.2692,-0.2691,-0.2686,-0.2622,-0.2682,-0.2688,-0.2629,-0.2618,-0.2645,-0.2589,-0.2579,-0.2607,-0.2583,-0.26,-0.2589,-0.2579,-0.2532,-0.2514,-0.2514,-0.2514,-0.2514,-0.2514,-0.2514,-0.2514,-0.1704,-0.2199,-0.2113,-0.211,-0.2289,-0.2098,-0.2098,-0.2344,-0.2558,-0.2815,-0.3081,-0.3165,-0.316,-0.3115,-0.3129,-0.3108,-0.31,-0.31,-0.31,-0.31,-0.31,-0.31,-0.3103,-0.3121,-0.3132,-0.3133,-0.3103,-0.3114,-0.316,-0.3612,-0.4025,-0.4305,-0.4896,-0.5345,-0.5572,-0.5716,-0.5756,-0.5707,-0.5696,-0.5696,-0.5607,-0.4756,-0.4307,-0.4173,-0.3412,-0.286,-0.2829,-0.2727,-0.2687,-0.2668,-0.2698,-0.2692,-0.2692,-0.2692,-0.2692,-0.2692,-0.2692,-0.2692,-0.2692,-0.2692,-0.2692,-0.2692,-0.2702,-0.2705,-0.2695,-0.2702,-0.2702,-0.2697,-0.2692,-0.2692,-0.2692,-0.2691,-0.2692,-0.2692,-0.2692,-0.2692,-0.2692,-0.2692,-0.2692,-0.2692,-0.2692,-0.2692,-0.2692,-0.2692,-0.2692,-0.2692,-0.2692,-0.2692,-0.2692,-0.2692,-0.2692,-0.2691,-0.2682,-0.2628,-0.261,-0.2613,-0.2653,-0.2637,-0.2632,-0.2616,-0.26,-0.2592,-0.2579,-0.2556,-0.2541,-0.2533,-0.2525,-0.2517,-0.2514,-0.2514,-0.2514,-0.2514,-0.2514,-0.2514,-0.2514,-0.235,-0.2395,-0.2873,-0.2715,-0.2438,-0.272,-0.2719,-0.2486,-0.285,-0.305,-0.313,-0.3096,-0.3103,-0.3121,-0.3137,-0.3128,-0.3108,-0.3106,-0.3103,-0.31,-0.31,-0.31,-0.31,-0.3205,-0.3211,-0.3208,-0.3153,-0.3152,-0.3156,-0.3557,-0.3858,-0.4097,-0.4826,-0.5244,-0.5209,-0.5623,-0.5767,-0.5718,-0.5705,-0.5699,-0.5607,-0.4756,-0.4263,-0.4173,-0.3367,-0.2861,-0.2831,-0.2731,-0.27,-0.2691,-0.2713,-0.2695,-0.2697,-0.2694,-0.2692,-0.2692,-0.2692,-0.2692,-0.2694,-0.2695,-0.2698,-0.2706,-0.2681,-0.2727,-0.2707,-0.2677,-0.268,-0.2698,-0.2692,-0.2692,-0.2692,-0.2692,-0.2692,-0.2692,-0.2692,-0.2692,-0.2692,-0.2692,-0.2692,-0.2692,-0.2692,-0.2692,-0.2692,-0.2692,-0.2692,-0.2692,-0.2692,-0.2692,-0.2692,-0.2692,-0.2692,-0.2684,-0.2671,-0.261,-0.2595,-0.2582,-0.2611,-0.26,-0.2601,-0.2593,-0.2571,-0.2559,-0.2552,-0.2533,-0.2529,-0.2521,-0.2521,-0.2514,-0.2514,-0.2514,-0.2514,-0.2514,-0.2514,-0.2514,-0.2514,-0.2526,-0.2797,-0.2618,-0.2665,-0.2792,-0.263,-0.2623,-0.2867,-0.3057,-0.3123,-0.3118,-0.3125,-0.3134,-0.3135,-0.3115,-0.3092,-0.3132,-0.313,-0.3121,-0.3103,-0.31,-0.3149,-0.3204,-0.3528,-0.3744,-0.3691,-0.367,-0.3455,-0.32,-0.3301,-0.3497,-0.3924,-0.4488,-0.4932,-0.5214,-0.5693,-0.591,-0.5769,-0.5759,-0.5604,-0.5206,-0.4621,-0.4173,-0.3769,-0.3188,-0.2868,-0.2859,-0.2821,-0.2738,-0.27,-0.2748,-0.2746,-0.2683,-0.2703,-0.2692,-0.2692,-0.2692,-0.2703,-0.2679,-0.2681,-0.2733,-0.2751,-0.2765,-0.2754,-0.2687,-0.2691,-0.2684,-0.2699,-0.2692,-0.2692,-0.2692,-0.2692,-0.2692,-0.2692,-0.2692,-0.2692,-0.2692,-0.2692,-0.2692,-0.2692,-0.2692,-0.2692,-0.2692,-0.2692,-0.2692,-0.2692,-0.2692,-0.2692,-0.2692,-0.269,-0.2682,-0.2665,-0.2607,-0.2587,-0.2607,-0.2587,-0.2574,-0.2567,-0.2568,-0.2568,-0.2547,-0.2534,-0.2526,-0.2521,-0.2517,-0.2514,-0.2514,-0.2514,-0.2514,-0.2514,-0.2514,-0.2514,-0.2514,-0.2514,-0.2514,-0.281,-0.3036,-0.2765,-0.2761,-0.3033,-0.2725,-0.2766,-0.3107,-0.3104,-0.3126,-0.3126,-0.3125,-0.3093,-0.3159,-0.313,-0.3115,-0.3115,-0.3115,-0.3097,-0.3169,-0.3356,-0.3404,-0.3506,-0.3994,-0.416,-0.3999,-0.3928,-0.361,-0.3149,-0.31,-0.3243,-0.3577,-0.4242,-0.4695,-0.5031,-0.5633,-0.5869,-0.5646,-0.5523,-0.5313,-0.4785,-0.4271,-0.3902,-0.359,-0.3153,-0.2928,-0.292,-0.2864,-0.279,-0.274,-0.2781,-0.2769,-0.2697,-0.2729,-0.2721,-0.2713,-0.2721,-0.2736,-0.2709,-0.2755,-0.2762,-0.278,-0.2793,-0.2787,-0.2765,-0.2762,-0.2712,-0.2717,-0.2668,-0.2705,-0.2695,-0.2692,-0.2692,-0.2692,-0.2692,-0.2692,-0.2692,-0.2692,-0.2692,-0.2692,-0.2692,-0.2692,-0.2692,-0.2692,-0.2692,-0.2692,-0.2692,-0.2692,-0.269,-0.2682,-0.2664,-0.2602,-0.262,-0.2597,-0.2608,-0.2552,-0.2537,-0.2534,-0.2536,-0.2534,-0.2525,-0.2522,-0.2517,-0.2518,-0.2514,-0.2514,-0.2514,-0.2514,-0.2514,-0.2514,-0.2514,-0.2514,-0.2514,-0.2514,-0.2514,-0.311,-0.3115,-0.3116,-0.306,-0.3112,-0.3056,-0.3052,-0.3104,-0.3129,-0.3097,-0.3099,-0.3101,-0.312,-0.3093,-0.3146,-0.3096,-0.3096,-0.3091,-0.3122,-0.3295,-0.3676,-0.4022,-0.4189,-0.461,-0.461,-0.4241,-0.4077,-0.3711,-0.3252,-0.3149,-0.31,-0.3243,-0.4051,-0.4509,-0.462,-0.5456,-0.5618,-0.5187,-0.5093,-0.4844,-0.4379,-0.3935,-0.36,-0.3514,-0.3132,-0.2906,-0.2887,-0.2887,-0.2876,-0.2834,-0.28,-0.2773,-0.2712,-0.2769,-0.2765,-0.27,-0.2767,-0.2778,-0.2784,-0.2785,-0.2791,-0.2799,-0.2818,-0.2818,-0.2795,-0.2801,-0.2752,-0.2704,-0.2697,-0.2685,-0.2706,-0.2699,-0.2698,-0.2692,-0.2692,-0.2692,-0.2692,-0.2692,-0.2692,-0.2692,-0.2692,-0.2692,-0.2692,-0.2692,-0.2692,-0.2692,-0.2691,-0.2691,-0.268,-0.2667,-0.2609,-0.2583,-0.2593,-0.2572,-0.2548,-0.2537,-0.2525,-0.2523,-0.2522,-0.2519,-0.2517,-0.2515,-0.2514,-0.2514,-0.2514,-0.2514,-0.2514,-0.2514,-0.2514,-0.2514,-0.2514,-0.2514,-0.2514,-0.2514,-0.2514,-0.3134,-0.3119,-0.3112,-0.3112,-0.3111,-0.3121,-0.31,-0.3101,-0.311,-0.313,-0.3093,-0.3097,-0.3129,-0.3174,-0.3176,-0.3176,-0.3172,-0.3104,-0.3126,-0.3251,-0.4144,-0.4782,-0.5119,-0.5313,-0.5315,-0.5119,-0.4667,-0.4232,-0.371,-0.3253,-0.31,-0.3148,-0.372,-0.4048,-0.4086,-0.4699,-0.4865,-0.4729,-0.4666,-0.4406,-0.3965,-0.3769,-0.3488,-0.3169,-0.3037,-0.2934,-0.2904,-0.287,-0.2859,-0.286,-0.2811,-0.2792,-0.2795,-0.2789,-0.2777,-0.277,-0.2777,-0.2795,-0.2811,-0.2814,-0.2825,-0.2848,-0.2848,-0.2849,-0.2821,-0.2823,-0.281,-0.2778,-0.277,-0.2758,-0.2689,-0.2681,-0.2672,-0.2697,-0.2695,-0.2694,-0.2692,-0.2692,-0.2692,-0.2692,-0.2692,-0.2692,-0.2692,-0.2692,-0.2692,-0.2692,-0.2691,-0.2684,-0.2669,-0.2611,-0.2594,-0.2596,-0.2606,-0.2548,-0.2533,-0.2522,-0.2517,-0.2517,-0.2517,-0.2517,-0.2515,-0.2514,-0.2514,-0.2514,-0.2514,-0.2514,-0.2514,-0.2514,-0.2514,-0.2514,-0.2514,-0.2514,-0.2514,-0.2514,-0.2514,-0.3116,-0.3104,-0.3099,-0.3107,-0.3119,-0.3135,-0.3119,-0.3122,-0.3135,-0.3099,-0.3115,-0.3116,-0.3149,-0.3202,-0.3194,-0.3195,-0.3201,-0.3175,-0.3153,-0.3339,-0.4286,-0.5175,-0.5826,-0.5969,-0.5861,-0.5556,-0.5093,-0.4493,-0.3916,-0.3353,-0.3149,-0.3195,-0.3577,-0.3817,-0.3863,-0.429,-0.447,-0.4253,-0.4191,-0.3934,-0.3449,-0.3431,-0.3285,-0.3011,-0.2971,-0.2966,-0.2931,-0.2867,-0.2833,-0.2829,-0.2845,-0.2787,-0.2744,-0.2788,-0.2777,-0.2767,-0.2776,-0.2796,-0.2819,-0.2818,-0.2825,-0.2844,-0.2846,-0.2836,-0.2829,-0.2829,-0.2818,-0.2806,-0.2803,-0.2774,-0.2688,-0.2676,-0.2675,-0.2672,-0.2669,-0.2706,-0.2694,-0.2692,-0.2692,-0.2692,-0.2692,-0.2692,-0.2692,-0.2692,-0.2692,-0.2692,-0.2692,-0.2676,-0.2614,-0.2597,-0.2575,-0.2579,-0.2588,-0.2532,-0.2526,-0.2518,-0.2515,-0.2514,-0.2514,-0.2514,-0.2514,-0.2514,-0.2514,-0.2514,-0.2514,-0.2514,-0.2514,-0.2514,-0.2514,-0.2514,-0.2514,-0.2515,-0.2515,-0.2521,-0.2519,-0.313,-0.3107,-0.3132,-0.3095,-0.3099,-0.3097,-0.3091,-0.3096,-0.3116,-0.3134,-0.3091,-0.3093,-0.3123,-0.3227,-0.3206,-0.3206,-0.3227,-0.3197,-0.3337,-0.3677,-0.443,-0.5352,-0.6301,-0.6405,-0.618,-0.5739,-0.5133,-0.4547,-0.4022,-0.3455,-0.3149,-0.3195,-0.3529,-0.3674,-0.372,-0.4147,-0.4099,-0.3806,-0.3737,-0.3535,-0.3197,-0.3133,-0.3077,-0.3031,-0.2992,-0.2981,-0.2941,-0.2879,-0.2826,-0.2792,-0.2829,-0.2773,-0.2711,-0.2772,-0.277,-0.2758,-0.2773,-0.2795,-0.2815,-0.2803,-0.2801,-0.2823,-0.2808,-0.2799,-0.2821,-0.2823,-0.2819,-0.2823,-0.2827,-0.2747,-0.2742,-0.2713,-0.2713,-0.268,-0.2685,-0.2675,-0.2697,-0.269,-0.2692,-0.2692,-0.2692,-0.2692,-0.2692,-0.2692,-0.2692,-0.2692,-0.269,-0.2676,-0.261,-0.2586,-0.2602,-0.261,-0.2541,-0.2518,-0.2515,-0.2514,-0.2514,-0.2514,-0.2514,-0.2514,-0.2514,-0.2514,-0.2514,-0.2514,-0.2514,-0.2514,-0.2514,-0.2514,-0.2514,-0.2514,-0.2514,-0.2517,-0.2521,-0.2529,-0.2532,-0.3095,-0.3135,-0.3117,-0.3124,-0.3096,-0.3097,-0.3133,-0.3115,-0.3097,-0.3129,-0.3091,-0.3095,-0.3128,-0.3179,-0.3223,-0.3225,-0.3225,-0.3252,-0.3637,-0.4481,-0.463,-0.5454,-0.6299,-0.6461,-0.6402,-0.6014,-0.5243,-0.4708,-0.4387,-0.361,-0.31,-0.3148,-0.3195,-0.3243,-0.3338,-0.3434,-0.3386,-0.3242,-0.3282,-0.3231,-0.3135,-0.3081,-0.3074,-0.3074,-0.3013,-0.2977,-0.2931,-0.2886,-0.2851,-0.2822,-0.2797,-0.2782,-0.2778,-0.278,-0.2778,-0.2776,-0.2777,-0.2787,-0.2795,-0.2808,-0.2821,-0.2825,-0.2819,-0.2821,-0.2823,-0.2806,-0.2807,-0.2821,-0.2827,-0.2768,-0.2792,-0.2774,-0.275,-0.2727,-0.271,-0.2695,-0.2669,-0.2637,-0.2688,-0.2692,-0.2692,-0.2692,-0.2692,-0.2692,-0.2692,-0.2692,-0.2686,-0.2677,-0.261,-0.2582,-0.2598,-0.2614,-0.2585,-0.2526,-0.2523,-0.2521,-0.2514,-0.2518,-0.2521,-0.2515,-0.2515,-0.2519,-0.2522,-0.2519,-0.2514,-0.2514,-0.2514,-0.2514,-0.2514,-0.2514,-0.2517,-0.2525,-0.2533,-0.2579,-0.2551,-0.3269,-0.3122,-0.3107,-0.3118,-0.3097,-0.3112,-0.3101,-0.3089,-0.3137,-0.3103,-0.3101,-0.3119,-0.3152,-0.323,-0.3179,-0.3179,-0.3224,-0.3252,-0.3794,-0.4552,-0.4796,-0.5304,-0.5947,-0.6108,-0.6105,-0.5992,-0.5225,-0.4737,-0.4207,-0.3629,-0.3115,-0.31,-0.31,-0.3148,-0.31,-0.31,-0.3148,-0.3148,-0.31,-0.31,-0.31,-0.31,-0.31,-0.3089,-0.3011,-0.2972,-0.296,-0.2916,-0.2889,-0.2864,-0.2829,-0.2804,-0.28,-0.2792,-0.2827,-0.2827,-0.2827,-0.2792,-0.2804,-0.2807,-0.2812,-0.2827,-0.2816,-0.2808,-0.2806,-0.2791,-0.2791,-0.2803,-0.2808,-0.2811,-0.2825,-0.28,-0.2767,-0.2761,-0.2729,-0.2707,-0.265,-0.2638,-0.2679,-0.2687,-0.2692,-0.2692,-0.2692,-0.2692,-0.2692,-0.2692,-0.2691,-0.2682,-0.2618,-0.2591,-0.2613,-0.2589,-0.2557,-0.2538,-0.2534,-0.2527,-0.2515,-0.2522,-0.2532,-0.2525,-0.2518,-0.2525,-0.2533,-0.2526,-0.2518,-0.2514,-0.2514,-0.2514,-0.2515,-0.2515,-0.2521,-0.2533,-0.2585,-0.2593,-0.2568,-0.3572,-0.3195,-0.3148,-0.3163,-0.319,-0.312,-0.3164,-0.325,-0.318,-0.3127,-0.3111,-0.3151,-0.3217,-0.323,-0.3179,-0.323,-0.3217,-0.3252,-0.3746,-0.4447,-0.4589,-0.4948,-0.5427,-0.5544,-0.545,-0.5395,-0.4896,-0.4357,-0.3924,-0.3402,-0.3126,-0.3106,-0.31,-0.31,-0.31,-0.31,-0.31,-0.31,-0.31,-0.31,-0.31,-0.31,-0.31,-0.309,-0.3063,-0.3034,-0.2979,-0.2947,-0.2919,-0.2913,-0.2864,-0.2841,-0.2827,-0.2803,-0.2827,-0.2827,-0.2827,-0.2792,-0.2806,-0.2804,-0.2806,-0.2826,-0.2808,-0.2795,-0.2793,-0.2782,-0.2778,-0.2784,-0.2789,-0.2803,-0.2827,-0.2803,-0.2796,-0.2748,-0.2717,-0.27,-0.2687,-0.2648,-0.2644,-0.2686,-0.2692,-0.2692,-0.2692,-0.2692,-0.2692,-0.2692,-0.2691,-0.2686,-0.2622,-0.2603,-0.2587,-0.2612,-0.2585,-0.2567,-0.2563,-0.2559,-0.2544,-0.2542,-0.2552,-0.2504,-0.2496,-0.2548,-0.2555,-0.2533,-0.2523,-0.2522,-0.2522,-0.2483,-0.2483,-0.2519,-0.2529,-0.2586,-0.2597,-0.2608,-0.259,-0.3693,-0.3626,-0.3243,-0.3341,-0.3591,-0.3285,-0.3332,-0.3602,-0.3282,-0.3104,-0.3101,-0.318,-0.3212,-0.3224,-0.323,-0.3217,-0.3197,-0.3232,-0.3521,-0.406,-0.4163,-0.4485,-0.4848,-0.4984,-0.4744,-0.438,-0.4151,-0.4013,-0.3779,-0.3402,-0.313,-0.3106,-0.31,-0.31,-0.31,-0.31,-0.31,-0.31,-0.31,-0.31,-0.31,-0.3096,-0.3099,-0.3097,-0.3078,-0.3057,-0.3027,-0.3009,-0.2942,-0.2916,-0.2885,-0.287,-0.2813,-0.2773,-0.2792,-0.2827,-0.2788,-0.2795,-0.28,-0.2812,-0.2819,-0.2826,-0.2823,-0.2821,-0.2808,-0.2738,-0.2774,-0.2781,-0.2791,-0.2806,-0.2859,-0.2777,-0.2734,-0.2719,-0.2621,-0.2568,-0.2609,-0.2555,-0.254,-0.2496,-0.2574,-0.2695,-0.2698,-0.2694,-0.2687,-0.2688,-0.2692,-0.2691,-0.2682,-0.2622,-0.2605,-0.259,-0.2574,-0.2602,-0.2594,-0.2592,-0.2583,-0.254,-0.2543,-0.2455,-0.2452,-0.2543,-0.2579,-0.2325,-0.2391,-0.2544,-0.2541,-0.2499,-0.2542,-0.2548,-0.2555,-0.2602,-0.2582,-0.2562,-0.2509,-0.4159,-0.4147,-0.3672,-0.3767,-0.4108,-0.3999,-0.3861,-0.3808,-0.3627,-0.3363,-0.3225,-0.3197,-0.3217,-0.3224,-0.3213,-0.3193,-0.317,-0.3146,-0.3435,-0.3829,-0.3944,-0.4064,-0.4382,-0.4423,-0.4085,-0.3726,-0.3601,-0.3567,-0.3484,-0.3258,-0.313,-0.3107,-0.31,-0.31,-0.31,-0.31,-0.31,-0.31,-0.31,-0.31,-0.3097,-0.3088,-0.3083,-0.3094,-0.3086,-0.3021,-0.3061,-0.299,-0.2979,-0.2958,-0.292,-0.2765,-0.2612,-0.2545,-0.2551,-0.2705,-0.2754,-0.2763,-0.2807,-0.2823,-0.279,-0.2851,-0.2851,-0.2844,-0.2785,-0.2762,-0.2701,-0.2756,-0.2807,-0.2818,-0.2845,-0.2612,-0.2459,-0.2336,-0.219,-0.2059,-0.2021,-0.2016,-0.2053,-0.2174,-0.2414,-0.2536,-0.2669,-0.2702,-0.2684,-0.2684,-0.2648,-0.2606,-0.2604,-0.2547,-0.2444,-0.2487,-0.2432,-0.2422,-0.2414,-0.2371,-0.2371,-0.2412,-0.237,-0.2282,-0.2198,-0.2163,-0.2004,-0.1797,-0.2028,-0.2377,-0.2534,-0.2536,-0.2577,-0.2536,-0.2501,-0.247,-0.2494,-0.2517,-0.2373,-0.4676,-0.4671,-0.4149,-0.4244,-0.4677,-0.4614,-0.4393,-0.4075,-0.3938,-0.3624,-0.3243,-0.3216,-0.3228,-0.3223,-0.3251,-0.3271,-0.3386,-0.3454,-0.3838,-0.4382,-0.4361,-0.4289,-0.4172,-0.3964,-0.3786,-0.3377,-0.3438,-0.3266,-0.319,-0.3112,-0.313,-0.3108,-0.31,-0.31,-0.31,-0.31,-0.31,-0.31,-0.31,-0.31,-0.3093,-0.3079,-0.3026,-0.3096,-0.3075,-0.3026,-0.3075,-0.2826,-0.2764,-0.2701,-0.2628,-0.2418,-0.2136,-0.2033,-0.2183,-0.2453,-0.251,-0.2522,-0.2475,-0.2482,-0.2402,-0.2408,-0.2549,-0.2538,-0.2476,-0.2373,-0.2415,-0.2521,-0.2467,-0.2394,-0.2326,-0.2185,-0.2035,-0.1926,-0.164,-0.1373,-0.1468,-0.1513,-0.1554,-0.176,-0.217,-0.2247,-0.2207,-0.2196,-0.2096,-0.2078,-0.204,-0.2083,-0.2082,-0.216,-0.2112,-0.2206,-0.2204,-0.2194,-0.2146,-0.2102,-0.2062,-0.2024,-0.1942,-0.1818,-0.1691,-0.1608,-0.1444,-0.1404,-0.1734,-0.2051,-0.2293,-0.2364,-0.2155,-0.2073,-0.2282,-0.2249,-0.2058,-0.1989,-0.1879,-0.515,-0.5197,-0.4718,-0.4768,-0.5149,-0.4822,-0.4608,-0.4455,-0.4111,-0.3655,-0.3186,-0.3216,-0.3179,-0.322,-0.3298,-0.3714,-0.4216,-0.4465,-0.4817,-0.5437,-0.5252,-0.4904,-0.4587,-0.4158,-0.378,-0.3421,-0.3621,-0.3493,-0.3379,-0.3255,-0.3177,-0.3201,-0.3291,-0.3148,-0.3338,-0.3338,-0.31,-0.3148,-0.3148,-0.3148,-0.3099,-0.3094,-0.3094,-0.3048,-0.3046,-0.2941,-0.2836,-0.2494,-0.2295,-0.2277,-0.1853,-0.1603,-0.1493,-0.1497,-0.1476,-0.1502,-0.1546,-0.1562,-0.164,-0.1734,-0.1739,-0.1779,-0.1731,-0.1594,-0.1721,-0.1746,-0.1702,-0.1565,-0.1591,-0.1644,-0.1718,-0.1517,-0.1455,-0.1402,-0.1308,-0.1259,-0.1262,-0.0972,-0.1013,-0.1093,-0.1391,-0.1412,-0.14,-0.1433,-0.1466,-0.1453,-0.1485,-0.1529,-0.1619,-0.1707,-0.1742,-0.1835,-0.1838,-0.1831,-0.1818,-0.1776,-0.1741,-0.1663,-0.1502,-0.1378,-0.1291,-0.1205,-0.1206,-0.1248,0.0,0.0,-0.145,-0.1484,-0.1478,-0.1603,-0.1815,-0.1693,-0.1447,-0.1415,-0.1423,-0.5431,-0.5718,-0.5194,-0.5289,-0.5718,-0.5527,-0.5129,-0.4647,-0.4397,-0.3887,-0.3269,-0.3162,-0.3221,-0.3355,-0.372,-0.4225,-0.472,-0.5206,-0.5648,-0.5974,-0.57,-0.5222,-0.4671,-0.4179,-0.3762,-0.3812,-0.382,-0.4029,-0.3909,-0.3966,-0.397,-0.3914,-0.3909,-0.4004,-0.3861,-0.3956,-0.3956,-0.3863,-0.3672,-0.3386,-0.3195,-0.31,-0.2957,-0.267,-0.2622,-0.2471,-0.2225,-0.1976,-0.1783,-0.1771,-0.1488,-0.1247,-0.11,-0.0963,-0.0913,-0.0589,-0.0587,-0.0854,-0.1331,-0.1378,-0.1335,-0.1383,-0.1382,-0.1428,-0.1421,-0.1359,-0.1404,-0.1458,-0.139,-0.1352,-0.1287,-0.1139,-0.1035,-0.0981,-0.0885,0.0,0.0,0.0,-0.0497,-0.0538,0.0,0.0,0.0,-0.1052,-0.1133,-0.1172,-0.1245,-0.1282,-0.134,-0.1444,-0.1434,-0.1423,-0.1423,-0.142,-0.145,-0.1442,-0.141,-0.1333,-0.1091,-0.0965,-0.088,-0.0838,0.0,0.0,0.0,0.0,0.0,-0.0916,-0.1202,-0.1289,-0.1337,-0.1207,-0.1077,-0.0996,-0.0917,-0.5552,-0.6029,-0.5522,-0.5625,-0.6051,-0.5956,-0.5368,-0.4647,-0.4495,-0.4124,-0.3698,-0.3593,-0.361,-0.3744,-0.4357,-0.4761,-0.5098,-0.6051,-0.6591,-0.66,-0.6254,-0.5774,-0.5434,-0.4893,-0.4491,-0.4211,-0.4646,-0.4704,-0.4815,-0.4865,-0.4865,-0.4623,-0.4432,-0.4528,-0.4575,-0.448,-0.4385,-0.4149,-0.391,-0.3481,-0.3005,-0.2862,-0.257,-0.2281,-0.2042,-0.1945,-0.1561,-0.1363,-0.131,-0.1307,-0.1069,-0.0786,-0.0552,-0.0505,-0.0413,0.0,0.0,-0.036,-0.0758,-0.0934,-0.1068,-0.1071,-0.1073,-0.0935,-0.0975,0.0,-0.1059,-0.1008,-0.1001,-0.0959,-0.0972,-0.0743,-0.0596,-0.0455,0.0,0.0,0.0,0.0,0.0,0.0,0.0,0.0,0.0,0.0,-0.0839,-0.0926,-0.0963,0.0,0.0,0.0,0.0,0.0,0.0,0.0,0.0,0.0,0.0,0.0,0.0,0.0,0.0,0.0,0.0,0.0,0.0,0.0,0.0,0.0,-0.0962,-0.083,-0.0744,-0.083,-0.0788,0.0,0.0,-0.5497,-0.5978,-0.5505,-0.5572,-0.6045,-0.553,-0.5081,-0.4586,-0.4198,-0.4269,-0.4429,-0.4514,-0.4352,-0.4564,-0.463,-0.5178,-0.6023,-0.7178,-0.7776,-0.8042,-0.7982,-0.715,-0.6572,-0.6093,-0.5643,-0.508,-0.5343,-0.5512,-0.5573,-0.5675,-0.5299,-0.4766,-0.4861,-0.4718,-0.4718,-0.4861,-0.4432,-0.4149,-0.3863,-0.3243,-0.2623,-0.2335,-0.209,-0.1698,-0.1552,-0.1499,-0.144,-0.107,-0.0836,-0.0836,-0.0511,0.0,0.0,0.0,0.0,0.0,0.0,0.0,0.0,0.0,0.0,0.0,0.0,0.0,0.0,0.0,0.0,0.0,0.0,0.0,0.0,0.0,0.0,0.0,0.0,0.0,0.0,0.0,0.0,0.0,0.0,0.0,0.0,0.0,0.0,0.0,0.0,0.0,0.0,0.0,0.0,0.0,0.0,0.0,0.0,0.0,0.0,0.0,0.0,0.0,0.0,0.0,0.0,0.0,0.0,0.0,0.0,0.0,0.0,0.0,0.0,0.0,0.0,0.0,0.0,-0.5006,-0.5444,-0.5267,-0.5542,-0.5999,-0.5478,-0.497,-0.4617,-0.4731,-0.4751,-0.4702,-0.4055,-0.3733,-0.3956,-0.4569,-0.4925,-0.5482,-0.6993,-0.7803,-0.8112,-0.7984,-0.7831,-0.7401,-0.6958,-0.6454,-0.6115,-0.6243,-0.6364,-0.6432,-0.6249,-0.5985,-0.5587,-0.5385,-0.5527,-0.5527,-0.5289,-0.4766,-0.4004,-0.367,-0.3194,-0.205,-0.1764,-0.1571,-0.1139,-0.1082,-0.0892,-0.0608,-0.0421,-0.0326,0.0,0.0,0.0,0.0,0.0,0.0,0.0,0.0,0.0,0.0,0.0,0.0,0.0,0.0,0.0,0.0,0.0,0.0,0.0,0.0,0.0,0.0,0.0,0.0,0.0,0.0,0.0,0.0,0.0,0.0,0.0,0.0,0.0,0.0,0.0,0.0,0.0,0.0,0.0,0.0,0.0,0.0,0.0,0.0,0.0,0.0,0.0,0.0,0.0,0.0,0.0,0.0,0.0,0.0,0.0,0.0,0.0,0.0,0.0,0.0,0.0,0.0,0.0,0.0,0.0,0.0,-0.468,-0.5103,-0.5445,-0.5739,-0.5959,-0.5589,-0.5268,-0.511,-0.5445,-0.5534,-0.5119,-0.4085,-0.36,-0.3874,-0.4352,-0.4993,-0.5602,-0.6846,-0.7653,-0.8105,-0.8295,-0.8226,-0.7879,-0.758,-0.7272,-0.7042,-0.6842,-0.6861,-0.6542,-0.6305,-0.599,-0.5821,-0.586,-0.586,-0.6003,-0.5718,-0.5004,-0.4097,-0.3335,-0.2716,-0.143,-0.1287,-0.1046,-0.0663,-0.0564,-0.042,0.0,0.0,0.0,0.0,0.0,0.0,0.0,0.0,0.0,0.0,0.0,0.0,0.0,0.0,0.0,0.0,0.0,0.0,0.0,0.0,0.0,0.0,0.0,0.0,0.0,0.0,0.0,0.0,0.0,0.0,0.0,0.0,0.0,0.0,0.0,0.0,0.0,0.0,0.0,0.0,0.0,0.0,0.0,0.0,0.0,0.0,0.0,0.0,0.0,0.0,0.0,0.0,0.0,0.0,0.0,0.0,0.0,0.0,0.0,0.0,0.0,0.0,0.0,0.0,0.0,0.0,0.0,0.0,0.0,-0.4605,-0.5185,-0.6038,-0.6261,-0.6047,-0.6006,-0.5986,-0.5842,-0.6006,-0.6095,-0.5989,-0.498,-0.4582,-0.4669,-0.4861,-0.5227,-0.6024,-0.715,-0.8064,-0.8485,-0.8521,-0.8434,-0.8361,-0.8207,-0.779,-0.723,-0.71,-0.6866,-0.63,-0.6176,-0.5876,-0.5337,-0.5187,-0.533,-0.5905,-0.5099,-0.4337,-0.3716,-0.2765,-0.1859,-0.1049,-0.0763,-0.0523,0.0,0.0,0.0,0.0,0.0,0.0,0.0,0.0,0.0,0.0,0.0,0.0,0.0,0.0,0.0,0.0,0.0,0.0,0.0,0.0,0.0,0.0,0.0,0.0,0.0,0.0,0.0,0.0,0.0,0.0,0.0,0.0,0.0,0.0,0.0,0.0,0.0,0.0,0.0,0.0,0.0,0.0,0.0,0.0,0.0,0.0,0.0,0.0,0.0,0.0,0.0,0.0,0.0,0.0,0.0,0.0,0.0,0.0,0.0,0.0,0.0,0.0,0.0,0.0,0.0,0.0,0.0,0.0,0.0,0.0,0.0,0.0,-0.4646,-0.4688,-0.5971,-0.6456,-0.645,-0.6412,-0.6241,-0.5907,-0.5487,-0.5585,-0.5935,-0.5102,-0.4932,-0.5163,-0.5329,-0.5595,-0.6329,-0.7151,-0.801,-0.8149,-0.8573,-0.8857,-0.8774,-0.85,-0.8218,-0.7823,-0.7602,-0.7135,-0.6675,-0.6319,-0.5597,-0.501,-0.4221,-0.4123,-0.428,-0.3859,-0.324,-0.2383,-0.1812,-0.1287,-0.0382,0.0,0.0,0.0,0.0,0.0,0.0,0.0,0.0,0.0,0.0,0.0,0.0,0.0,0.0,0.0,0.0,0.0,0.0,0.0,0.0,0.0,0.0,0.0,0.0,0.0,0.0,0.0,0.0,0.0,0.0,0.0,0.0,0.0,0.0,0.0,0.0,0.0,0.0,0.0,0.0,0.0,0.0,0.0,0.0,0.0,0.0,0.0,0.0,0.0,0.0,0.0,0.0,0.0,0.0,0.0,0.0,0.0,0.0,0.0,0.0,0.0,0.0,0.0,0.0,0.0,0.0,0.0,0.0,0.0,0.0,0.0,0.0,0.0,0.0,-0.486,-0.4933,-0.6186,-0.6925,-0.7125,-0.7154,-0.6972,-0.6623,-0.565,-0.5531,-0.5884,-0.5285,-0.5095,-0.5412,-0.5689,-0.6129,-0.6743,-0.7294,-0.8003,-0.8098,-0.8715,-0.8857,-0.8763,-0.8521,-0.8101,-0.7857,-0.7338,-0.6815,-0.6532,-0.6302,-0.5524,-0.4335,-0.3022,-0.2596,-0.2603,-0.2416,-0.2273,-0.1612,-0.1235,-0.0668,0.0,0.0,0.0,0.0,0.0,0.0,0.0,0.0,-0.0186,-0.0323,-0.037,-0.0326,-0.0371,-0.0324,-0.0185,0.0,0.0,0.0,0.0,0.0,0.0,0.0,0.0,0.0,0.0,0.0,0.0,0.0,0.0,0.0,0.0,0.0,0.0,0.0,0.0,0.0,0.0,0.0,0.0,0.0,0.0,0.0,0.0,0.0,0.0,0.0,0.0,0.0,0.0,0.0,0.0,0.0,0.0,0.0,0.0,0.0,0.0,0.0,0.0,0.0,0.0,0.0,0.0,0.0,0.0,0.0,0.0,0.0,0.0,0.0,0.0,0.0,0.0,0.0,0.0,-0.5333,-0.5831,-0.686,-0.7581,-0.7932,-0.8032,-0.8235,-0.8288,-0.6788,-0.6229,-0.6188,-0.5848,-0.5738,-0.5658,-0.607,-0.6846,-0.7581,-0.7793,-0.8259,-0.877,-0.9059,-0.8861,-0.8569,-0.8332,-0.7809,-0.7242,-0.6767,-0.6529,-0.6151,-0.5564,-0.4843,-0.3706,-0.1929,-0.136,-0.1219,-0.1311,-0.1361,-0.104,-0.0618,0.0,0.0,0.0,0.0,0.0,0.0,0.0,0.0,0.0,-0.0604,-0.0833,-0.0973,-0.1065,-0.1065,-0.0926,-0.0509,0.0,0.0,0.0,0.0,0.0,0.0,0.0,0.0,0.0,0.0,0.0,0.0,0.0,0.0,0.0,0.0,0.0,0.0,0.0,0.0,0.0,0.0,0.0,0.0,0.0,0.0,0.0,0.0,0.0,0.0,0.0,0.0,0.0,0.0,0.0,0.0,0.0,0.0,0.0,0.0,0.0,0.0,0.0,0.0,0.0,0.0,0.0,0.0,0.0,0.0,0.0,0.0,0.0,0.0,0.0,0.0,0.0,0.0,0.0,0.0,-0.6412,-0.6454,-0.8019,-0.8509,-0.8159,-0.8295,-0.8383,-0.834,-0.751,-0.7042,-0.6767,-0.6959,-0.6908,-0.7125,-0.7629,-0.8228,-0.857,-0.884,-0.896,-0.9128,-0.9084,-0.877,-0.8379,-0.7999,-0.7477,-0.6954,-0.6526,-0.6288,-0.5765,-0.5024,-0.4028,-0.3038,-0.1259,-0.051,0.0,0.0,0.0,0.0,0.0,0.0,0.0,0.0,0.0,0.0,0.0,-0.0188,-0.0467,-0.0517,-0.0935,-0.1243,-0.1349,-0.1399,-0.1297,-0.125,-0.1063,-0.1008,0.0,0.0,-0.0451,0.0,0.0,0.0,0.0,0.0,0.0,0.0,0.0,0.0,0.0,0.0,0.0,0.0,0.0,0.0,0.0,0.0,0.0,0.0,0.0,0.0,0.0,0.0,0.0,0.0,0.0,0.0,0.0,0.0,0.0,0.0,0.0,0.0,0.0,0.0,0.0,0.0,0.0,0.0,0.0,0.0,0.0,0.0,0.0,0.0,0.0,0.0,0.0,0.0,0.0,0.0379,0.0,0.0,0.0509,0.0509,0.0551,-0.7129,-0.7211,-0.8238,-0.8595,-0.8469,-0.8544,-0.8648,-0.854,-0.7911,-0.7459,-0.7301,-0.7722,-0.7978,-0.8117,-0.854,-0.9015,-0.9294,-0.9253,-0.9265,-0.9208,-0.9032,-0.8508,-0.8061,-0.7575,-0.7052,-0.6621,-0.6336,-0.6146,-0.5565,-0.4217,-0.3056,-0.266,-0.088,0.0,0.0,0.0,0.0,0.0,0.0,0.0,0.0,0.0,0.0,-0.0234,-0.0281,-0.0608,-0.0933,-0.104,-0.1358,-0.1799,-0.1959,-0.1903,-0.1803,-0.1759,-0.1434,-0.1286,-0.1142,-0.1002,-0.0951,-0.0765,0.0,-0.0359,-0.0269,0.0,0.0,0.0,0.0,0.0,0.0,0.0,0.0,0.0,0.0,0.0,0.0,0.0,0.0,0.0,0.0,0.0,0.0,0.0,0.0,0.0,0.0,0.0,0.0,0.0,0.0,0.0,0.0,0.0,0.0,0.0,0.0,0.0,0.0,0.0,0.0,0.0,0.0,0.0,0.0,0.0,0.0,0.0,0.0,0.0,0.0086,0.0425,0.0762,0.0763,0.0805,0.0929,0.1012,-0.7606,-0.8067,-0.8071,-0.853,-0.88,-0.898,-0.8969,-0.8926,-0.816,-0.7718,-0.7779,-0.8273,-0.8499,-0.8518,-0.9026,-0.9269,-0.944,-0.942,-0.9391,-0.9253,-0.8811,-0.8329,-0.7735,-0.7154,-0.677,-0.6336,-0.6093,-0.5995,-0.5453,-0.4053,-0.267,-0.2294,-0.0783,0.0,0.0,0.0,0.0,0.0,0.0,0.0,0.0,0.0,-0.0232,-0.0604,-0.0794,-0.1033,-0.1409,-0.1692,-0.202,-0.2473,-0.2645,-0.2535,-0.2447,-0.2217,-0.18,-0.161,-0.1552,-0.15,-0.1403,-0.1261,-0.1033,-0.0853,-0.0763,-0.0584,0.0,0.0,0.0,0.0,0.0,0.0,0.0,0.0,0.0,0.0,0.0,0.0,0.0,0.0,0.0,0.0,0.0,0.0,0.0,0.0,0.0,0.0,0.0,0.0,0.0,0.0,0.0,0.0,0.0,0.0,0.0,0.0,0.0,0.0,0.0,0.0,0.0,0.0,0.0,0.0,0.0,0.0,0.0,0.0,0.0,0.0515,0.077,0.0937,0.1062,0.1144,0.1222,-0.8613,-0.95,-0.9617,-0.9753,-0.9753,-0.9208,-0.9003,-0.8969,-0.8865,-0.8521,-0.8346,-0.8749,-0.8896,-0.8674,-0.9183,-0.9489,-0.946,-0.946,-0.9448,-0.9199,-0.8769,-0.8124,-0.7653,-0.709,-0.6586,-0.6213,-0.6016,-0.5921,-0.5226,-0.3733,-0.2451,-0.2114,-0.0865,0.0,0.0,0.0,0.0,0.0,0.0,0.0,0.0,-0.0461,-0.0695,-0.0929,-0.1121,-0.1549,-0.1882,-0.2129,-0.2443,-0.2839,-0.2894,-0.2884,-0.2962,-0.2666,-0.2564,-0.2466,-0.2182,-0.204,-0.1945,-0.176,-0.1485,-0.1349,-0.1213,-0.1168,0.0,-0.0359,-0.0135,-0.0269,-0.0359,-0.0404,0.0,0.0,0.0,0.0,0.0,0.0,0.0,0.0,0.0,0.0,0.0,0.0,0.0,0.0,0.0,0.0,0.0,0.0,0.0,0.0,0.0,0.0,0.0,0.0,0.0,0.0,0.0,0.0,0.0,0.0,0.0,0.0,0.0,0.0,0.0,0.0,0.0,0.0,0.0,0.0,0.0736,0.0863,0.1034,0.1161,0.1236,-0.8917,-0.9902,-1.0054,-0.9887,-0.9477,-0.9099,-0.8946,-0.8971,-0.9038,-0.8952,-0.8766,-0.9056,-0.9064,-0.8882,-0.9297,-0.9505,-0.9533,-0.9604,-0.9319,-0.9031,-0.8618,-0.7928,-0.7439,-0.6914,-0.6467,-0.6088,-0.643,-0.6223,-0.5264,-0.4619,-0.3751,-0.2595,-0.1408,-0.0815,-0.0679,-0.0631,-0.0587,0.0,-0.0411,-0.0411,-0.0503,-0.0783,-0.1157,-0.13,-0.1727,-0.2112,-0.2403,-0.2607,-0.2793,-0.2966,-0.302,-0.2994,-0.3024,-0.2917,-0.2907,-0.2849,-0.2698,-0.2548,-0.2454,-0.222,-0.1899,-0.1808,-0.1763,-0.172,-0.1304,-0.081,-0.0811,-0.0946,-0.0943,-0.0943,-0.0808,0.0,0.0,0.0,0.0,0.0,0.0,0.0,0.0,0.0,0.0,0.0,0.0,0.0,0.0,0.0,0.0,0.0,0.0,0.0,0.0,0.0,0.0,0.0,0.0,0.0,0.0,0.0,0.0,0.0,0.0,0.0,0.0,0.0,0.0,0.0,0.0,0.0,0.0,0.0,0.0701,0.0787,0.096,0.1003,0.0908,-0.874,-0.9581,-0.9905,-0.9455,-0.8725,-0.8799,-0.8923,-0.8905,-0.9065,-0.9099,-0.9047,-0.9099,-0.9204,-0.9261,-0.9236,-0.9402,-0.9428,-0.9198,-0.8967,-0.8772,-0.825,-0.7716,-0.7102,-0.6466,-0.6299,-0.6415,-0.6734,-0.6293,-0.5536,-0.5072,-0.4311,-0.3174,-0.2484,-0.193,-0.1618,-0.1395,-0.1266,-0.1186,-0.1054,-0.1056,-0.1105,-0.1155,-0.1485,-0.1911,-0.234,-0.2588,-0.2883,-0.3035,-0.3099,-0.3097,-0.3092,-0.307,-0.3047,-0.299,-0.2981,-0.2969,-0.2954,-0.2904,-0.2903,-0.2795,-0.256,-0.2421,-0.233,-0.2096,-0.172,-0.1629,-0.1632,-0.1581,-0.1532,-0.1392,-0.1302,-0.1122,-0.0943,0.0,0.0,0.0,0.0,0.0,0.0,0.0,0.0,0.0,0.0,0.0,0.0,0.0,0.0,0.0,0.0,0.0,0.0,0.0,0.0,0.0,0.0,0.0,0.0,0.0,0.0,0.0,0.0,0.0,0.0,0.0,0.0,0.0,0.0,0.0,0.0,0.0,0.0487,0.0486,0.0529,0.0572,0.0395,-0.8227,-0.8803,-0.9628,-0.9455,-0.8681,-0.8799,-0.8919,-0.8947,-0.9018,-0.9099,-0.9099,-0.9063,-0.9,-0.8731,-0.8352,-0.8535,-0.9109,-0.8877,-0.8877,-0.8743,-0.8289,-0.7652,-0.7111,-0.6767,-0.6641,-0.6842,-0.7043,-0.6544,-0.6259,-0.5639,-0.4634,-0.3519,-0.2616,-0.221,-0.2044,-0.1867,-0.1649,-0.157,-0.1441,-0.1402,-0.1408,-0.1506,-0.1742,-0.2222,-0.2708,-0.2916,-0.3069,-0.3061,-0.3103,-0.31,-0.31,-0.3089,-0.3078,-0.3016,-0.3006,-0.2999,-0.3031,-0.3022,-0.3017,-0.2961,-0.277,-0.2768,-0.2722,-0.272,-0.2481,-0.2528,-0.2431,-0.2321,-0.222,-0.1891,-0.1708,-0.1572,-0.1392,-0.1436,0.0,0.0,0.0,0.0,0.0,0.0,0.0,0.0,0.0,0.0,0.0,0.0,0.0,0.0,0.0,0.0,0.0,0.0,0.0,0.0,0.0,0.0,0.0,0.0,0.0,0.0,0.0,0.0,0.0,0.0,0.0,0.0,0.0,0.0,0.0,0.0,0.0,0.0089,0.0,0.0,0.0]},{"header":{"parameterUnit":"m.s-1","parameterCategory":1,"la1":31.0,"la2":29.5877,"lo1":-88.7671,"lo2":-86.6584,"dy":0.0162,"dx":0.0185,"nx":115,"ny":88,"refTime":"2023-10-03T06:00:00:Z","depth":0,"parameterNumber":3,"parameterNumberName":"V-component_of_WINDS"},"data":[0.0,0.0,0.0,0.0,0.0,0.0,0.0,0.0,0.0,0.0,0.0,0.0,0.0,0.0,0.0,0.0,0.0,0.0,0.0,0.0,0.0,0.0,0.0,0.0,0.0,0.0,0.0,0.0,0.0,0.0,0.0,0.0,0.0,0.0,0.0,0.0,0.0,0.0,0.0,0.0,0.0,0.0,0.0,0.0,0.0,0.0,0.0,0.0,0.0,0.0,0.0,0.0,0.0,0.0,0.0,0.0,0.0,0.0,0.0,0.0,0.0,0.0,0.0,0.0,0.0,0.0,0.0,0.0,0.0,0.0,0.0,0.0,0.0,0.0,0.0,0.0,0.0,0.0,0.0,0.0,0.0,0.0,0.0,0.0,0.0,0.0,0.0,0.0,0.0,0.0,0.0,0.0,0.0,0.0,0.0,0.0,0.0,0.0,0.0,0.0,0.0,0.0,0.0,0.0,0.0,0.0,0.0,0.0,0.0,0.0,0.0,0.0,0.0,0.0,0.0,0.0,0.0,0.0,0.0,0.0,0.0,0.0,0.0,0.0,0.0,0.0,0.0,0.0,0.0,0.0,0.0,0.0,0.0,0.0,0.0,0.0,0.0,0.0,0.0,0.0,0.0,0.0,0.0,0.0,0.0,0.0,0.0,0.0,0.0,0.0,0.0,0.0,0.0,0.0,0.0,0.0,0.0,0.0,0.0,0.0,0.0,0.0,0.0,0.0,0.0,0.0,0.0,0.0,0.0,0.0,0.0,0.0,0.0,0.0,0.0,0.0,0.0,0.0,0.0,0.0,0.0,0.0,0.0,0.0,0.0,0.0,0.0,0.0,0.0,0.0,0.0,0.0,0.0,0.0,0.0,0.0,0.0,0.0,0.0,0.0,0.0,0.0,0.0,0.0,0.0,0.0,0.0,0.0,0.0,0.0,0.0,0.0,0.0,0.0,0.0,0.0,0.0,0.0,0.0,0.0,0.0,0.0,0.0,0.0,0.0,0.0,0.0,0.0,0.0,0.0,0.0,0.0,0.0,0.0,0.0,0.0,0.0,0.0,0.0,0.0,0.0,0.0,0.0,0.0,0.0,0.0,0.0,0.0,0.0,0.0,0.0,0.0,0.0,0.0,0.0,0.0,0.0,0.0,0.0,0.0,0.0,0.0,0.0,0.0,0.0,0.0,0.0,0.0,0.0,0.0,0.0,0.0,0.0,0.0,0.0,0.0,0.0,0.0,0.0,0.0,0.0,0.0,0.0,0.0,0.0,0.0,0.0,0.0,0.0,0.0,0.0,0.0,0.0,0.0,0.0,0.0,0.0,0.0,0.0,0.0,0.0,0.0,0.0,0.0,0.0,0.0,0.0,0.0,0.0,0.0,0.0,0.0,0.0,0.0,0.0,0.0,0.0,0.0,0.0,0.0,0.0,0.0,0.0,0.0,0.0,0.0,0.0,0.0,0.0,0.0,0.0,0.0,0.0,0.0,0.0,0.0,0.0,0.0,0.0,0.0,0.0,0.0,0.0,0.0,0.0,0.0,0.0,0.0,0.0,0.0,0.0,0.0,0.0,0.0,0.0,0.0,0.0,0.0,0.0,0.0,0.0,0.0,0.0,0.0,0.0,0.0,0.0,0.0,0.0,0.0,0.0,0.0,0.0,0.0,0.0,0.0,0.0,0.0,0.0,0.0,0.0,0.0,0.0,0.0,0.0,0.0,0.0,0.0,0.0,0.0,0.0,0.0,0.0,0.0,0.0,0.0,0.0,0.0,0.0,0.0,0.0,0.0,0.0,0.0,0.0,0.0,0.0,0.0,0.0,0.0,0.0,0.0,0.0,0.0,0.0,0.0,0.0,0.0,0.0,0.0,0.0,0.0,0.0,0.0,0.0,0.0,0.0,0.0,0.0,0.0,0.0,0.0,0.0,0.0,0.0,0.0,0.0,0.0,0.0,0.0,0.0,0.0,0.0,0.0,0.0,0.0,0.0,0.0,0.0,0.0,0.0,0.0,0.0,0.0,0.0,0.0,0.0,0.0,0.0,0.0,0.0,0.0,0.0,0.0,0.0,0.0,0.0,0.0,0.0,0.0,0.0,0.0,0.0,0.0,0.0,0.0,0.0,0.0,0.0,0.0,0.0,0.0,0.0,0.0,0.0,0.0,0.0,0.0,0.0,0.0,0.0,0.0,0.0,0.0,0.0,0.0,0.0,0.0,0.0,0.0,0.0,0.0,0.0,0.0,0.0,0.0,0.0,0.0,0.0,0.0,0.0,0.0,0.0,0.0,0.0,0.0,0.0,0.0,0.0,0.0,0.0,0.0,0.0,0.0,0.0,0.0,0.0,0.0,0.0,0.0,0.0,0.0,0.0,0.0,0.0,0.0,0.0,0.0,0.0,0.0,0.0,0.0,0.0,0.0,0.0,0.0,0.0,0.0,0.0,0.0,0.0,0.0,0.0,0.0,0.0,0.0,0.0,0.0,0.0,0.0,0.0,0.0,0.0,0.0,0.0,0.0,0.0,0.0,0.0,0.0,0.0,0.0,0.0,0.0,0.0,0.0,0.0,0.0,0.0,0.0,0.0,0.0,0.0,0.0,0.0,0.0,0.0,0.0,0.0,0.0,0.0,0.0,0.0,0.0,0.0,0.0,0.0,0.0,0.0,0.0,0.0,0.0,0.0,0.0,0.0,0.0,0.0,0.0,0.0,0.0,0.0,0.0,0.0,0.0,0.0,0.0,0.0,0.0,0.0,0.0,0.0,0.0,0.0,0.0,0.0,0.0,0.0,0.0,0.0,0.0,0.0,0.0,0.0,0.0,0.0,0.0,0.0,0.0,0.0,0.0,0.0,0.0,0.0,0.0,0.0,0.0,0.0,0.0,0.0,0.0,0.0,0.0,0.0,0.0,0.0,0.0,0.0,0.0,0.0,0.0,0.0,0.0,0.0,0.0,0.0,0.0,0.0,0.0,0.0,0.0,0.0,0.0,0.0,0.0,0.0,0.0,0.0,0.0,0.0,0.0,0.0,0.0,0.0,0.0,0.0,0.0,0.0,0.0,0.0,0.0,0.0,0.0,0.0,0.0,0.0,0.0,0.0,0.0,0.0,0.0,0.0,0.0,0.0,0.0,0.0,0.0,0.0,0.0,0.0,0.0,0.0,0.0,0.0,0.0,0.0,0.0,0.0,0.0,0.0,0.0,0.0,0.0,0.0,0.0,0.0,0.0,0.0,0.0,0.0,0.0,0.0,0.0,0.0,0.0,0.0,0.0,0.0,0.0,0.0,0.0,0.0,0.0,0.0,0.0,0.0,0.0,0.0,0.0,0.0,0.0,0.0,0.0,0.0,0.0,0.0,0.0,0.0,0.0,0.0,0.0,0.0,0.0,0.0,0.0,0.0,0.0,0.0,0.0,0.0,0.0,0.0,0.0,0.0,0.0,0.0,0.0,0.0,0.0,0.0,0.0,0.0,0.0,0.0,0.0,0.0,0.0,0.0,0.0,0.0,0.0,0.0,0.0,0.0,0.0,0.0,0.0,0.0,0.0,0.0,0.0,0.0,0.0,0.0,0.0,0.0,0.0,0.0,0.0,0.0,0.0,0.0,0.0,0.0,0.0,0.0,0.0,0.0,0.0,0.0,0.0,0.0,0.0,0.0,0.0,0.0,0.0,0.0,0.0,0.0,0.0,0.0,0.0,0.0,0.0,0.0,0.0,0.0,0.0,0.0,0.0,0.0,0.0,0.0,0.0,0.0,0.0,0.0,0.0,0.0,0.0,0.0,0.0,0.0,0.0,0.0,0.0,0.0,0.0,0.0,0.0,0.0,0.0,0.0,0.0,0.0,0.0,0.0,0.0,0.0,0.0,0.0,0.0,0.0,0.0,0.0,0.0,0.0,0.0,0.0,0.0,0.0,0.0,0.0,0.0,0.0,0.0,0.0,0.0,0.0,0.0,0.0,0.0,0.0,0.0,0.0,0.0,0.0,0.0,0.0,0.0,0.0,0.0,0.0,0.0,0.0,0.0,0.0,0.0,0.0,0.0,0.0,0.0,0.0,0.0,0.0,0.0,0.0,0.0,0.0,0.0,0.0,0.0,0.0,0.0,0.0,0.0,0.0,0.0,0.0,0.0,0.0,0.0,0.0,0.0,0.0,0.0,0.0,0.0,0.0,0.0,0.0,0.0,0.0,0.0,0.0,0.0,0.0,0.0,0.0,0.0,0.0,0.0,0.0,0.0,0.0,0.0,0.0,0.0,0.0,0.0,0.0,0.0,0.0,0.0,0.0,0.0,2.9006,0.0,0.0,0.0,0.0,0.0,0.0,0.0,0.0,0.0,0.0,0.0,0.0,0.0,0.0,0.0,0.0,0.0,0.0,0.0,0.0,0.0,0.0,0.0,0.0,0.0,0.0,0.0,0.0,0.0,0.0,0.0,0.0,0.0,0.0,0.0,0.0,0.0,0.0,0.0,0.0,0.0,0.0,0.0,0.0,0.0,0.0,0.0,0.0,0.0,0.0,0.0,0.0,0.0,0.0,0.0,0.0,0.0,0.0,0.0,0.0,0.0,0.0,0.0,0.0,0.0,0.0,0.0,0.0,0.0,0.0,0.0,0.0,0.0,0.0,0.0,0.0,0.0,0.0,0.0,0.0,0.0,0.0,0.0,0.0,0.0,0.0,0.0,0.0,0.0,0.0,0.0,0.0,0.0,0.0,0.0,0.0,0.0,0.0,0.0,0.0,0.0,0.0,0.0,0.0,0.0,0.0,0.0,0.0,0.0,0.0,2.9138,3.0357,2.8939,2.8913,3.048,0.0,0.0,0.0,0.0,0.0,0.0,0.0,0.0,0.0,0.0,0.0,0.0,0.0,0.0,0.0,0.0,0.0,0.0,0.0,0.0,0.0,0.0,0.0,0.0,0.0,0.0,0.0,0.0,0.0,0.0,0.0,0.0,0.0,0.0,0.0,0.0,0.0,0.0,0.0,0.0,0.0,0.0,0.0,0.0,0.0,0.0,0.0,0.0,0.0,0.0,0.0,0.0,0.0,0.0,0.0,0.0,0.0,0.0,0.0,0.0,0.0,0.0,0.0,0.0,0.0,0.0,0.0,0.0,0.0,0.0,0.0,0.0,0.0,0.0,0.0,0.0,0.0,0.0,0.0,0.0,0.0,0.0,0.0,0.0,0.0,0.0,0.0,0.0,0.0,0.0,0.0,0.0,0.0,0.0,0.0,0.0,0.0,0.0,0.0,0.0,0.0,0.0,0.0,0.0,0.0,0.0,0.0,0.0,0.0,0.0,0.0,0.0,3.0708,3.0809,3.2627,0.0,0.0,0.0,0.0,0.0,0.0,0.0,0.0,0.0,0.0,0.0,0.0,0.0,0.0,0.0,0.0,0.0,0.0,0.0,0.0,0.0,0.0,0.0,0.0,0.0,0.0,0.0,0.0,0.0,0.0,0.0,0.0,0.0,0.0,0.0,0.0,0.0,0.0,0.0,0.0,0.0,0.0,0.0,0.0,0.0,0.0,0.0,0.0,0.0,0.0,0.0,0.0,0.0,0.0,0.0,0.0,0.0,0.0,0.0,0.0,0.0,0.0,0.0,0.0,0.0,0.0,0.0,0.0,0.0,0.0,0.0,0.0,0.0,0.0,0.0,0.0,0.0,0.0,0.0,0.0,0.0,0.0,0.0,0.0,0.0,0.0,0.0,0.0,0.0,0.0,0.0,0.0,0.0,0.0,0.0,0.0,0.0,0.0,0.0,0.0,0.0,0.0,0.0,0.0,0.0,0.0,0.0,0.0,0.0,0.0,3.0428,3.3748,3.463,0.0,3.6092,0.0,0.0,0.0,0.0,0.0,0.0,0.0,0.0,0.0,0.0,0.0,0.0,0.0,0.0,0.0,0.0,0.0,0.0,0.0,0.0,0.0,0.0,0.0,0.0,0.0,0.0,0.0,0.0,0.0,0.0,0.0,0.0,0.0,0.0,0.0,0.0,0.0,0.0,0.0,0.0,0.0,0.0,0.0,0.0,0.0,0.0,0.0,0.0,0.0,0.0,0.0,0.0,0.0,0.0,0.0,0.0,0.0,0.0,0.0,0.0,0.0,0.0,0.0,0.0,0.0,0.0,0.0,0.0,0.0,0.0,0.0,0.0,0.0,0.0,0.0,0.0,0.0,0.0,0.0,0.0,0.0,0.0,0.0,0.0,0.0,0.0,0.0,0.0,0.0,0.0,0.0,0.0,0.0,0.0,0.0,0.0,0.0,0.0,0.0,0.0,0.0,0.0,0.0,0.0,0.0,0.0,0.0,0.0,0.0,0.0,3.1742,3.4505,3.5337,3.5286,0.0,0.0,0.0,0.0,0.0,0.0,0.0,0.0,0.0,0.0,0.0,0.0,0.0,0.0,0.0,0.0,0.0,0.0,0.0,0.0,0.0,0.0,0.0,0.0,0.0,0.0,0.0,0.0,0.0,0.0,0.0,0.0,0.0,0.0,0.0,0.0,0.0,0.0,0.0,0.0,0.0,0.0,0.0,0.0,0.0,0.0,0.0,0.0,0.0,0.0,0.0,0.0,0.0,0.0,0.0,0.0,0.0,0.0,0.0,0.0,0.0,0.0,0.0,0.0,0.0,0.0,0.0,0.0,0.0,0.0,0.0,0.0,0.0,0.0,0.0,0.0,0.0,0.0,0.0,0.0,0.0,0.0,0.0,0.0,0.0,0.0,0.0,0.0,0.0,0.0,0.0,0.0,0.0,0.0,0.0,0.0,0.0,0.0,0.0,0.0,0.0,0.0,0.0,0.0,0.0,0.0,0.0,0.0,0.0,0.0,3.058,3.2494,3.5393,3.5343,3.4622,3.3432,0.0,0.0,0.0,0.0,0.0,0.0,0.0,0.0,0.0,0.0,0.0,0.0,0.0,0.0,0.0,0.0,0.0,0.0,0.0,0.0,0.0,0.0,0.0,0.0,0.0,0.0,0.0,0.0,0.0,0.0,0.0,0.0,0.0,0.0,0.0,0.0,0.0,0.0,0.0,0.0,0.0,0.0,0.0,0.0,0.0,0.0,0.0,0.0,0.0,0.0,0.0,0.0,0.0,0.0,0.0,0.0,0.0,0.0,0.0,0.0,0.0,0.0,0.0,0.0,0.0,0.0,0.0,0.0,0.0,0.0,0.0,0.0,0.0,0.0,0.0,0.0,0.0,0.0,0.0,0.0,0.0,0.0,0.0,0.0,0.0,0.0,0.0,0.0,0.0,0.0,0.0,0.0,0.0,0.0,0.0,0.0,0.0,0.0,0.0,0.0,0.0,0.0,0.0,0.0,0.0,0.0,0.0,0.0,3.3883,3.1406,3.2307,3.7131,3.5095,3.4269,0.0,0.0,0.0,0.0,0.0,0.0,0.0,0.0,0.0,0.0,0.0,0.0,0.0,0.0,0.0,0.0,0.0,0.0,0.0,0.0,0.0,0.0,0.0,0.0,0.0,0.0,0.0,0.0,0.0,0.0,0.0,0.0,0.0,0.0,0.0,0.0,0.0,0.0,0.0,0.0,0.0,0.0,0.0,0.0,0.0,0.0,0.0,0.0,0.0,0.0,0.0,0.0,0.0,0.0,0.0,0.0,0.0,0.0,0.0,0.0,0.0,0.0,0.0,0.0,0.0,0.0,0.0,0.0,0.0,0.0,0.0,0.0,0.0,0.0,0.0,0.0,0.0,0.0,0.0,0.0,0.0,0.0,0.0,0.0,0.0,0.0,0.0,0.0,0.0,0.0,0.0,0.0,0.0,0.0,0.0,0.0,0.0,0.0,0.0,0.0,0.0,0.0,0.0,0.0,0.0,0.0,0.0,0.0,0.0,2.8929,3.0926,3.3918,3.7897,3.572,3.4909,0.0,0.0,0.0,0.0,0.0,0.0,0.0,0.0,0.0,0.0,0.0,0.0,0.0,0.0,0.0,0.0,0.0,0.0,0.0,0.0,0.0,0.0,0.0,0.0,0.0,0.0,0.0,0.0,0.0,0.0,0.0,0.0,0.0,0.0,0.0,0.0,0.0,0.0,0.0,0.0,0.0,0.0,0.0,0.0,0.0,0.0,0.0,0.0,0.0,0.0,0.0,0.0,0.0,0.0,0.0,0.0,0.0,0.0,0.0,0.0,0.0,0.0,0.0,0.0,0.0,0.0,0.0,0.0,0.0,0.0,0.0,0.0,0.0,0.0,0.0,0.0,0.0,0.0,0.0,0.0,0.0,0.0,0.0,0.0,0.0,0.0,0.0,0.0,0.0,0.0,0.0,0.0,0.0,0.0,0.0,0.0,0.0,0.0,0.0,0.0,0.0,0.0,0.0,0.0,0.0,0.0,0.0,0.0,0.0,2.8204,0.0,3.538,3.7291,3.5716,3.4642,0.0,0.0,0.0,0.0,0.0,0.0,0.0,0.0,0.0,0.0,0.0,0.0,0.0,0.0,0.0,0.0,0.0,0.0,0.0,0.0,0.0,0.0,0.0,0.0,0.0,0.0,0.0,0.0,0.0,0.0,0.0,0.0,0.0,0.0,0.0,0.0,0.0,0.0,0.0,0.0,0.0,0.0,0.0,0.0,0.0,0.0,0.0,0.0,0.0,0.0,0.0,0.0,0.0,0.0,0.0,0.0,0.0,0.0,0.0,0.0,0.0,0.0,0.0,0.0,0.0,0.0,0.0,0.0,0.0,0.0,0.0,0.0,0.0,0.0,0.0,0.0,0.0,0.0,0.0,0.0,0.0,0.0,0.0,0.0,0.0,0.0,0.0,0.0,0.0,0.0,0.0,0.0,0.0,0.0,0.0,0.0,0.0,0.0,0.0,0.0,0.0,0.0,0.0,0.0,0.0,0.0,0.0,0.0,2.7581,3.2634,3.533,3.6303,3.5338,3.5066,3.3467,0.0,0.0,0.0,0.0,0.0,0.0,0.0,0.0,0.0,0.0,0.0,0.0,0.0,0.0,0.0,0.0,0.0,0.0,0.0,0.0,0.0,0.0,0.0,0.0,0.0,0.0,0.0,0.0,0.0,0.0,0.0,0.0,0.0,0.0,0.0,0.0,0.0,0.0,0.0,0.0,0.0,0.0,0.0,0.0,0.0,0.0,0.0,0.0,0.0,0.0,0.0,0.0,0.0,0.0,0.0,0.0,0.0,0.0,0.0,0.0,0.0,0.0,0.0,0.0,0.0,0.0,0.0,0.0,0.0,0.0,0.0,0.0,0.0,0.0,0.0,0.0,0.0,0.0,0.0,0.0,0.0,0.0,0.0,0.0,0.0,0.0,0.0,0.0,0.0,0.0,0.0,0.0,0.0,0.0,0.0,0.0,0.0,0.0,0.0,0.0,0.0,0.0,0.0,0.0,0.0,0.0,0.0,0.0,0.0,2.8543,3.2815,3.6669,3.9664,3.621,3.567,0.0,0.0,0.0,0.0,0.0,0.0,0.0,0.0,0.0,0.0,0.0,0.0,0.0,0.0,0.0,0.0,0.0,0.0,0.0,0.0,0.0,0.0,0.0,0.0,0.0,0.0,0.0,0.0,0.0,0.0,0.0,0.0,0.0,0.0,0.0,0.0,0.0,0.0,0.0,0.0,0.0,0.0,0.0,0.0,0.0,0.0,0.0,0.0,0.0,0.0,0.0,0.0,0.0,0.0,0.0,0.0,0.0,0.0,0.0,0.0,0.0,0.0,0.0,0.0,0.0,0.0,0.0,0.0,0.0,0.0,0.0,0.0,0.0,0.0,0.0,0.0,0.0,0.0,0.0,0.0,0.0,0.0,0.0,0.0,0.0,0.0,0.0,0.0,0.0,0.0,0.0,0.0,0.0,0.0,0.0,0.0,0.0,0.0,0.0,0.0,0.0,0.0,0.0,0.0,0.0,0.0,0.0,0.0,0.0,3.1296,3.5061,3.8501,4.1232,3.7396,3.6638,3.935,0.0,0.0,0.0,0.0,0.0,0.0,0.0,0.0,0.0,0.0,0.0,0.0,0.0,0.0,0.0,0.0,0.0,0.0,0.0,0.0,0.0,0.0,0.0,0.0,0.0,0.0,0.0,0.0,0.0,0.0,0.0,0.0,0.0,0.0,0.0,0.0,0.0,0.0,0.0,0.0,0.0,0.0,0.0,0.0,0.0,0.0,0.0,0.0,0.0,0.0,0.0,0.0,0.0,0.0,0.0,0.0,0.0,0.0,0.0,0.0,0.0,0.0,0.0,0.0,0.0,0.0,0.0,0.0,0.0,0.0,0.0,0.0,0.0,0.0,0.0,0.0,0.0,0.0,0.0,0.0,0.0,0.0,0.0,0.0,0.0,0.0,0.0,0.0,0.0,0.0,0.0,0.0,0.0,0.0,0.0,0.0,0.0,0.0,0.0,0.0,0.0,0.0,0.0,0.0,0.0,0.0,0.0,0.0,3.9294,4.1492,4.2077,4.0836,3.9096,3.7063,0.0,0.0,0.0,0.0,0.0,0.0,0.0,0.0,0.0,0.0,0.0,0.0,0.0,0.0,0.0,0.0,0.0,0.0,0.0,0.0,0.0,0.0,0.0,0.0,0.0,0.0,0.0,0.0,0.0,0.0,0.0,0.0,0.0,0.0,0.0,0.0,0.0,0.0,0.0,0.0,0.0,0.0,0.0,0.0,0.0,0.0,0.0,0.0,0.0,0.0,0.0,0.0,0.0,0.0,0.0,0.0,0.0,0.0,0.0,0.0,0.0,0.0,0.0,0.0,0.0,0.0,0.0,0.0,0.0,0.0,0.0,0.0,0.0,0.0,0.0,0.0,0.0,0.0,0.0,0.0,0.0,0.0,0.0,0.0,0.0,0.0,0.0,0.0,0.0,0.0,0.0,0.0,0.0,0.0,0.0,0.0,0.0,0.0,0.0,0.0,0.0,0.0,0.0,0.0,0.0,0.0,0.0,0.0,0.0,4.4057,4.7755,4.9436,4.8741,4.4851,4.2669,0.0,0.0,0.0,0.0,0.0,0.0,0.0,0.0,0.0,0.0,0.0,0.0,0.0,0.0,0.0,0.0,0.0,0.0,0.0,0.0,0.0,0.0,0.0,0.0,0.0,0.0,0.0,0.0,0.0,0.0,0.0,0.0,0.0,0.0,0.0,0.0,0.0,0.0,0.0,0.0,0.0,0.0,0.0,0.0,0.0,0.0,0.0,0.0,0.0,0.0,0.0,0.0,0.0,0.0,0.0,0.0,0.0,0.0,0.0,0.0,0.0,0.0,0.0,0.0,0.0,0.0,0.0,0.0,0.0,0.0,0.0,0.0,0.0,0.0,0.0,0.0,0.0,0.0,0.0,0.0,0.0,0.0,0.0,0.0,0.0,0.0,0.0,0.0,0.0,0.0,0.0,0.0,0.0,0.0,0.0,0.0,0.0,0.0,0.0,0.0,0.0,0.0,0.0,0.0,0.0,0.0,0.0,0.0,4.4594,4.8045,5.3438,5.5847,5.4915,4.9951,4.6258,0.0,0.0,0.0,0.0,0.0,0.0,0.0,0.0,0.0,0.0,0.0,0.0,0.0,0.0,0.0,0.0,0.0,0.0,0.0,0.0,0.0,0.0,0.0,0.0,0.0,0.0,0.0,0.0,0.0,0.0,0.0,0.0,0.0,0.0,0.0,0.0,0.0,0.0,0.0,0.0,0.0,0.0,0.0,0.0,0.0,0.0,0.0,0.0,0.0,0.0,0.0,0.0,0.0,0.0,0.0,0.0,0.0,0.0,0.0,0.0,0.0,0.0,0.0,0.0,0.0,0.0,0.0,0.0,0.0,0.0,0.0,0.0,0.0,0.0,0.0,0.0,0.0,0.0,0.0,0.0,0.0,0.0,0.0,0.0,0.0,0.0,0.0,0.0,0.0,0.0,0.0,0.0,0.0,0.0,0.0,0.0,0.0,0.0,0.0,0.0,0.0,0.0,0.0,0.0,0.0,0.0,0.0,0.0,4.954,5.1593,5.8123,6.0867,5.9191,5.4038,4.8555,0.0,0.0,0.0,0.0,0.0,0.0,0.0,0.0,0.0,0.0,0.0,0.0,0.0,0.0,0.0,0.0,0.0,0.0,0.0,0.0,0.0,0.0,0.0,0.0,0.0,0.0,0.0,0.0,0.0,0.0,0.0,0.0,0.0,0.0,0.0,0.0,0.0,0.0,0.0,0.0,0.0,0.0,0.0,0.0,0.0,0.0,0.0,0.0,0.0,0.0,0.0,0.0,0.0,0.0,0.0,0.0,0.0,0.0,0.0,0.0,0.0,0.0,0.0,0.0,0.0,0.0,0.0,0.0,0.0,0.0,0.0,0.0,0.0,0.0,0.0,0.0,0.0,0.0,0.0,0.0,0.0,0.0,0.0,0.0,0.0,0.0,0.0,0.0,0.0,0.0,0.0,0.0,0.0,0.0,0.0,0.0,0.0,0.0,0.0,0.0,0.0,0.0,0.0,0.0,0.0,0.0,0.0,0.0,5.1325,5.5213,5.9402,6.1412,6.1023,5.5252,5.0254,0.0,0.0,0.0,0.0,0.0,0.0,0.0,0.0,0.0,0.0,0.0,0.0,0.0,0.0,0.0,0.0,0.0,0.0,0.0,0.0,0.0,0.0,0.0,0.0,0.0,0.0,0.0,0.0,0.0,0.0,0.0,0.0,0.0,0.0,0.0,0.0,0.0,0.0,0.0,0.0,0.0,0.0,0.0,0.0,0.0,0.0,0.0,0.0,3.366,0.0,0.0,0.0,0.0,0.0,0.0,0.0,0.0,0.0,0.0,0.0,0.0,0.0,0.0,0.0,0.0,0.0,0.0,0.0,0.0,0.0,0.0,0.0,0.0,0.0,0.0,0.0,0.0,0.0,0.0,0.0,0.0,0.0,0.0,0.0,0.0,0.0,0.0,0.0,0.0,0.0,0.0,0.0,0.0,0.0,0.0,0.0,0.0,0.0,0.0,0.0,0.0,0.0,0.0,0.0,0.0,0.0,0.0,0.0,5.353,5.75,6.1004,6.2581,6.2033,5.7066,5.2264,0.0,0.0,0.0,0.0,0.0,0.0,0.0,0.0,0.0,0.0,0.0,0.0,0.0,0.0,0.0,0.0,0.0,0.0,0.0,0.0,0.0,0.0,0.0,0.0,0.0,0.0,0.0,0.0,0.0,0.0,0.0,0.0,0.0,0.0,0.0,0.0,0.0,0.0,0.0,0.0,0.0,0.0,0.0,0.0,0.0,0.0,0.0,0.0,0.0,0.0,0.0,0.0,0.0,0.0,0.0,0.0,0.0,0.0,0.0,0.0,0.0,0.0,0.0,0.0,0.0,0.0,0.0,0.0,0.0,0.0,0.0,0.0,0.0,0.0,0.0,0.0,0.0,0.0,0.0,0.0,0.0,0.0,0.0,0.0,0.0,0.0,0.0,0.0,0.0,0.0,0.0,0.0,0.0,0.0,0.0,0.0,0.0,0.0,0.0,0.0,0.0,0.0,0.0,0.0,0.0,0.0,0.0,5.0515,5.538,5.9607,6.2564,6.375,6.3049,5.8878,5.423,4.9379,0.0,0.0,0.0,0.0,0.0,0.0,0.0,0.0,0.0,0.0,0.0,0.0,0.0,0.0,0.0,0.0,0.0,0.0,0.0,0.0,0.0,0.0,0.0,0.0,0.0,0.0,0.0,0.0,0.0,0.0,0.0,0.0,0.0,0.0,0.0,0.0,0.0,0.0,2.9728,3.1908,0.0,0.0,0.0,0.0,0.0,0.0,0.0,0.0,3.2593,0.0,0.0,0.0,0.0,0.0,0.0,0.0,0.0,0.0,0.0,0.0,0.0,0.0,0.0,0.0,0.0,0.0,0.0,0.0,0.0,0.0,0.0,0.0,0.0,0.0,0.0,0.0,0.0,0.0,0.0,0.0,0.0,0.0,0.0,0.0,0.0,0.0,0.0,0.0,0.0,0.0,0.0,0.0,0.0,0.0,0.0,0.0,0.0,0.0,0.0,0.0,0.0,0.0,0.0,0.0,0.0,5.2623,5.2051,5.538,6.2998,6.3784,6.4023,6.3787,5.9693,5.563,5.1785,0.0,0.0,0.0,0.0,0.0,0.0,0.0,0.0,0.0,0.0,0.0,0.0,0.0,0.0,0.0,0.0,0.0,0.0,0.0,0.0,0.0,0.0,0.0,0.0,0.0,0.0,0.0,0.0,0.0,0.0,0.0,0.0,0.0,0.0,0.0,0.0,0.0,0.0,0.0,3.5691,3.696,0.0,0.0,0.0,0.0,0.0,0.0,0.0,0.0,3.4267,0.0,0.0,0.0,0.0,0.0,0.0,0.0,0.0,0.0,0.0,0.0,0.0,0.0,0.0,0.0,0.0,0.0,0.0,0.0,0.0,0.0,0.0,0.0,0.0,0.0,0.0,0.0,0.0,0.0,0.0,0.0,0.0,0.0,0.0,0.0,0.0,0.0,0.0,0.0,0.0,0.0,0.0,0.0,0.0,0.0,0.0,0.0,0.0,0.0,0.0,0.0,0.0,0.0,0.0,0.0,5.1751,5.4597,5.8556,6.3865,6.4101,6.4101,6.3945,5.8143,5.4289,0.0,0.0,0.0,0.0,0.0,0.0,0.0,0.0,0.0,0.0,0.0,0.0,0.0,0.0,0.0,0.0,0.0,0.0,0.0,0.0,0.0,0.0,0.0,0.0,0.0,0.0,0.0,0.0,0.0,0.0,0.0,0.0,0.0,0.0,0.0,0.0,0.0,0.0,0.0,0.0,3.6285,3.7082,3.8877,0.0,0.0,0.0,0.0,0.0,0.0,3.5009,3.4408,0.0,0.0,0.0,0.0,0.0,0.0,0.0,0.0,0.0,0.0,0.0,0.0,0.0,0.0,0.0,0.0,0.0,0.0,0.0,0.0,0.0,0.0,0.0,0.0,0.0,0.0,0.0,0.0,0.0,0.0,0.0,0.0,0.0,0.0,0.0,0.0,0.0,0.0,0.0,0.0,0.0,0.0,0.0,0.0,0.0,0.0,0.0,0.0,0.0,0.0,0.0,0.0,0.0,0.0,0.0,5.0125,5.6277,6.1142,6.441,6.4294,6.4255,6.4488,5.7089,5.3097,0.0,0.0,0.0,0.0,0.0,0.0,0.0,0.0,0.0,0.0,0.0,0.0,0.0,0.0,0.0,0.0,0.0,0.0,0.0,0.0,0.0,0.0,0.0,0.0,0.0,0.0,0.0,0.0,0.0,0.0,0.0,0.0,0.0,0.0,0.0,0.0,0.0,0.0,0.0,0.0,0.0,3.8474,3.9896,3.8697,0.0,0.0,0.0,0.0,3.6243,3.6128,0.0,0.0,0.0,0.0,0.0,0.0,0.0,0.0,0.0,0.0,0.0,0.0,0.0,0.0,0.0,0.0,0.0,0.0,0.0,0.0,0.0,0.0,0.0,0.0,0.0,0.0,0.0,0.0,0.0,0.0,0.0,0.0,0.0,0.0,0.0,0.0,0.0,0.0,0.0,0.0,0.0,0.0,0.0,0.0,0.0,0.0,0.0,0.0,0.0,0.0,0.0,0.0,0.0,0.0,0.0,0.0,5.0866,5.4845,5.9939,6.5969,6.488,6.4842,6.6242,5.8802,5.4313,0.0,0.0,0.0,0.0,0.0,0.0,0.0,0.0,0.0,0.0,0.0,0.0,0.0,0.0,0.0,0.0,0.0,0.0,0.0,0.0,0.0,0.0,0.0,0.0,0.0,0.0,0.0,0.0,0.0,0.0,0.0,0.0,0.0,0.0,0.0,0.0,0.0,0.0,0.0,0.0,0.0,4.4778,3.991,4.0461,4.0723,0.0,0.0,3.9287,4.0789,4.1683,0.0,0.0,0.0,0.0,0.0,0.0,0.0,0.0,0.0,0.0,0.0,0.0,0.0,0.0,0.0,0.0,0.0,0.0,0.0,0.0,0.0,0.0,0.0,0.0,0.0,0.0,0.0,0.0,0.0,0.0,0.0,0.0,0.0,0.0,0.0,0.0,0.0,0.0,0.0,0.0,0.0,0.0,0.0,0.0,0.0,0.0,0.0,0.0,0.0,0.0,0.0,0.0,0.0,0.0,0.0,4.7148,5.1258,5.8016,6.3193,6.6515,6.5501,6.519,6.593,5.6975,5.2048,0.0,0.0,0.0,0.0,0.0,0.0,0.0,0.0,0.0,0.0,0.0,0.0,0.0,0.0,0.0,0.0,0.0,0.0,0.0,0.0,0.0,0.0,0.0,0.0,0.0,0.0,0.0,0.0,0.0,0.0,0.0,0.0,0.0,0.0,0.0,0.0,0.0,0.0,0.0,0.0,0.0,0.0,4.2269,4.3262,0.0,0.0,0.0,4.3364,4.3982,0.0,0.0,0.0,0.0,0.0,0.0,0.0,0.0,0.0,0.0,0.0,0.0,0.0,0.0,0.0,0.0,0.0,0.0,0.0,0.0,0.0,0.0,0.0,0.0,0.0,0.0,0.0,0.0,0.0,0.0,0.0,0.0,0.0,0.0,0.0,0.0,0.0,0.0,0.0,0.0,0.0,0.0,0.0,0.0,0.0,0.0,0.0,0.0,0.0,0.0,0.0,0.0,0.0,0.0,0.0,0.0,0.0,5.1961,6.0988,6.6164,6.6982,6.6164,6.5618,6.5229,5.6368,0.0,0.0,0.0,0.0,0.0,0.0,0.0,0.0,0.0,0.0,0.0,0.0,0.0,0.0,0.0,0.0,0.0,0.0,0.0,0.0,0.0,0.0,0.0,0.0,0.0,0.0,0.0,2.9734,0.0,0.0,0.0,0.0,0.0,0.0,0.0,0.0,0.0,0.0,0.0,0.0,0.0,0.0,4.495,4.494,4.6598,4.7847,0.0,0.0,4.7442,4.691,4.7914,4.6488,0.0,0.0,0.0,0.0,0.0,0.0,0.0,0.0,0.0,0.0,0.0,0.0,0.0,0.0,0.0,0.0,0.0,0.0,0.0,0.0,0.0,0.0,0.0,0.0,0.0,0.0,0.0,0.0,0.0,0.0,0.0,0.0,0.0,0.0,0.0,0.0,0.0,0.0,0.0,0.0,0.0,0.0,0.0,0.0,0.0,0.0,0.0,0.0,0.0,0.0,0.0,0.0,0.0,0.0,0.0,5.3744,6.2157,6.706,6.7839,6.706,6.6203,6.5307,5.927,5.4302,0.0,0.0,0.0,0.0,0.0,0.0,0.0,0.0,0.0,0.0,0.0,0.0,0.0,0.0,0.0,0.0,0.0,0.0,0.0,0.0,0.0,0.0,0.0,0.0,0.0,0.0,0.0,0.0,0.0,0.0,0.0,0.0,0.0,0.0,0.0,0.0,0.0,0.0,0.0,0.0,0.0,4.9386,4.7204,5.0506,5.3171,0.0,0.0,5.1461,4.9948,5.3119,5.2388,4.2378,0.0,0.0,0.0,0.0,0.0,0.0,0.0,0.0,0.0,0.0,0.0,0.0,0.0,0.0,0.0,0.0,0.0,0.0,0.0,0.0,0.0,0.0,0.0,0.0,0.0,0.0,0.0,0.0,0.0,0.0,0.0,0.0,0.0,0.0,0.0,0.0,0.0,0.0,0.0,0.0,0.0,0.0,0.0,0.0,0.0,0.0,0.0,0.0,0.0,0.0,0.0,0.0,0.0,5.2541,5.3822,6.3367,6.8465,6.8777,6.7935,6.6844,6.5424,6.0054,5.4663,0.0,0.0,0.0,0.0,0.0,0.0,0.0,0.0,0.0,0.0,0.0,0.0,0.0,0.0,0.0,0.0,0.0,0.0,0.0,0.0,0.0,0.0,0.0,0.0,0.0,0.0,0.0,0.0,3.3616,3.312,3.1955,0.0,0.0,0.0,0.0,0.0,0.0,0.0,0.0,0.0,0.0,5.1858,5.256,5.4618,0.0,0.0,5.6225,5.543,5.4741,5.4754,5.2388,4.5204,4.3421,0.0,0.0,0.0,0.0,0.0,0.0,0.0,0.0,0.0,0.0,0.0,0.0,0.0,0.0,0.0,0.0,0.0,0.0,0.0,0.0,0.0,0.0,0.0,0.0,0.0,0.0,0.0,0.0,0.0,0.0,0.0,0.0,0.0,0.0,0.0,0.0,0.0,0.0,0.0,0.0,0.0,0.0,0.0,0.0,0.0,0.0,0.0,0.0,0.0,0.0,0.0,0.0,5.3166,5.448,6.4535,6.9559,6.9286,6.872,6.7314,6.5036,6.0955,5.5964,0.0,0.0,0.0,0.0,0.0,0.0,0.0,0.0,0.0,0.0,0.0,0.0,0.0,0.0,0.0,0.0,0.0,0.0,0.0,0.0,0.0,0.0,0.0,0.0,0.0,0.0,0.0,0.0,3.4387,3.3044,3.2133,0.0,0.0,0.0,0.0,0.0,0.0,0.0,0.0,0.0,0.0,5.4466,5.6291,5.7355,5.8201,5.8779,5.795,5.7038,5.646,5.5327,5.2689,4.7251,0.0,0.0,0.0,0.0,0.0,0.0,0.0,0.0,0.0,0.0,0.0,0.0,0.0,0.0,0.0,0.0,0.0,0.0,0.0,0.0,0.0,0.0,0.0,0.0,0.0,0.0,0.0,0.0,0.0,0.0,3.6353,0.0,0.0,0.0,0.0,0.0,0.0,0.0,0.0,0.0,0.0,0.0,0.0,0.0,0.0,0.0,0.0,0.0,0.0,0.0,0.0,0.0,0.0,5.3786,5.6347,6.5704,7.0183,6.9367,6.9289,6.7613,6.4296,6.2364,5.8865,5.342,0.0,0.0,0.0,0.0,0.0,0.0,0.0,0.0,0.0,0.0,0.0,0.0,0.0,0.0,0.0,0.0,0.0,0.0,0.0,0.0,0.0,0.0,0.0,0.0,0.0,0.0,3.7331,3.5969,3.47,0.0,0.0,0.0,0.0,0.0,0.0,0.0,0.0,0.0,0.0,5.4051,5.736,5.7479,5.8211,5.8791,5.8869,5.7413,5.5719,5.4268,5.5135,5.4209,0.0,0.0,0.0,0.0,0.0,0.0,0.0,0.0,0.0,0.0,0.0,0.0,0.0,0.0,0.0,0.0,0.0,0.0,0.0,0.0,0.0,0.0,0.0,0.0,0.0,0.0,0.0,4.3689,4.2354,0.0,0.0,0.0,0.0,0.0,0.0,0.0,0.0,0.0,0.0,0.0,4.8214,4.9894,0.0,0.0,0.0,0.0,0.0,0.0,0.0,0.0,0.0,0.0,0.0,0.0,5.5416,5.8294,6.6872,7.1006,7.0164,6.9599,6.7931,6.5125,6.3354,5.9062,5.1992,0.0,0.0,0.0,0.0,0.0,0.0,0.0,0.0,0.0,0.0,0.0,0.0,0.0,0.0,0.0,0.0,0.0,0.0,0.0,0.0,0.0,0.0,0.0,0.0,0.0,3.6944,0.0,0.0,0.0,0.0,0.0,0.0,0.0,0.0,0.0,0.0,0.0,4.7778,5.2392,5.5109,5.7271,5.8982,5.949,6.0087,0.0,0.0,0.0,0.0,0.0,0.0,0.0,0.0,0.0,0.0,0.0,0.0,0.0,0.0,5.5098,4.6249,4.3759,4.3424,4.4544,0.0,0.0,0.0,0.0,0.0,0.0,0.0,0.0,0.0,0.0,0.0,0.0,0.0,0.0,0.0,0.0,4.6063,0.0,0.0,0.0,0.0,0.0,0.0,0.0,0.0,5.0679,5.3178,5.4097,5.5699,5.5428,0.0,5.4061,4.9534,0.0,0.0,0.0,0.0,0.0,0.0,0.0,0.0,5.6266,5.9102,6.7414,7.1401,7.0605,7.0037,6.8412,6.5574,6.3473,5.9532,5.3443,4.9505,4.5684,0.0,0.0,0.0,0.0,0.0,0.0,0.0,0.0,0.0,0.0,0.0,0.0,0.0,0.0,0.0,0.0,0.0,0.0,0.0,0.0,0.0,0.0,0.0,3.8427,0.0,0.0,0.0,0.0,0.0,0.0,0.0,0.0,0.0,4.4717,4.7901,5.1865,5.6438,5.792,5.9018,6.0372,0.0,0.0,0.0,0.0,0.0,0.0,0.0,5.3288,5.5166,5.461,5.4333,5.5758,5.8948,6.0726,5.9019,0.0,0.0,5.1809,4.9782,4.9765,5.0927,5.2012,5.2956,5.3625,5.4798,5.5741,0.0,0.0,0.0,0.0,0.0,0.0,0.0,0.0,4.5837,4.7158,0.0,4.8457,0.0,0.0,0.0,0.0,0.0,5.1465,0.0,0.0,6.0092,6.2609,6.0498,6.0409,5.9904,5.9244,6.044,5.7735,5.1467,4.8882,0.0,0.0,0.0,0.0,0.0,0.0,5.6407,5.9274,6.7603,7.1479,7.0683,7.0683,6.906,6.5691,6.3003,6.0361,5.7711,5.4827,5.1438,4.7344,4.4375,0.0,0.0,0.0,0.0,0.0,0.0,0.0,0.0,0.0,0.0,0.0,0.0,0.0,0.0,0.0,0.0,0.0,0.0,0.0,0.0,4.2488,0.0,0.0,0.0,0.0,0.0,0.0,0.0,0.0,0.0,0.0,4.9029,5.3014,5.742,6.0896,0.0,0.0,0.0,0.0,5.9795,5.8275,5.7102,5.6558,5.6763,5.8558,5.9783,5.9272,0.0,0.0,6.1123,6.1413,6.163,5.9763,6.1891,6.2847,6.1689,5.9849,5.8835,5.8915,5.8956,5.9161,5.9278,6.0081,6.0651,5.271,0.0,0.0,0.0,0.0,5.1719,5.4025,5.7648,5.653,5.5785,5.5231,5.394,0.0,0.0,0.0,0.0,0.0,0.0,5.7552,5.9739,6.3252,6.5842,6.7615,6.8146,6.7642,6.6327,6.6052,6.4678,6.2202,6.0798,5.4511,4.3669,0.0,0.0,0.0,0.0,6.0206,6.3624,7.0191,7.296,7.1543,7.2145,7.084,6.7431,6.4811,6.218,5.9544,5.7411,5.456,5.0821,4.8619,0.0,0.0,0.0,0.0,0.0,0.0,0.0,0.0,0.0,0.0,0.0,0.0,0.0,0.0,0.0,0.0,0.0,0.0,0.0,4.2574,4.4141,4.4005,0.0,0.0,0.0,0.0,0.0,0.0,0.0,0.0,0.0,5.8382,5.8332,5.9182,0.0,0.0,6.1786,6.149,6.1764,6.2304,6.3055,0.0,0.0,0.0,6.0741,5.9571,6.2925,6.6424,6.8858,6.9361,7.0192,7.0508,6.9297,6.9804,7.0,6.8904,6.5447,6.3118,6.3467,6.409,6.495,6.6122,6.7049,6.77,6.1778,5.7454,5.5611,5.5937,5.7704,5.8367,6.0896,6.4468,6.3245,6.2848,6.2945,6.0757,5.8166,5.5244,5.3181,0.0,0.0,0.0,6.2966,6.6799,6.8244,7.0581,7.3531,7.3453,7.3025,7.2326,7.1463,7.0255,6.8697,6.7473,6.1681,5.1758,0.0,0.0,5.1928,5.8344,6.3031,6.5896,7.0778,7.3044,7.2415,7.2604,7.1258,6.8225,6.6861,6.4673,6.1393,6.0487,5.8231,5.4377,5.2442,5.0018,0.0,0.0,0.0,0.0,0.0,0.0,0.0,0.0,0.0,0.0,0.0,3.9251,3.3538,0.0,0.0,0.0,4.1542,4.4408,4.6227,4.6748,0.0,0.0,0.0,0.0,0.0,0.0,0.0,5.3395,5.7595,6.1082,6.3157,6.2962,6.3267,6.5107,6.4325,6.374,6.4043,0.0,6.4752,6.5812,6.4644,6.4372,6.6403,6.4608,6.4139,6.7847,7.0468,7.2421,7.3476,7.4215,7.4403,7.3972,7.3816,7.366,7.3113,7.039,6.8199,6.8121,6.8784,6.9644,7.0347,7.1086,7.1746,7.0688,6.9467,6.4137,6.2214,6.2829,6.5289,6.6884,6.774,6.704,6.8397,7.0964,6.8047,6.6172,6.5064,6.1442,0.0,6.4932,6.6641,6.9709,7.375,7.4602,7.6256,7.8474,7.6879,7.6454,7.7038,7.622,7.4505,7.2011,7.0374,6.7939,6.4782,6.3923,6.1978,5.9264,6.2325,6.492,6.6578,6.9955,7.2269,7.3369,7.2394,7.0773,6.8509,6.8858,6.719,6.3321,6.3483,6.1857,5.7934,5.5865,5.3649,5.0917,0.0,0.0,0.0,0.0,0.0,0.0,0.0,0.0,0.0,0.0,0.0,0.0,0.0,0.0,0.0,4.7265,0.0,5.1554,5.0308,0.0,0.0,0.0,4.8722,5.2713,5.4087,5.5656,5.8043,0.0,0.0,6.4799,0.0,6.8591,6.9436,6.8159,6.7343,6.8004,6.7694,6.7369,6.7333,6.7369,6.7407,6.7684,6.8972,7.073,7.2606,7.4088,7.4518,7.4753,7.487,7.483,7.4829,7.483,7.483,7.483,7.4557,7.4322,7.2605,7.2801,7.3075,7.2569,7.2961,7.3353,7.4742,7.4508,7.45,7.2662,6.9778,7.0465,7.1678,7.3062,7.2308,7.2435,7.3092,7.1814,7.1184,7.1088,7.1364,7.232,7.3904,7.6206,7.784,7.8921,7.9782,8.0539,8.1049,8.0062,7.9023,7.797,7.7077,7.5713,7.3843,7.3367,7.2055,6.9983,6.9669,6.6293,6.0174,6.2594,6.4883,6.6594,6.9376,7.2228,7.4906,7.2385,7.0963,7.099,6.8639,6.6599,6.4944,6.3116,6.1658,6.0526,5.8101,5.5548,5.2925,4.7989,0.0,0.0,0.0,0.0,0.0,0.0,0.0,0.0,0.0,4.447,3.4898,0.0,4.4658,0.0,5.0751,5.4765,5.5124,5.5438,0.0,0.0,5.5659,5.66,5.8358,6.0463,6.2336,6.3588,6.5733,6.7681,6.9003,6.9705,7.0644,7.2055,7.085,6.9603,6.9214,7.069,7.1306,7.0172,7.083,7.1527,7.0864,7.1254,7.2271,7.395,7.4379,7.4965,7.6252,7.6488,7.6486,7.6525,7.6486,7.6486,7.6449,7.6486,7.6369,7.5902,7.5056,7.4442,7.4871,7.5145,7.538,7.8226,7.8619,7.9661,7.9105,7.7534,7.6763,7.7055,7.7938,7.7173,7.6841,7.6822,7.5711,7.5061,7.4907,7.6154,7.7191,7.8125,7.9894,8.1326,8.2415,8.2553,8.3049,8.3711,8.2133,8.0896,7.9961,7.9104,7.7623,7.5674,7.5947,7.5228,7.3484,7.3094,7.0343,6.5473,6.5546,6.597,6.6555,6.876,7.1438,7.4425,7.2758,7.093,6.9059,6.7179,6.4507,6.0963,5.9747,5.8398,5.6868,5.5655,5.4367,5.2815,4.7902,4.4906,0.0,0.0,0.0,0.0,0.0,0.0,0.0,0.0,0.0,0.0,0.0,4.7145,4.7184,5.3536,5.7647,5.7612,5.8745,5.9764,6.0467,6.1365,6.2415,6.369,6.544,6.6884,6.7787,6.9033,7.0203,7.1139,7.1295,7.1605,7.2612,7.2233,7.1811,7.1733,7.2391,7.2505,7.1997,7.2694,7.3157,7.2651,7.2573,7.2885,7.3783,7.4251,7.4837,7.5774,7.593,7.6047,7.6438,7.6516,7.6672,7.6984,7.7101,7.7101,7.6986,7.6372,7.5834,7.5836,7.5875,7.5954,8.1005,8.1749,8.1889,8.2771,8.4011,8.2688,8.2056,8.1917,8.1106,8.0841,8.0897,7.9577,7.8689,7.8201,7.8837,7.9582,8.0439,8.1295,8.2929,8.4992,8.4483,8.4903,8.6033,8.3819,8.2536,8.2068,8.1325,7.9766,7.7551,7.8291,7.7668,7.5911,7.5093,7.3703,7.1664,6.93,6.7584,6.6531,6.8382,7.0571,7.292,7.2429,6.9845,6.5322,6.4523,6.1371,5.5385,5.553,5.4467,5.1663,5.2113,5.2546,5.2593,4.7434,4.6093,0.0,4.4415,0.0,0.0,0.0,0.0,0.0,0.0,0.0,0.0,5.0548,5.0566,5.144,5.6638,5.996,6.0077,6.156,6.343,6.564,6.6106,6.6844,6.8241,6.9215,6.9996,7.0776,7.1519,7.1987,7.195,7.1987,7.2026,7.2418,7.2885,7.3472,7.4292,7.3355,7.2652,7.3118,7.3118,7.3001,7.2962,7.304,7.3079,7.3313,7.3861,7.4369,7.4564,7.4681,7.4956,7.5658,7.5853,7.6127,7.6945,7.7023,7.6945,7.7062,7.6908,7.6597,7.6128,7.5895,7.558,8.2449,8.2663,8.3436,8.3552,8.3264,8.442,8.418,8.2871,8.2025,8.2076,8.2815,8.3247,8.3776,8.4283,8.4394,8.4918,8.5774,8.6561,8.721,8.7677,8.8235,8.7946,8.6969,8.6455,8.4754,8.2224,8.1909,8.1301,8.0157,8.0313,7.9135,7.6705,7.6507,7.4844,7.1784,0.0,0.0,0.0,6.8991,7.0829,7.1776,6.7915,6.4947,6.3181,5.9817,0.0,5.5181,5.4534,5.4233,5.4233,5.4324,0.0,0.0,0.0,0.0,0.0,0.0,0.0,0.0,0.0,0.0,0.0,5.6396,5.5024,5.1745,5.5506,5.8554,5.9481,6.2486,6.4631,6.5287,6.626,6.7077,6.758,6.8867,6.988,7.019,7.0972,7.1597,7.1714,7.1909,7.1987,7.2026,7.1987,7.2534,7.3666,7.3586,7.3939,7.5307,7.4603,7.3588,7.2534,7.2456,7.23,7.2221,7.2339,7.2729,7.3079,7.3391,7.3822,7.4408,7.5073,7.5502,7.5814,7.5814,7.6088,7.6906,7.6555,7.636,7.6945,7.6555,7.6205,7.6711,7.6283,7.5971,8.455,0.0,8.5181,8.5323,0.0,8.5947,8.5663,8.4482,8.3567,8.349,8.399,8.4475,8.4949,8.5338,8.5301,8.5711,8.6564,8.6977,8.7631,8.8445,8.8449,8.7805,8.6597,8.6166,8.4857,8.2794,8.3237,8.302,8.2253,8.2604,8.1702,7.9552,7.9513,7.8603,7.6902,7.6035,7.3446,6.9164,7.0047,7.1168,7.2289,6.9518,6.65,6.3548,0.0,0.0,0.0,0.0,0.0,0.0,0.0,0.0,0.0,0.0,0.0,5.6748,5.6143,5.6233,5.7451,5.9295,6.0859,6.2141,6.3039,6.1674,5.738,6.1085,6.3926,6.4773,6.61,6.7348,6.8592,6.9098,6.9567,6.9996,7.0816,7.1324,7.1402,7.1714,7.1987,7.1987,7.1987,7.2143,7.2571,7.2651,7.3119,7.4251,7.4173,7.4212,7.4917,7.4798,7.4134,7.3354,7.3236,7.3236,7.3236,7.3236,7.3315,7.3783,7.39,7.4056,7.4447,7.4876,7.5268,7.5658,7.5814,7.6088,7.6867,7.6711,7.6594,7.6945,7.675,7.6555,7.6984,7.6399,7.6049,8.6192,8.5802,8.6443,8.6758,8.6813,8.6973,8.6685,8.6065,0.0,0.0,0.0,8.5108,8.5147,8.5143,8.5091,8.5471,8.6129,8.6302,8.7244,8.8683,8.8176,8.7292,8.6203,8.5529,8.4449,8.3243,8.3963,8.4132,8.3748,8.4292,8.3865,8.2544,8.2271,8.2115,8.1961,8.1286,7.8473,7.3637,7.1829,7.1762,7.316,7.1675,6.8773,6.4485,6.3269,6.0462,5.5987,5.5831,5.5441,5.4621,5.5519,5.6497,5.7405,5.7156,5.8299,6.1232,6.0506,6.1366,6.4764,6.5298,6.6101,6.7616,6.8513,6.7695,6.458,6.6292,6.785,6.8708,6.8786,6.9411,7.0776,7.0932,7.1285,7.2143,7.2221,7.226,7.2417,7.2456,7.2534,7.2456,7.2534,7.2729,7.3391,7.3508,7.3822,7.4525,7.4759,7.4837,7.4876,7.4759,7.4486,7.4369,7.4251,7.4408,7.4486,7.4408,7.4486,7.4408,7.4447,7.4486,7.4525,7.4642,7.4995,7.5658,7.5814,7.6166,7.6867,7.6711,7.6789,7.7023,7.6828,7.675,7.6984,7.64,7.6088,8.609,8.6656,8.6166,8.597,8.609,8.6863,8.7139,8.7026,8.6155,8.5799,8.5845,8.6546,8.6858,8.6861,8.6913,8.6972,8.713,8.7878,8.8754,0.0,9.0335,8.9368,8.7181,8.7001,8.5328,8.2556,8.2518,8.3266,8.4405,8.4013,8.3547,8.3278,8.2615,8.1912,8.1209,8.1054,8.0546,7.9647,7.5097,7.2854,7.3053,6.8629,6.5927,6.5107,6.3011,6.0712,5.8485,5.9108,5.9065,5.8243,5.9722,6.1301,6.2849,6.3515,6.4881,6.6817,6.7473,6.8055,6.8641,6.9377,7.0232,7.1206,7.2064,7.1714,6.9841,6.9957,7.0504,7.1324,7.1324,7.1519,7.1792,7.1831,7.2143,7.2962,7.3118,7.3352,7.3978,7.4056,7.4017,7.4017,7.4173,7.4134,7.429,7.433,7.4642,7.5385,7.5619,7.5853,7.6203,7.5423,7.4603,7.4486,7.4486,7.4486,7.4681,7.4525,7.4642,7.4486,7.4603,7.472,7.472,7.5229,7.5658,7.5775,7.5893,7.6166,7.6867,7.5852,7.5774,7.6555,7.5969,7.5462,7.6594,7.6244,7.6049,8.7526,8.8205,8.7546,8.727,8.7354,8.7275,8.7272,8.7261,8.6878,8.6706,8.6742,8.7094,8.7243,8.7236,8.7267,8.7319,8.7319,8.7696,8.8369,8.9228,9.0093,8.9627,8.8067,8.7567,8.6282,8.433,8.3356,8.3553,8.4686,8.4374,8.4218,8.4179,8.3828,8.3242,8.2422,8.2342,8.191,8.0972,7.7694,7.5736,7.5229,7.2452,7.0576,6.9641,6.8436,6.707,6.539,6.5663,6.5506,6.4647,6.5351,6.6169,6.6941,6.737,6.8378,7.0076,7.0583,7.1206,7.2104,7.2534,7.2924,7.3354,7.3705,7.3627,7.2845,7.2376,7.2065,7.2026,7.1987,7.1987,7.2026,7.2417,7.2885,7.3235,7.3664,7.4095,7.4408,7.4486,7.4486,7.4486,7.4486,7.4681,7.5151,7.519,7.5541,7.632,7.6517,7.6672,7.7023,7.6438,7.5891,7.593,7.593,7.593,7.5891,7.5891,7.5891,7.5891,7.5891,7.593,7.593,7.6281,7.6438,7.6516,7.6477,7.6439,7.6517,7.5813,7.5541,7.5305,7.5188,7.4993,7.5462,7.5345,7.5618,8.8679,8.9579,8.8557,8.8233,8.8261,8.7625,8.7325,8.7329,8.7327,8.7328,8.733,8.7321,8.7307,8.73,8.7318,8.7326,8.7327,8.7337,8.7808,8.8628,8.9332,8.9255,8.8631,8.7968,8.7226,8.6328,8.4998,8.4607,8.5037,8.492,8.4607,8.4293,8.4411,8.4175,8.3509,8.3497,8.2864,8.1537,7.9832,7.8432,7.7419,7.6716,7.5661,7.4293,7.413,7.342,7.1974,7.1841,7.1441,7.0621,7.0387,7.0348,7.0543,7.0348,7.0972,7.234,7.2573,7.3119,7.433,7.4486,7.4486,7.4525,7.4681,7.472,7.4486,7.4134,7.3393,7.2495,7.2339,7.23,7.2417,7.2845,7.343,7.3822,7.4408,7.4915,7.5071,7.511,7.5071,7.5071,7.5071,7.5423,7.5893,7.6088,7.6361,7.6867,7.7101,7.7101,7.7101,7.7101,7.7101,7.7101,7.7101,7.6984,7.7101,7.7023,7.7023,7.7101,7.7023,7.6945,7.6984,7.7023,7.7062,7.6984,7.6828,7.6516,7.5932,7.5385,7.5034,7.4681,7.4408,7.429,7.4564,7.4603,7.4876,8.8248,8.9432,8.8099,8.7443,8.7523,8.7453,8.7382,8.7382,8.7383,8.7382,8.7379,8.7335,8.7354,8.7317,8.7379,8.7382,8.7382,8.7379,8.7843,8.8585,8.8772,8.8768,8.8691,8.86,8.8121,8.7342,8.7028,8.6484,8.5939,8.5194,8.4013,8.2711,8.3217,8.3563,8.3465,8.3458,8.3415,8.322,8.1581,7.9887,7.8397,7.8203,7.7695,7.6796,7.6756,7.6286,7.5272,7.5347,7.4917,7.4095,7.3236,7.3236,7.3783,7.3315,7.3313,7.4173,7.4251,7.4369,7.4525,7.4486,7.4564,7.4564,7.5268,7.5385,7.472,7.5151,7.4876,7.3627,7.3196,7.3157,7.3196,7.3313,7.4017,7.519,7.558,7.5971,7.6594,7.6867,7.6867,7.6867,7.6672,7.6906,7.6867,7.6867,7.6945,7.7062,7.7101,7.7101,7.7101,7.7101,7.7101,7.7101,7.7101,7.7101,7.7101,7.7101,7.7101,7.7101,7.7101,7.7101,7.7101,7.7101,7.7062,7.6789,7.6477,7.5971,7.5385,7.472,7.39,7.4017,7.3822,7.3625,7.4251,7.433,7.4486,8.906,9.0423,8.8291,8.7375,8.7421,8.742,8.7418,8.7492,8.851,8.8391,8.7605,8.8434,8.832,8.7383,8.7377,8.7411,8.741,8.7397,8.7583,8.7974,8.8437,8.8668,8.8705,8.8699,8.8501,8.8108,8.7679,8.7211,8.6701,8.5484,8.4419,8.3709,8.3111,8.271,8.2738,8.2738,8.2738,8.2738,8.254,8.1616,8.0111,7.9892,7.9702,7.9351,7.8892,7.8233,7.7337,7.6361,7.5424,7.4564,7.4173,7.4173,7.4486,7.4173,7.4369,7.5229,7.5774,7.6047,7.6047,7.6008,7.6047,7.6047,7.636,7.6399,7.6086,7.636,7.6047,7.4993,7.433,7.4017,7.4056,7.4447,7.5073,7.5736,7.6244,7.6711,7.7023,7.7101,7.7101,7.7101,7.7101,7.7101,7.7101,7.7101,7.7101,7.7101,7.7101,7.7101,7.7101,7.7101,7.7101,7.7101,7.7101,7.7101,7.7101,7.7101,7.7101,7.7101,7.7101,7.7101,7.7062,7.7101,7.6945,7.6438,7.5971,7.5268,7.4369,7.3939,7.3352,7.3315,7.2924,7.2651,7.2963,7.3041,7.3041,8.9666,9.0814,8.871,8.7615,8.7409,8.7406,8.7407,8.7526,8.8775,8.8579,8.7599,8.8762,8.8605,8.7516,8.739,8.7385,8.7423,8.7412,8.7406,8.7484,8.8069,8.8461,8.8657,8.8696,8.8852,8.893,8.846,8.7874,8.7287,8.5904,8.5151,8.4908,8.3637,8.2879,8.2835,8.2482,8.2172,8.2248,8.2833,8.2482,8.1392,8.1501,8.1284,8.0589,7.9787,7.9014,7.8391,7.6947,7.5852,7.5266,7.4993,7.4993,7.5188,7.4993,7.5268,7.6088,7.675,7.7101,7.7101,7.7101,7.7101,7.7101,7.7101,7.7101,7.7101,7.7101,7.6828,7.6203,7.5579,7.5188,7.4956,7.5424,7.5853,7.6127,7.675,7.7101,7.7101,7.7101,7.7101,7.7101,7.7101,7.7101,7.7101,7.7101,7.7101,7.7101,7.7101,7.7101,7.7101,7.7101,7.7101,7.7101,7.7101,7.7101,7.7101,7.7101,7.7101,7.7101,7.7101,7.6984,7.6828,7.6711,7.6438,7.5658,7.5385,7.4877,7.39,7.3313,7.2845,7.226,7.2026,7.2065,7.2221,7.2065,7.2065,8.9724,9.0898,8.9362,8.8106,8.7408,8.7399,8.74,8.7408,8.7682,8.7599,8.7549,8.7742,8.7579,8.7489,8.7448,8.7407,8.7407,8.7406,8.7406,8.7406,8.7484,8.7913,8.8657,8.8696,8.9125,8.9672,8.9672,8.8969,8.7521,8.6527,8.5999,8.5861,8.4938,8.4518,8.4185,8.2899,8.2113,8.2158,8.2194,8.2152,8.2122,8.2872,8.2088,8.0117,7.9006,7.8664,7.8391,7.757,7.6984,7.6945,7.6164,7.6086,7.675,7.6166,7.6125,7.6867,7.7062,7.7101,7.7101,7.7101,7.7101,7.7101,7.7101,7.7101,7.7101,7.7101,7.7023,7.6984,7.6828,7.6516,7.5893,7.5853,7.6205,7.6828,7.7023,7.7101,7.7101,7.7101,7.7101,7.7101,7.7101,7.7101,7.7101,7.7101,7.7101,7.7101,7.7101,7.7101,7.7101,7.7101,7.7101,7.7101,7.7101,7.7101,7.7062,7.7101,7.7101,7.6906,7.675,7.6711,7.6244,7.5736,7.5307,7.4759,7.4251,7.3744,7.3274,7.2806,7.2339,7.1987,7.1987,7.1987,7.1987,7.1987,7.1987,8.9216,8.8777,8.8109,8.7675,8.7399,8.7402,8.7402,8.7633,8.978,9.0085,8.9371,9.015,9.0069,8.9008,8.7874,8.7406,8.7406,8.7406,8.7406,8.7406,8.7406,8.7562,8.7874,8.8421,8.8813,8.9203,8.975,8.9711,8.9006,8.7622,8.6899,8.6602,8.5401,8.4476,8.3864,8.3276,8.2692,8.2146,8.2107,8.2107,8.2113,8.2476,8.2196,8.1386,8.1029,8.0615,8.0068,7.8703,7.7688,7.7101,7.6789,7.675,7.7023,7.6828,7.675,7.7062,7.7101,7.7101,7.7101,7.7101,7.7101,7.7101,7.7101,7.7101,7.7101,7.7101,7.7101,7.7101,7.7101,7.6906,7.675,7.6633,7.675,7.7023,7.7101,7.7101,7.7101,7.7101,7.7101,7.7101,7.7101,7.7101,7.7101,7.7101,7.7101,7.7101,7.7101,7.7101,7.7101,7.7101,7.7101,7.7101,7.7062,7.6906,7.6283,7.6789,7.6984,7.6478,7.6166,7.5735,7.5307,7.5034,7.4642,7.3978,7.3313,7.3001,7.2728,7.2495,7.1987,7.1987,7.1987,7.1987,7.1987,7.1987,7.1987,8.9241,8.7628,8.8021,8.7904,8.7431,8.7397,8.7397,8.7703,9.0159,9.0503,8.9634,9.0648,9.0492,8.9203,8.8226,8.764,8.7406,8.7406,8.7406,8.7406,8.7406,8.7406,8.7484,8.7991,8.8304,8.8343,8.8852,8.9164,8.9084,8.8246,8.7798,8.7628,8.6228,8.5106,8.4308,8.3711,8.2964,8.2263,8.2107,8.2107,8.2113,8.2167,8.2192,8.2199,8.2273,8.1903,8.1005,7.9328,7.8157,7.761,7.7257,7.7101,7.7101,7.7101,7.7101,7.7101,7.7101,7.7101,7.7101,7.7101,7.7101,7.7101,7.7375,7.7453,7.7179,7.7375,7.7375,7.7218,7.7101,7.7101,7.7101,7.7062,7.7101,7.7101,7.7101,7.7101,7.7101,7.7101,7.7101,7.7101,7.7101,7.7101,7.7101,7.7101,7.7101,7.7101,7.7101,7.7101,7.7101,7.7101,7.7101,7.7062,7.6789,7.6439,7.5932,7.601,7.5969,7.5501,7.5384,7.4915,7.4447,7.4212,7.3861,7.3197,7.2768,7.2534,7.23,7.2065,7.1987,7.1987,7.1987,7.1987,7.1987,7.1987,7.1987,8.9735,8.7819,8.925,8.8865,8.7622,8.7458,8.7418,8.7621,8.8548,8.8736,8.8265,8.8657,8.8852,8.7991,8.846,8.8187,8.764,8.7562,8.7484,8.7406,8.7406,8.7406,8.7406,8.7676,8.7832,8.7754,8.756,8.7521,8.7638,8.8092,8.8353,8.8303,8.7523,8.6521,8.5936,8.4383,8.312,8.2419,8.2224,8.2146,8.2113,8.2167,8.2194,8.2199,8.2275,8.1942,8.1083,7.9445,7.8547,7.8274,7.7687,7.7179,7.7218,7.714,7.7101,7.7101,7.7101,7.7101,7.714,7.7179,7.7257,7.7492,7.8001,7.8077,7.7531,7.7884,7.7962,7.7257,7.7101,7.7101,7.7101,7.7101,7.7101,7.7101,7.7101,7.7101,7.7101,7.7101,7.7101,7.7101,7.7101,7.7101,7.7101,7.7101,7.7101,7.7101,7.7101,7.7101,7.7101,7.7101,7.7101,7.6867,7.6477,7.5932,7.5502,7.5112,7.4759,7.4447,7.4486,7.4251,7.3627,7.3275,7.308,7.2534,7.2417,7.2182,7.2182,7.1987,7.1987,7.1987,7.1987,7.1987,7.1987,7.1987,7.1987,8.9026,8.8393,8.8867,8.8827,8.8237,8.7656,8.7421,8.757,8.8932,8.9437,8.9281,8.9477,8.975,8.9789,8.9203,8.854,8.8304,8.8265,8.7991,8.7484,8.7406,8.7443,8.7637,8.8562,8.9101,8.8986,8.8478,8.794,8.7519,8.7672,8.7782,8.7685,8.7463,8.6852,8.6014,8.5435,8.452,8.3159,8.3003,8.274,8.2179,8.2175,8.2199,8.2218,8.2282,8.2137,8.1864,8.0771,7.964,7.8547,7.8702,7.8624,7.804,7.7414,7.7101,7.7101,7.7101,7.7414,7.7923,7.8001,7.8272,7.878,7.917,7.8858,7.8157,7.8274,7.8079,7.7296,7.7101,7.7101,7.7101,7.7101,7.7101,7.7101,7.7101,7.7101,7.7101,7.7101,7.7101,7.7101,7.7101,7.7101,7.7101,7.7101,7.7101,7.7101,7.7101,7.7101,7.7101,7.7023,7.6789,7.632,7.5853,7.5268,7.4642,7.4095,7.3705,7.351,7.3549,7.3549,7.2924,7.2573,7.2339,7.2182,7.2065,7.1987,7.1987,7.1987,7.1987,7.1987,7.1987,7.1987,7.1987,7.1987,7.1987,8.8783,8.8307,8.8902,8.8785,8.8229,8.7614,8.7417,8.7601,8.8891,8.9516,8.9516,8.9477,8.9986,9.0452,8.9633,8.9203,8.9203,8.9203,8.8696,8.799,8.7865,8.7864,8.8016,8.9246,8.9669,8.9363,8.8858,8.8207,8.7443,8.7406,8.7401,8.7388,8.7319,8.6865,8.6103,8.5948,8.5267,8.4029,8.3567,8.3151,8.2674,8.235,8.2173,8.2226,8.2557,8.2565,8.2331,8.202,8.1163,7.9718,7.9639,7.9287,7.8469,7.8155,7.7921,7.7687,7.7921,7.835,7.882,7.8897,7.9092,7.96,7.999,7.9795,7.917,7.9092,7.8899,7.7804,7.761,7.7453,7.7179,7.7101,7.7101,7.7101,7.7101,7.7101,7.7101,7.7101,7.7101,7.7101,7.7101,7.7101,7.7101,7.7101,7.7101,7.7101,7.7101,7.7101,7.7023,7.6789,7.6281,7.5697,7.5032,7.4369,7.3547,7.308,7.2651,7.2573,7.2612,7.2573,7.23,7.2221,7.2065,7.2104,7.1987,7.1987,7.1987,7.1987,7.1987,7.1987,7.1987,7.1987,7.1987,7.1987,7.1987,8.9047,8.7835,8.9242,8.901,8.7757,8.7525,8.7407,8.7523,8.8226,8.8696,8.8735,8.8813,8.9359,8.9986,9.0101,9.0064,9.0064,8.9908,8.9398,8.8806,8.8635,8.8776,8.9237,8.9843,8.9843,8.9313,8.893,8.832,8.7635,8.7443,8.7406,8.7401,8.7328,8.6953,8.6361,8.6116,8.5714,8.4802,8.4025,8.3688,8.3557,8.2875,8.246,8.2542,8.3183,8.323,8.2684,8.2684,8.2371,8.1161,8.0185,7.9405,7.8899,7.9287,7.917,7.8547,7.9248,7.9561,7.9717,7.9756,7.9912,8.0146,8.0693,8.0693,8.0029,8.0224,8.007,7.8664,7.8469,7.8118,7.7492,7.7296,7.7257,7.7101,7.7101,7.7101,7.7101,7.7101,7.7101,7.7101,7.7101,7.7101,7.7101,7.7101,7.7101,7.7101,7.7062,7.7062,7.675,7.636,7.5893,7.5151,7.4251,7.3666,7.2963,7.2651,7.23,7.226,7.2221,7.2143,7.2065,7.2026,7.1987,7.1987,7.1987,7.1987,7.1987,7.1987,7.1987,7.1987,7.1987,7.1987,7.1987,7.1987,7.1987,8.975,8.932,8.9125,8.9125,8.9086,8.7991,8.7406,8.7445,8.7679,8.8265,8.8579,8.8696,8.9594,9.0882,9.096,9.096,9.0843,9.0298,8.9516,8.8925,8.9318,9.0303,9.1028,9.0938,9.0977,9.1028,8.9996,8.9118,8.8281,8.7674,8.7406,8.7404,8.7382,8.725,8.7052,8.6943,8.6504,8.5768,8.5458,8.4964,8.4477,8.4212,8.4107,8.4159,8.432,8.4011,8.3152,8.2176,8.1864,8.1903,8.0498,7.9951,8.0029,7.9873,7.9522,7.9326,7.9522,8.0029,8.0498,8.0576,8.0888,8.1552,8.1552,8.1591,8.0771,8.0849,8.0459,7.9561,7.9326,7.8975,7.8235,7.8001,7.7727,7.7218,7.7179,7.714,7.7101,7.7101,7.7101,7.7101,7.7101,7.7101,7.7101,7.7101,7.7101,7.7101,7.7062,7.6867,7.6438,7.5971,7.5463,7.433,7.3469,7.2963,7.2534,7.2221,7.2065,7.2065,7.2065,7.2065,7.2026,7.1987,7.1987,7.1987,7.1987,7.1987,7.1987,7.1987,7.1987,7.1987,7.1987,7.1987,7.1987,7.1987,7.1987,8.9242,8.8891,8.8735,8.8969,8.932,8.8382,8.7952,8.803,8.8382,8.8735,8.9203,8.9242,9.0179,9.1702,9.1467,9.1507,9.1663,9.0921,9.0296,8.9977,9.025,9.1142,9.1964,9.1837,9.1727,9.1667,9.056,8.9457,8.8585,8.7787,8.7443,8.7402,8.7388,8.7417,8.7375,8.7316,8.7112,8.6575,8.6265,8.5808,8.5399,8.497,8.478,8.4907,8.5065,8.4948,8.3933,8.2098,8.1122,8.1005,8.0223,7.9795,7.9835,7.9834,7.9522,7.9248,7.9483,8.0068,8.0732,8.0693,8.0888,8.1435,8.1513,8.12,8.1005,8.1005,8.0693,8.0341,8.0263,7.9444,7.8196,7.7844,7.7805,7.7727,7.7649,7.7492,7.714,7.7101,7.7101,7.7101,7.7101,7.7101,7.7101,7.7101,7.7101,7.7101,7.7101,7.6633,7.6049,7.5541,7.4917,7.3861,7.2962,7.2495,7.2339,7.2104,7.2026,7.1987,7.1987,7.1987,7.1987,7.1987,7.1987,7.1987,7.1987,7.1987,7.1987,7.1987,7.1987,7.1987,7.1987,7.2026,7.2026,7.2182,7.2143,8.8265,8.7601,8.8304,8.8618,8.8735,8.8696,8.8501,8.8657,8.9242,8.975,8.9908,8.9986,9.0845,9.2404,9.1819,9.1819,9.2404,9.1546,9.1267,9.1058,9.1181,9.1601,9.2285,9.2317,9.198,9.1382,9.0401,8.9572,8.8776,8.794,8.7443,8.7402,8.739,8.7423,8.7382,8.7323,8.7326,8.7182,8.6677,8.6373,8.6151,8.5685,8.5452,8.5454,8.569,8.5377,8.4206,8.245,8.0927,7.9951,7.9754,7.9405,7.8859,7.9366,7.9326,7.8975,7.9405,8.0029,8.0615,8.0263,8.0224,8.0849,8.042,8.0146,8.0771,8.0849,8.0732,8.0849,8.0966,7.9914,7.8507,7.7687,7.7687,7.7962,7.8118,7.7805,7.7218,7.7023,7.7101,7.7101,7.7101,7.7101,7.7101,7.7101,7.7101,7.7101,7.7023,7.6633,7.5932,7.5229,7.4525,7.3586,7.2768,7.2104,7.2026,7.1987,7.1987,7.1987,7.1987,7.1987,7.1987,7.1987,7.1987,7.1987,7.1987,7.1987,7.1987,7.1987,7.1987,7.1987,7.1987,7.2065,7.2182,7.2417,7.2495,8.8618,8.8382,8.7874,8.8069,8.8657,8.8696,8.8343,8.7835,8.8696,8.9594,8.9908,9.0025,9.1001,9.2484,9.2287,9.2365,9.2365,9.17,9.1295,9.1218,9.121,9.1634,9.2246,9.2391,9.2278,9.1756,9.059,8.9837,8.9306,8.8207,8.7406,8.7404,8.7402,8.7401,8.7397,8.7393,8.7395,8.7362,8.7165,8.7088,8.7053,8.6859,8.6664,8.6664,8.6275,8.526,8.3933,8.2645,8.163,8.081,8.0107,7.9678,7.9561,7.96,7.9561,7.9483,7.9522,7.9795,8.0029,8.042,8.0771,8.0888,8.0732,8.0771,8.0849,8.0341,8.0381,8.0771,8.0966,8.0538,7.9951,7.9444,7.8741,7.8077,7.7609,7.7179,7.6438,7.6712,7.6984,7.7101,7.7101,7.7101,7.7101,7.7101,7.7101,7.7101,7.6906,7.6672,7.5932,7.5112,7.4408,7.3703,7.2884,7.2339,7.226,7.2182,7.1987,7.2104,7.2182,7.2026,7.2026,7.2143,7.2221,7.2143,7.1987,7.1987,7.1987,7.1987,7.1987,7.1987,7.2065,7.23,7.2534,7.2728,7.3041,8.8103,8.803,8.7601,8.7913,8.8696,8.9125,8.8813,8.8461,8.9828,9.0259,9.022,9.0727,9.1703,9.2482,9.2484,9.2484,9.2326,9.17,9.1484,9.1645,9.1515,9.1643,9.2269,9.2415,9.2376,9.2188,9.1139,9.0384,8.9628,8.8676,8.7835,8.7406,8.7406,8.7404,8.7406,8.7406,8.7404,8.7404,8.7406,8.7406,8.7406,8.7406,8.7406,8.7093,8.6236,8.5104,8.4753,8.3504,8.2723,8.202,8.1005,8.0302,8.0185,7.9951,7.9715,7.9715,7.9715,7.9951,8.0302,8.0381,8.0537,8.0966,8.0654,8.042,8.0341,7.9912,7.9912,8.0263,8.042,8.0498,8.0888,8.0185,7.9248,7.9053,7.8155,7.7531,7.7103,7.6751,7.6711,7.6945,7.7101,7.7101,7.7101,7.7101,7.7101,7.7101,7.7062,7.6789,7.6166,7.5385,7.4837,7.4134,7.3236,7.269,7.2573,7.2378,7.2026,7.2221,7.2495,7.23,7.2104,7.23,7.2534,7.2339,7.2104,7.1987,7.1987,7.1987,7.2026,7.2026,7.2182,7.2534,7.2884,7.3118,7.3549,8.727,8.7402,8.7404,8.7833,8.8575,8.9359,8.9202,8.8886,9.1077,9.0962,9.0493,9.1664,9.2131,9.2482,9.2484,9.2482,9.2131,9.17,9.1525,9.1532,9.1369,9.1546,9.2027,9.2294,9.2417,9.2342,9.151,9.0716,8.9875,8.9075,8.8148,8.7562,8.7406,8.7406,8.7406,8.7406,8.7406,8.7406,8.7406,8.7406,8.7406,8.7406,8.7406,8.7133,8.6352,8.5532,8.5299,8.4401,8.3582,8.3426,8.202,8.1356,8.0966,8.0263,7.9715,7.9715,7.9715,7.9951,8.0341,8.0302,8.0341,8.0927,8.042,8.0029,7.999,7.9678,7.9561,7.9717,7.9873,8.0263,8.0966,8.0263,8.0068,7.9953,7.9055,7.8547,7.8157,7.7025,7.6908,7.6906,7.7101,7.7101,7.7101,7.7101,7.7101,7.7101,7.7062,7.6906,7.6283,7.5736,7.5268,7.4798,7.4017,7.351,7.3393,7.3275,7.2846,7.2807,7.308,7.2847,7.2613,7.2963,7.3158,7.2534,7.226,7.2221,7.2221,7.2223,7.2223,7.2143,7.2417,7.2923,7.3235,7.3547,7.4173,8.6757,8.7425,8.7401,8.7475,8.7739,8.8533,8.8492,8.8012,8.9784,9.0298,9.022,9.1077,9.1975,9.2326,9.2482,9.2131,9.1546,9.1114,9.0869,9.0729,9.0803,9.1296,9.1551,9.2209,9.2456,9.224,9.1625,9.0771,8.992,8.9075,8.8265,8.7562,8.7406,8.7406,8.7406,8.7406,8.7406,8.7406,8.7406,8.7406,8.7406,8.7289,8.7367,8.7328,8.6781,8.6196,8.5337,8.4829,8.4245,8.3504,8.2606,8.2176,8.1826,8.0655,7.9951,7.9715,7.9834,8.0029,8.0185,8.0537,8.0732,8.0927,8.0849,8.0771,8.042,7.964,7.9444,7.9639,7.9912,8.0341,8.1864,8.0772,7.9523,7.9094,7.8745,7.8434,7.8394,7.8044,7.7575,7.7538,7.734,7.7179,7.7257,7.714,7.6945,7.6984,7.7101,7.7062,7.6789,7.6283,7.5775,7.5346,7.4877,7.4525,7.429,7.4212,7.3978,7.3901,7.398,7.3748,7.367,7.398,7.3861,7.3479,7.3047,7.2846,7.2768,7.2691,7.2807,7.2963,7.3158,7.3352,7.3939,7.4526,7.5388,8.658,8.7323,8.7384,8.738,8.7521,8.8269,8.8431,8.8316,8.9809,9.0641,9.0919,9.1546,9.2131,9.2326,9.2014,9.1428,9.0765,9.0101,8.9934,8.9957,9.0343,9.0807,9.1223,9.2081,9.241,9.2268,9.1648,9.0789,8.9932,8.912,8.8265,8.7601,8.7406,8.7406,8.7406,8.7406,8.7406,8.7406,8.7406,8.7406,8.7328,8.7054,8.6937,8.725,8.7015,8.651,8.6313,8.5612,8.5299,8.4714,8.3621,8.3079,8.2537,8.1835,8.0624,7.9954,8.0109,8.0382,8.0381,8.0849,8.1163,8.163,8.163,8.1435,8.1007,8.0343,7.9837,8.0187,8.0381,8.0693,8.1474,8.113,8.047,7.9301,7.8719,7.8645,7.8841,7.8646,7.841,7.8134,7.7619,7.7458,7.7649,7.7375,7.6867,7.6867,7.7025,7.7026,7.6987,7.652,7.5937,7.5975,7.5547,7.5234,7.5,7.4923,7.4923,7.4922,7.4884,7.4692,7.4616,7.4812,7.4973,7.4861,7.4347,7.3829,7.3706,7.3784,7.3783,7.3784,7.3942,7.4217,7.4919,7.5622,7.6291,8.6514,8.7297,8.7362,8.7358,8.7414,8.8043,8.8445,8.8891,9.0187,9.0982,9.1427,9.2092,9.2443,9.2287,9.1661,9.0839,8.9936,8.9152,8.9019,8.9189,8.9777,9.0328,9.0998,9.1946,9.25,9.236,9.1302,9.0683,8.9943,8.9125,8.8265,8.764,8.7406,8.7406,8.7406,8.7406,8.7406,8.7406,8.7406,8.7406,8.7211,8.682,8.6666,8.7289,8.6703,8.6666,8.6703,8.6321,8.5854,8.5348,8.449,8.3637,8.3293,8.2826,8.165,8.0275,8.0703,8.1093,8.1017,8.1251,8.1527,8.1722,8.1952,8.1601,8.1056,8.0551,8.0471,8.1054,8.0743,8.1254,8.1998,8.1728,8.1107,8.025,7.9123,7.866,7.9166,7.9243,7.9125,7.8691,7.7977,7.7702,7.7781,7.7391,7.6846,7.6182,7.6301,7.6378,7.6339,7.6141,7.5908,7.6296,7.6218,7.5867,7.5633,7.5557,7.5597,7.5715,7.5756,7.572,7.5606,7.5569,7.565,7.5729,7.5683,7.5206,7.5043,7.4689,7.4539,7.4502,7.4692,7.4966,7.5441,7.595,7.6539,8.6526,8.7306,8.7294,8.7331,8.7309,8.7445,8.7926,8.8716,8.9671,9.0512,9.1233,9.2092,9.2484,9.2209,9.1581,9.0744,8.9823,8.8911,8.8228,8.8113,8.9064,8.9827,9.0352,9.1781,9.2344,9.2202,9.0904,9.0167,8.9741,8.9042,8.8224,8.7558,8.7399,8.7404,8.7397,8.7397,8.7406,8.7404,8.7404,8.7404,8.7367,8.725,8.725,8.729,8.7212,8.6942,8.6633,8.6253,8.5868,8.5165,8.4901,8.3969,8.2916,8.315,8.1979,8.1002,8.1001,8.1821,8.1272,8.1505,8.1739,8.1543,8.1388,8.1156,8.088,8.002,7.9982,8.1977,8.1,8.1468,8.2873,8.1783,8.0846,8.0339,7.9911,7.956,7.9755,8.0971,8.0736,8.0149,7.9714,7.8425,7.7761,7.7291,7.6783,7.608,7.561,7.5766,7.6115,7.6309,7.6035,7.6462,7.6579,7.6267,7.572,7.5721,7.5996,7.6232,7.6469,7.655,7.6356,7.6201,7.624,7.6279,7.6328,7.6289,7.5923,7.5571,7.5259,7.5334,7.5603,7.5684,7.5806,7.6315,7.6705,8.647,8.7234,8.7267,8.7262,8.7234,8.7247,8.778,8.8667,8.9501,9.015,9.0761,9.1977,9.2248,9.1774,9.09,9.0018,8.9133,8.8284,8.763,8.7491,8.8449,8.9379,9.0074,9.1154,9.1915,9.1913,9.0896,9.0027,8.9524,8.8622,8.7644,8.7451,8.7334,8.733,8.7336,8.7332,8.7332,8.7375,8.7384,8.7395,8.7402,8.7406,8.7411,8.7381,8.7382,8.7113,8.6768,8.6266,8.5997,8.545,8.5221,8.4639,8.4055,8.4096,8.3667,8.3084,8.281,8.2378,8.1317,8.1473,8.1551,8.1785,8.1707,8.1784,8.1394,8.034,8.0456,8.3503,8.2176,8.2606,8.4248,8.3508,8.2532,8.1791,8.1128,8.1211,8.1406,8.2383,8.2811,8.2146,8.1289,7.9805,7.8242,7.7141,7.6906,7.6749,7.6083,7.5809,7.6746,7.7838,7.733,7.6705,7.6705,7.6588,7.5923,7.5533,7.6041,7.6355,7.6906,7.6947,7.687,7.6792,7.6992,7.6953,7.6914,7.6836,7.668,7.6362,7.6006,7.6239,7.659,7.6279,7.5969,7.6048,7.644,8.6149,8.69,8.7169,8.728,8.7212,8.7219,8.7765,8.8667,8.9496,8.9944,9.0354,9.1453,9.1882,9.1486,9.0716,8.9913,8.8916,8.7917,8.7408,8.7525,8.8059,8.8836,8.964,9.0532,9.1413,9.1856,9.0545,8.9759,8.9089,8.8225,8.7364,8.7299,8.7309,8.7304,8.7302,8.7307,8.7312,8.7362,8.7373,8.7391,8.7409,8.7414,8.7228,8.7118,8.7046,8.697,8.6705,8.6161,8.5771,8.5576,8.5227,8.4723,8.4373,8.4217,8.4061,8.3554,8.3203,8.2616,8.1754,8.1557,8.1594,8.179,8.1946,8.1596,8.1283,8.0429,8.093,8.3978,8.3392,8.3705,8.4877,8.5153,8.4099,8.3358,8.2851,8.3047,8.3125,8.3281,8.2773,8.1484,8.082,8.0976,7.9336,7.7461,7.6909,7.7143,7.6752,7.6133,7.7109,7.8633,7.8359,7.7539,7.7773,7.7734,7.7265,7.6719,7.6758,7.6719,7.7265,7.7695,7.7851,7.793,7.8086,7.7969,7.7695,7.7851,7.8047,7.7383,7.6713,7.6128,7.5738,7.6089,7.605,7.6133,7.6836,8.5292,8.616,8.6896,8.7205,8.7134,8.7286,8.7783,8.8436,8.9433,8.9898,9.0164,9.0864,9.1654,9.1879,9.121,9.032,8.9641,8.8733,8.7781,8.7522,8.7919,8.8383,8.9094,8.995,9.0645,9.0326,8.9763,8.9322,8.8731,8.8059,8.7417,8.7292,8.7286,8.7294,8.7294,8.7286,8.7309,8.7362,8.7375,8.7401,8.7421,8.7351,8.7084,8.6468,8.6197,8.5885,8.5183,8.5267,8.5191,8.5191,8.5155,8.4687,8.4336,8.414,8.3867,8.3437,8.3047,8.2617,8.2265,8.2031,8.1758,8.1367,8.1211,8.1211,8.082,8.0156,8.1172,8.3359,8.3359,8.457,8.5625,8.6015,8.5195,8.4765,8.4219,8.3515,8.3359,8.3047,8.2383,8.0781,8.0664,8.1484,8.1015,7.9258,7.7773,7.793,7.7969,7.7383,7.7656,7.8789,7.8828,7.8633,7.9062,7.918,7.918,7.875,7.8047,7.8008,7.8476,7.8906,7.9219,7.9258,7.8945,7.9023,7.8867,7.914,7.9062,7.8008,7.6797,7.539,7.5117,7.6406,7.6797,7.6797,7.8008,8.4109,8.4473,8.5345,8.5993,8.6472,8.6467,8.6693,8.7182,8.8428,8.9718,9.0659,9.0612,9.1212,9.175,9.0979,9.0217,8.9637,8.8239,8.7543,8.7241,8.7409,8.7855,8.848,8.9025,8.9494,8.9557,8.9274,8.8913,8.8516,8.7981,8.7647,8.7439,8.7256,8.7247,8.7247,8.7262,8.7292,8.733,8.7345,8.7363,8.7398,8.7404,8.7251,8.6985,8.6282,8.6089,8.5779,8.5741,8.539,8.5156,8.539,8.5,8.4453,8.4297,8.4062,8.3633,8.3242,8.2969,8.2812,8.2578,8.2109,8.1992,8.1797,8.1601,8.1054,8.082,8.1562,8.2851,8.3594,8.4648,8.5937,8.6523,8.6484,8.6172,8.5429,8.4336,8.3789,8.3476,8.3047,8.1914,8.2461,8.332,8.2422,8.125,7.9844,7.875,7.875,7.875,7.8906,7.9101,7.9258,7.918,7.9492,7.9258,7.918,7.9062,7.9023,7.9375,7.9648,7.9883,8.0156,7.9687,7.9492,7.9687,7.9765,7.9648,7.914,7.8203,7.7344,7.668,7.6992,7.7851,7.789,7.7539,7.8633,8.3228,8.3438,8.3768,8.4728,8.5887,8.599,8.6128,8.6646,8.823,8.9673,9.1028,9.0181,9.0358,9.1011,9.0598,8.9666,8.9199,8.8211,8.7478,8.7163,8.7145,8.7426,8.785,8.8308,8.8687,8.8862,8.8799,8.8406,8.8038,8.8095,8.7725,8.7345,8.7225,8.7225,8.7215,8.7234,8.7278,8.7286,8.7319,8.734,8.741,8.7412,8.7142,8.6872,8.6131,8.5468,8.5234,8.5,8.4883,8.4844,8.5039,8.5351,8.5,8.4687,8.457,8.4258,8.3828,8.3281,8.3047,8.2734,8.2304,8.2187,8.2226,8.2226,8.2148,8.1758,8.2226,8.3242,8.3633,8.4219,8.5703,8.6015,8.6172,8.5664,8.5547,8.4726,8.4492,8.4219,8.3867,8.332,8.3554,8.2812,8.1797,8.0547,8.0,7.9023,7.9219,7.9258,7.9375,7.9648,7.9961,7.9805,7.9648,7.9219,7.8711,7.9297,7.9961,8.0664,8.0859,8.0781,8.0781,8.0312,8.0351,8.082,8.0703,8.0117,7.9687,7.9336,7.8945,7.8555,7.8555,7.8242,7.875,7.8476,7.8789,8.2684,8.3276,8.2474,8.3633,8.5803,8.5884,8.6277,8.6952,8.8664,8.9989,9.0622,8.9432,8.9296,9.0035,8.9947,8.9457,8.8937,8.8383,8.7755,8.7127,8.7005,8.7092,8.7335,8.7742,8.7937,8.7593,8.776,8.7857,8.7351,8.7634,8.7459,8.7259,8.715,8.7142,8.7183,8.7273,8.7314,8.7304,8.7378,8.7402,8.7415,8.7418,8.7108,8.6601,8.582,8.5156,8.4609,8.4648,8.4492,8.414,8.4922,8.5156,8.4922,8.4297,8.4023,8.3867,8.3047,8.2539,8.2344,8.2304,8.2304,8.2304,8.2304,8.2304,8.2304,8.2265,8.2344,8.3203,8.3515,8.3984,8.4648,8.5039,8.5234,8.5234,8.5156,8.4844,8.4531,8.4101,8.3594,8.3633,8.2226,8.0898,8.0078,7.9375,7.9336,7.9219,7.9531,7.9687,7.9687,7.9883,8.0117,8.0039,7.9726,7.9609,7.9414,8.0195,8.0937,8.1679,8.164,8.1094,8.1054,8.0898,8.1172,8.1758,8.125,8.0312,8.0508,8.0781,7.9922,7.8984,7.8203,7.8047,7.875,7.9297,7.9375,8.1821,8.2562,8.2166,8.3187,8.4911,8.5032,8.524,8.5812,8.7367,8.8926,8.9804,8.8994,8.9434,9.0047,8.9529,8.9082,8.9111,8.7795,8.7172,8.712,8.704,8.7011,8.7137,8.7282,8.7348,8.7228,8.7443,8.76,8.7245,8.7624,8.7595,8.7395,8.689,8.6816,8.7121,8.7297,8.7323,8.735,8.7403,8.7412,8.746,8.7461,8.7304,8.6953,8.6133,8.5273,8.457,8.4804,8.457,8.4023,8.4844,8.5312,8.5039,8.4414,8.4414,8.4258,8.3633,8.289,8.2539,8.2304,8.2304,8.2304,8.2304,8.2304,8.2304,8.2304,8.25,8.2812,8.3242,8.3672,8.3984,8.4648,8.4922,8.4844,8.4648,8.414,8.375,8.3242,8.289,8.3359,8.2734,8.1562,8.0586,7.957,7.9258,7.9062,7.9297,7.9453,7.9453,7.9648,7.9844,7.9844,7.9726,7.9844,8.0039,8.0117,8.0273,8.0664,8.0625,8.0234,8.039,8.0859,8.0742,8.0703,8.0586,8.0469,8.0273,8.0039,7.9844,7.918,7.832,7.8281,7.914,7.9414,7.9336,8.1652,8.2117,8.2033,8.2797,8.4073,8.4424,8.5027,8.5956,8.6926,8.8068,8.9024,8.8788,8.8877,8.9289,8.9037,8.8342,8.8768,8.7783,8.7094,8.7085,8.7025,8.7011,8.7021,8.7005,8.7124,8.7068,8.7152,8.7195,8.7256,8.8056,8.7952,8.7275,8.6549,8.6523,8.6758,8.6841,8.6806,8.6938,8.71,8.7458,8.75,8.75,8.75,8.7187,8.664,8.5898,8.5586,8.539,8.5273,8.4687,8.4882,8.5507,8.5038,8.4882,8.4882,8.4648,8.4062,8.3359,8.2929,8.2383,8.2344,8.2304,8.2304,8.2304,8.2304,8.2304,8.2304,8.2539,8.2929,8.3047,8.332,8.4023,8.4023,8.3945,8.375,8.3242,8.3086,8.2617,8.2539,8.3047,8.2812,8.1836,8.1015,8.0234,7.9414,7.9219,7.9023,7.914,7.9258,7.9297,7.9297,7.918,7.9101,7.9023,7.9101,7.9297,7.9453,7.9687,7.9609,7.9453,7.9805,8.0195,7.9883,7.9687,7.9883,7.9844,7.9375,7.9062,7.875,7.8594,7.832,7.8633,7.9492,7.9375,7.9023,8.2053,8.2098,8.2018,8.2504,8.3334,8.4384,8.6013,8.8087,8.7471,8.7709,8.8495,8.8479,8.829,8.7786,8.819,8.8211,8.7759,8.7427,8.7266,8.7098,8.7108,8.705,8.7001,8.7024,8.7072,8.716,8.7199,8.7217,8.7283,8.7832,8.7835,8.7069,8.6228,8.5966,8.5929,8.5849,8.6044,8.6634,8.7146,8.7344,8.7226,8.7265,8.7226,8.6992,8.6562,8.6094,8.5781,8.5586,8.5115,8.4839,8.4916,8.4915,8.4876,8.4878,8.4881,8.4609,8.3945,8.3633,8.3164,8.2539,8.2383,8.2304,8.2304,8.2304,8.2304,8.2304,8.2304,8.2304,8.2539,8.2461,8.2539,8.2617,8.2656,8.2656,8.2617,8.2461,8.2461,8.2344,8.2344,8.2304,8.1914,8.1211,8.0586,7.9883,7.9922,7.9609,7.9414,7.918,7.918,7.875,7.8672,7.8203,7.8125,7.7969,7.8164,7.8594,7.8633,7.8828,7.9023,7.8984,7.9297,7.9336,7.9023,7.8945,7.9336,7.9219,7.8594,7.8047,7.7578,7.7539,7.7851,7.8086,7.8672,7.8594,7.832,8.1467,8.2012,8.1874,8.2688,8.4254,8.5654,8.7058,8.8122,8.7491,8.7647,8.8452,8.781,8.7775,8.8071,8.8304,8.8485,8.8492,8.8269,8.8021,8.7769,8.7341,8.7098,8.7019,8.7055,8.7101,8.7145,8.7178,8.7195,8.7231,8.7629,8.682,8.5649,8.5459,8.5037,8.4648,8.4375,8.5469,8.6484,8.707,8.6914,8.6679,8.6562,8.6562,8.6406,8.6406,8.5976,8.5545,8.6209,8.5698,8.4405,8.5263,8.5496,8.4912,8.4873,8.4759,8.4017,8.3633,8.3359,8.2772,8.2461,8.2304,8.2304,8.2304,8.2304,8.2304,8.2304,8.2304,8.2304,8.2304,8.2304,8.2304,8.2304,8.2304,8.2304,8.2304,8.2304,8.2304,8.2304,8.2344,8.2422,8.1992,8.164,8.0898,8.0625,8.0625,8.0195,7.9922,7.9726,7.9414,7.9101,7.8828,7.8437,7.8125,7.8281,7.7969,7.8242,7.8047,7.8008,7.8203,7.8242,7.8164,7.8125,7.8008,7.8203,7.8633,7.832,7.7656,7.7422,7.7734,7.7304,7.75,7.7617,7.7733,7.7772,7.7771,8.1485,8.191,8.1813,8.264,8.4106,8.5786,8.6836,8.72,8.7141,8.7456,8.7861,8.7707,8.7881,8.8339,8.8691,8.9037,8.9362,8.8973,8.8618,8.8074,8.7779,8.736,8.7206,8.7132,8.7176,8.7171,8.7192,8.7205,8.7088,8.6811,8.6157,8.5544,8.4878,8.414,8.3828,8.3906,8.4687,8.5703,8.6328,8.6133,8.5898,8.5703,8.5703,8.5781,8.5937,8.5779,8.5503,8.6634,8.5848,8.4551,8.5485,8.5096,8.4746,8.4864,8.4831,8.417,8.3742,8.347,8.3002,8.2535,8.2383,8.2304,8.2304,8.2304,8.2304,8.2304,8.2304,8.2304,8.2304,8.2304,8.2304,8.2304,8.2304,8.2304,8.2304,8.2304,8.2304,8.2304,8.25,8.2734,8.2578,8.2344,8.1992,8.1679,8.1484,8.1289,8.1172,8.1133,8.0742,8.0273,8.0039,7.9765,7.9219,7.8906,7.8633,7.8398,7.8203,7.8008,7.7539,7.75,7.7226,7.7422,7.7773,7.7851,7.793,7.789,7.8125,7.8281,7.8398,7.7967,7.7613,7.773,7.7691,7.7377,7.7298,8.1795,8.1908,8.1947,8.245,8.3286,8.4995,8.5782,8.5826,8.6726,8.712,8.7271,8.7932,8.8263,8.8458,8.9153,8.96,8.9818,8.9623,8.9351,8.8502,8.8468,8.8005,8.7314,8.7246,8.7237,8.7192,8.7131,8.7098,8.6821,8.635,8.5857,8.5829,8.4449,8.3672,8.3633,8.3359,8.4023,8.5078,8.5195,8.4883,8.4922,8.4844,8.4921,8.5115,8.5621,8.6087,8.6082,8.6155,8.6109,8.5511,8.5037,8.4493,8.4613,8.4658,8.4629,8.432,8.3696,8.3307,8.2957,8.2568,8.2376,8.23,8.2301,8.2302,8.2304,8.2304,8.2304,8.2304,8.2304,8.2304,8.2304,8.2304,8.2304,8.2304,8.2304,8.2304,8.2304,8.2344,8.2461,8.2617,8.2578,8.2383,8.2461,8.2109,8.1875,8.2031,8.207,8.2031,8.1836,8.1289,8.1211,8.1015,8.0586,8.0156,8.0039,7.9687,7.8828,7.832,7.7773,7.7695,7.8086,7.7969,7.7734,7.8008,7.832,7.8828,7.914,7.914,7.9023,7.8748,7.8394,7.8119,7.7844,7.7648,7.7256,8.0674,8.1794,8.2409,8.2787,8.318,8.4932,8.5661,8.5782,8.6618,8.7005,8.7179,8.7846,8.8342,8.856,8.9726,9.0284,9.0483,9.0483,9.0367,8.9882,8.9532,8.8416,8.7478,8.7643,8.733,8.6809,8.6705,8.6712,8.6209,8.5504,8.4769,8.4231,8.3511,8.3437,8.3398,8.3086,8.3359,8.4453,8.4297,8.4062,8.4062,8.4608,8.4919,8.5151,8.5617,8.608,8.6268,8.6731,8.6098,8.5304,8.5537,8.5264,8.4831,8.4255,8.3906,8.3713,8.3331,8.31,8.2907,8.2715,8.2486,8.2411,8.2374,8.2335,8.2304,8.2304,8.2304,8.2343,8.2304,8.2304,8.2304,8.2304,8.2304,8.2304,8.2304,8.2304,8.2344,8.2383,8.2461,8.2539,8.25,8.2578,8.2695,8.2617,8.2383,8.2304,8.2265,8.2265,8.2304,8.207,8.2344,8.2187,8.1914,8.1601,8.1406,8.082,7.9844,7.9258,7.8789,7.8828,7.8906,7.8789,7.8633,7.8672,7.8906,7.957,7.9883,7.9648,7.9492,7.9414,7.9332,7.9097,7.9016,7.8819,7.8115,7.9423,8.0644,8.1885,8.2377,8.2779,8.4354,8.5117,8.535,8.6443,8.7001,8.706,8.754,8.8089,8.8697,8.9872,9.0911,9.1182,9.1371,9.1048,9.0684,9.0018,8.8944,8.8359,8.7853,8.7025,8.6387,8.5892,8.5633,8.5306,8.46,8.3822,8.3436,8.3269,8.3043,8.3005,8.2654,8.281,8.3633,8.3671,8.3749,8.3826,8.4449,8.4836,8.5107,8.5568,8.6029,8.6373,8.6875,8.6752,8.6277,8.6471,8.5729,8.5259,8.4872,8.4559,8.4209,8.3824,8.3398,8.3284,8.3056,8.2869,8.2871,8.2872,8.299,8.245,8.2457,8.2613,8.2573,8.2338,8.2299,8.2301,8.2304,8.2304,8.2304,8.2383,8.2422,8.2539,8.2617,8.3164,8.3828,8.3672,8.3398,8.3437,8.332,8.3086,8.2851,8.2773,8.2773,8.2773,8.289,8.3203,8.3203,8.2851,8.2422,8.1953,8.1406,8.0742,8.0234,7.9805,7.9492,7.9336,7.9531,7.957,7.9648,7.9883,8.0469,8.0625,8.0547,8.039,8.0351,8.027,8.0113,8.0033,7.9915,7.9291,7.8224,7.9463,8.1037,8.1799,8.2155,8.3718,8.4452,8.4728,8.6243,8.7025,8.6992,8.7025,8.8036,8.9051,8.976,9.0882,9.1625,9.1845,9.1554,9.1102,9.0327,8.9316,8.8387,8.7652,8.6685,8.5698,8.4968,8.4688,8.4467,8.3674,8.313,8.3103,8.2775,8.2282,8.2406,8.2527,8.292,8.3663,8.3978,8.4173,8.4407,8.4679,8.5104,8.5447,8.5788,8.625,8.6632,8.69,8.7367,8.7328,8.7172,8.6547,8.5922,8.5612,8.5377,8.5026,8.4597,8.4481,8.4442,8.3977,8.3789,8.3715,8.3756,8.3528,8.299,8.2953,8.3109,8.2836,8.2603,8.2332,8.2333,8.2297,8.2299,8.2304,8.2422,8.25,8.2656,8.2734,8.3515,8.4414,8.4297,8.3945,8.3906,8.3789,8.3828,8.3594,8.3476,8.3437,8.3515,8.375,8.4023,8.3828,8.3476,8.3047,8.289,8.2304,8.1836,8.1211,8.082,8.0195,7.9883,8.0312,8.0586,8.0664,8.1015,8.1328,8.164,8.1719,8.1562,8.1172,8.117,8.1053,8.0857,8.0701,8.0429,7.7062,8.0379,8.1346,8.1799,8.216,8.3718,8.4413,8.4685,8.6248,8.7025,8.7025,8.7147,8.7939,8.9654,9.0357,9.1242,9.1972,9.2191,9.2191,9.185,9.0755,8.9713,8.8504,8.7199,8.619,8.5155,8.4198,8.3729,8.4221,8.3247,8.2409,8.2659,8.2654,8.2666,8.3256,8.3495,8.3968,8.4634,8.5222,8.5652,8.6043,8.6276,8.631,8.6651,8.7067,8.7608,8.7876,8.7642,8.7484,8.7406,8.7406,8.7093,8.6781,8.6353,8.608,8.5885,8.5454,8.522,8.5064,8.4792,8.4603,8.4564,8.4565,8.4487,8.4221,8.4259,8.4066,8.3405,8.3056,8.2517,8.2404,8.2329,8.2293,8.2253,8.2304,8.2422,8.2578,8.2539,8.2812,8.3398,8.3711,8.3633,8.375,8.4023,8.4648,8.4453,8.4375,8.4375,8.4492,8.4687,8.4844,8.4609,8.4336,8.4804,8.5117,8.3867,8.3164,8.25,8.1719,8.0976,8.0781,8.1328,8.1562,8.1406,8.164,8.1992,8.2304,8.2304,8.2187,8.1836,8.1992,8.1953,8.1719,8.1523,8.125]}]]